<?xml version="1.0" encoding="UTF-8" standalone="no" ?>
<gpx xmlns="http://www.topografix.com/GPX/1/1" creator="MapSource 6.16.3" version="1.1" xmlns:xsi="http://www.w3.org/2001/XMLSchema-instance" xsi:schemaLocation="http://www.topografix.com/GPX/1/1 http://www.topografix.com/GPX/1/1/gpx.xsd">

  <metadata>
    <link href="http://www.garmin.com">
      <text>Garmin International</text>
    </link>
    <time>2016-09-17T08:00:44Z</time>
    <bounds maxlat="46.108846664428711" maxlon="9.367904663085938" minlat="46.076337369158864" minlon="9.306793212890625"/>
  </metadata>

  <wpt lat="46.076816646382213" lon="9.30871669203043">
    <name>ARRIVO</name>
    <cmt>Dervio</cmt>
    <desc>Dervio</desc>
    <sym>Diamond, Green</sym>
    <extensions>
      <gpxx:WaypointExtension xmlns:gpxx="http://www.garmin.com/xmlschemas/GpxExtensions/v3">
        <gpxx:DisplayMode>SymbolAndName</gpxx:DisplayMode>
      </gpxx:WaypointExtension>
    </extensions>
  </wpt>

  <wpt lat="46.076337369158864" lon="9.306793212890625">
    <name>PARTENZA - MUNICIPIO</name>
    <cmt>Dervio</cmt>
    <desc>Dervio</desc>
    <sym>Trail Head</sym>
    <extensions>
      <gpxx:WaypointExtension xmlns:gpxx="http://www.garmin.com/xmlschemas/GpxExtensions/v3">
        <gpxx:DisplayMode>SymbolAndName</gpxx:DisplayMode>
      </gpxx:WaypointExtension>
    </extensions>
  </wpt>

  <trk>
    <name>ACTIVE LOG</name>
    <trkseg>
      <trkpt lat="46.076338291168213" lon="9.306793212890625">
        <ele>214.0306396484375</ele>
        <time>2006-07-29T07:01:31Z</time>
      </trkpt>
      <trkpt lat="46.076359748840332" lon="9.306793212890625">
        <ele>213.0693359375</ele>
        <time>2006-07-29T07:01:52Z</time>
      </trkpt>
      <trkpt lat="46.076359748840332" lon="9.306793212890625">
        <ele>211.62744140625</ele>
        <time>2006-07-29T07:02:13Z</time>
      </trkpt>
      <trkpt lat="46.076381206512451" lon="9.306793212890625">
        <ele>218.3565673828125</ele>
        <time>2006-07-29T07:02:53Z</time>
      </trkpt>
      <trkpt lat="46.076381206512451" lon="9.306879043579102">
        <ele>217.3953857421875</ele>
        <time>2006-07-29T07:03:00Z</time>
      </trkpt>
      <trkpt lat="46.076381206512451" lon="9.307093620300293">
        <ele>216.9146728515625</ele>
        <time>2006-07-29T07:03:09Z</time>
      </trkpt>
      <trkpt lat="46.076359748840332" lon="9.307458400726318">
        <ele>216.4339599609375</ele>
        <time>2006-07-29T07:03:22Z</time>
      </trkpt>
      <trkpt lat="46.076488494873047" lon="9.307780265808106">
        <ele>215.9532470703125</ele>
        <time>2006-07-29T07:03:38Z</time>
      </trkpt>
      <trkpt lat="46.076574325561523" lon="9.307866096496582">
        <ele>215.47265625</ele>
        <time>2006-07-29T07:03:44Z</time>
      </trkpt>
      <trkpt lat="46.076617240905762" lon="9.307973384857178">
        <ele>215.9532470703125</ele>
        <time>2006-07-29T07:03:49Z</time>
      </trkpt>
      <trkpt lat="46.076617240905762" lon="9.308295249938965">
        <ele>215.9532470703125</ele>
        <time>2006-07-29T07:04:02Z</time>
      </trkpt>
      <trkpt lat="46.076617240905762" lon="9.308574199676514">
        <ele>216.4339599609375</ele>
        <time>2006-07-29T07:04:12Z</time>
      </trkpt>
      <trkpt lat="46.076595783233643" lon="9.308981895446777">
        <ele>217.3953857421875</ele>
        <time>2006-07-29T07:04:25Z</time>
      </trkpt>
      <trkpt lat="46.076617240905762" lon="9.309346675872803">
        <ele>218.3565673828125</ele>
        <time>2006-07-29T07:04:36Z</time>
      </trkpt>
      <trkpt lat="46.076724529266357" lon="9.309625625610352">
        <ele>220.2791748046875</ele>
        <time>2006-07-29T07:04:45Z</time>
      </trkpt>
      <trkpt lat="46.076874732971191" lon="9.309797286987305">
        <ele>223.643798828125</ele>
        <time>2006-07-29T07:04:54Z</time>
      </trkpt>
      <trkpt lat="46.077132225036621" lon="9.309947490692139">
        <ele>226.52783203125</ele>
        <time>2006-07-29T07:05:07Z</time>
      </trkpt>
      <trkpt lat="46.077325344085693" lon="9.309990406036377">
        <ele>229.4117431640625</ele>
        <time>2006-07-29T07:05:17Z</time>
      </trkpt>
      <trkpt lat="46.077561378479004" lon="9.310011863708496">
        <ele>230.853759765625</ele>
        <time>2006-07-29T07:05:29Z</time>
      </trkpt>
      <trkpt lat="46.077754497528076" lon="9.309968948364258">
        <ele>233.257080078125</ele>
        <time>2006-07-29T07:05:38Z</time>
      </trkpt>
      <trkpt lat="46.077861785888672" lon="9.309775829315186">
        <ele>236.1409912109375</ele>
        <time>2006-07-29T07:05:47Z</time>
      </trkpt>
      <trkpt lat="46.078011989593506" lon="9.30966854095459">
        <ele>237.5828857421875</ele>
        <time>2006-07-29T07:05:56Z</time>
      </trkpt>
      <trkpt lat="46.078119277954102" lon="9.309797286987305">
        <ele>237.5828857421875</ele>
        <time>2006-07-29T07:06:03Z</time>
      </trkpt>
      <trkpt lat="46.078290939331055" lon="9.309861660003662">
        <ele>238.5443115234375</ele>
        <time>2006-07-29T07:06:12Z</time>
      </trkpt>
      <trkpt lat="46.078462600708008" lon="9.309754371643066">
        <ele>238.5443115234375</ele>
        <time>2006-07-29T07:06:21Z</time>
      </trkpt>
      <trkpt lat="46.078720092773438" lon="9.309775829315186">
        <ele>240.467041015625</ele>
        <time>2006-07-29T07:06:33Z</time>
      </trkpt>
      <trkpt lat="46.078827381134033" lon="9.309754371643066">
        <ele>242.3896484375</ele>
        <time>2006-07-29T07:06:38Z</time>
      </trkpt>
      <trkpt lat="46.078805923461914" lon="9.309883117675781">
        <ele>243.350830078125</ele>
        <time>2006-07-29T07:06:43Z</time>
      </trkpt>
      <trkpt lat="46.078741550445557" lon="9.3099045753479">
        <ele>243.83154296875</ele>
        <time>2006-07-29T07:06:46Z</time>
      </trkpt>
      <trkpt lat="46.078505516052246" lon="9.310011863708496">
        <ele>244.312255859375</ele>
        <time>2006-07-29T07:06:57Z</time>
      </trkpt>
      <trkpt lat="46.078462600708008" lon="9.310033321380615">
        <ele>244.312255859375</ele>
        <time>2006-07-29T07:06:59Z</time>
      </trkpt>
      <trkpt lat="46.078248023986816" lon="9.310355186462402">
        <ele>245.2734375</ele>
        <time>2006-07-29T07:07:13Z</time>
      </trkpt>
      <trkpt lat="46.078205108642578" lon="9.310591220855713">
        <ele>245.754150390625</ele>
        <time>2006-07-29T07:07:22Z</time>
      </trkpt>
      <trkpt lat="46.078312397003174" lon="9.310805797576904">
        <ele>247.6767578125</ele>
        <time>2006-07-29T07:07:30Z</time>
      </trkpt>
      <trkpt lat="46.078505516052246" lon="9.311063289642334">
        <ele>248.1575927734375</ele>
        <time>2006-07-29T07:07:42Z</time>
      </trkpt>
      <trkpt lat="46.078677177429199" lon="9.311192035675049">
        <ele>252.9639892578125</ele>
        <time>2006-07-29T07:07:52Z</time>
      </trkpt>
      <trkpt lat="46.078891754150391" lon="9.311299324035645">
        <ele>256.809326171875</ele>
        <time>2006-07-29T07:08:03Z</time>
      </trkpt>
      <trkpt lat="46.079084873199463" lon="9.311428070068359">
        <ele>260.1739501953125</ele>
        <time>2006-07-29T07:08:14Z</time>
      </trkpt>
      <trkpt lat="46.079277992248535" lon="9.311599731445313">
        <ele>262.5771484375</ele>
        <time>2006-07-29T07:08:25Z</time>
      </trkpt>
      <trkpt lat="46.079363822937012" lon="9.311857223510742">
        <ele>263.53857421875</ele>
        <time>2006-07-29T07:08:34Z</time>
      </trkpt>
      <trkpt lat="46.079256534576416" lon="9.311943054199219">
        <ele>262.5771484375</ele>
        <time>2006-07-29T07:08:40Z</time>
      </trkpt>
      <trkpt lat="46.079041957855225" lon="9.311985969543457">
        <ele>263.53857421875</ele>
        <time>2006-07-29T07:08:51Z</time>
      </trkpt>
      <trkpt lat="46.078805923461914" lon="9.311985969543457">
        <ele>267.3839111328125</ele>
        <time>2006-07-29T07:09:02Z</time>
      </trkpt>
      <trkpt lat="46.078591346740723" lon="9.312028884887695">
        <ele>271.2291259765625</ele>
        <time>2006-07-29T07:09:13Z</time>
      </trkpt>
      <trkpt lat="46.078462600708008" lon="9.312028884887695">
        <ele>273.15185546875</ele>
        <time>2006-07-29T07:09:20Z</time>
      </trkpt>
      <trkpt lat="46.078462600708008" lon="9.311878681182861">
        <ele>271.709716796875</ele>
        <time>2006-07-29T07:09:26Z</time>
      </trkpt>
      <trkpt lat="46.078462600708008" lon="9.311857223510742">
        <ele>272.671142578125</ele>
        <time>2006-07-29T07:09:27Z</time>
      </trkpt>
      <trkpt lat="46.078505516052246" lon="9.311621189117432">
        <ele>273.6324462890625</ele>
        <time>2006-07-29T07:09:36Z</time>
      </trkpt>
      <trkpt lat="46.07839822769165" lon="9.311428070068359">
        <ele>274.59375</ele>
        <time>2006-07-29T07:09:45Z</time>
      </trkpt>
      <trkpt lat="46.078183650970459" lon="9.311149120330811">
        <ele>276.03564453125</ele>
        <time>2006-07-29T07:10:00Z</time>
      </trkpt>
      <trkpt lat="46.078054904937744" lon="9.31117057800293">
        <ele>276.9970703125</ele>
        <time>2006-07-29T07:10:07Z</time>
      </trkpt>
      <trkpt lat="46.077990531921387" lon="9.311363697052002">
        <ele>276.9970703125</ele>
        <time>2006-07-29T07:10:14Z</time>
      </trkpt>
      <trkpt lat="46.07790470123291" lon="9.311685562133789">
        <ele>276.9970703125</ele>
        <time>2006-07-29T07:10:26Z</time>
      </trkpt>
      <trkpt lat="46.077775955200195" lon="9.311792850494385">
        <ele>278.919677734375</ele>
        <time>2006-07-29T07:10:34Z</time>
      </trkpt>
      <trkpt lat="46.077539920806885" lon="9.311878681182861">
        <ele>281.8035888671875</ele>
        <time>2006-07-29T07:10:46Z</time>
      </trkpt>
      <trkpt lat="46.077303886413574" lon="9.312028884887695">
        <ele>283.7261962890625</ele>
        <time>2006-07-29T07:11:00Z</time>
      </trkpt>
      <trkpt lat="46.077067852020264" lon="9.312136173248291">
        <ele>285.168212890625</ele>
        <time>2006-07-29T07:11:13Z</time>
      </trkpt>
      <trkpt lat="46.077067852020264" lon="9.312200546264648">
        <ele>285.6488037109375</ele>
        <time>2006-07-29T07:11:15Z</time>
      </trkpt>
      <trkpt lat="46.07715368270874" lon="9.312307834625244">
        <ele>286.1295166015625</ele>
        <time>2006-07-29T07:11:22Z</time>
      </trkpt>
      <trkpt lat="46.077175140380859" lon="9.312307834625244">
        <ele>286.1295166015625</ele>
        <time>2006-07-29T07:11:23Z</time>
      </trkpt>
      <trkpt lat="46.077475547790527" lon="9.312243461608887">
        <ele>289.494140625</ele>
        <time>2006-07-29T07:11:39Z</time>
      </trkpt>
      <trkpt lat="46.0776686668396" lon="9.312243461608887">
        <ele>291.8974609375</ele>
        <time>2006-07-29T07:11:49Z</time>
      </trkpt>
      <trkpt lat="46.077926158905029" lon="9.312243461608887">
        <ele>295.74267578125</ele>
        <time>2006-07-29T07:12:03Z</time>
      </trkpt>
      <trkpt lat="46.078140735626221" lon="9.312264919281006">
        <ele>297.6654052734375</ele>
        <time>2006-07-29T07:12:15Z</time>
      </trkpt>
      <trkpt lat="46.078312397003174" lon="9.312393665313721">
        <ele>300.0687255859375</ele>
        <time>2006-07-29T07:12:25Z</time>
      </trkpt>
      <trkpt lat="46.078484058380127" lon="9.312500953674316">
        <ele>301.5106201171875</ele>
        <time>2006-07-29T07:12:35Z</time>
      </trkpt>
      <trkpt lat="46.078677177429199" lon="9.312608242034912">
        <ele>302.9525146484375</ele>
        <time>2006-07-29T07:12:47Z</time>
      </trkpt>
      <trkpt lat="46.078634262084961" lon="9.312715530395508">
        <ele>303.9139404296875</ele>
        <time>2006-07-29T07:12:52Z</time>
      </trkpt>
      <trkpt lat="46.078591346740723" lon="9.312715530395508">
        <ele>304.3946533203125</ele>
        <time>2006-07-29T07:12:54Z</time>
      </trkpt>
      <trkpt lat="46.078441143035889" lon="9.31267261505127">
        <ele>305.836669921875</ele>
        <time>2006-07-29T07:13:04Z</time>
      </trkpt>
      <trkpt lat="46.078226566314697" lon="9.312629699707031">
        <ele>307.75927734375</ele>
        <time>2006-07-29T07:13:14Z</time>
      </trkpt>
      <trkpt lat="46.078054904937744" lon="9.312586784362793">
        <ele>308.720458984375</ele>
        <time>2006-07-29T07:13:24Z</time>
      </trkpt>
      <trkpt lat="46.077840328216553" lon="9.312629699707031">
        <ele>311.123779296875</ele>
        <time>2006-07-29T07:13:35Z</time>
      </trkpt>
      <trkpt lat="46.077818870544434" lon="9.312822818756104">
        <ele>312.085205078125</ele>
        <time>2006-07-29T07:13:42Z</time>
      </trkpt>
      <trkpt lat="46.077883243560791" lon="9.313058853149414">
        <ele>314.0078125</ele>
        <time>2006-07-29T07:13:52Z</time>
      </trkpt>
      <trkpt lat="46.077990531921387" lon="9.313037395477295">
        <ele>315.4498291015625</ele>
        <time>2006-07-29T07:13:58Z</time>
      </trkpt>
      <trkpt lat="46.078183650970459" lon="9.31290864944458">
        <ele>317.3724365234375</ele>
        <time>2006-07-29T07:14:09Z</time>
      </trkpt>
      <trkpt lat="46.078248023986816" lon="9.313037395477295">
        <ele>317.85302734375</ele>
        <time>2006-07-29T07:14:15Z</time>
      </trkpt>
      <trkpt lat="46.07816219329834" lon="9.31316614151001">
        <ele>317.85302734375</ele>
        <time>2006-07-29T07:14:22Z</time>
      </trkpt>
      <trkpt lat="46.077926158905029" lon="9.31316614151001">
        <ele>319.2950439453125</ele>
        <time>2006-07-29T07:14:34Z</time>
      </trkpt>
      <trkpt lat="46.077797412872314" lon="9.313294887542725">
        <ele>319.2950439453125</ele>
        <time>2006-07-29T07:14:42Z</time>
      </trkpt>
      <trkpt lat="46.077797412872314" lon="9.313488006591797">
        <ele>318.3336181640625</ele>
        <time>2006-07-29T07:14:49Z</time>
      </trkpt>
      <trkpt lat="46.07790470123291" lon="9.31365966796875">
        <ele>319.775634765625</ele>
        <time>2006-07-29T07:14:57Z</time>
      </trkpt>
      <trkpt lat="46.078033447265625" lon="9.313874244689941">
        <ele>321.2177734375</ele>
        <time>2006-07-29T07:15:08Z</time>
      </trkpt>
      <trkpt lat="46.077883243560791" lon="9.314110279083252">
        <ele>323.140380859375</ele>
        <time>2006-07-29T07:15:19Z</time>
      </trkpt>
      <trkpt lat="46.077818870544434" lon="9.314196109771729">
        <ele>323.6209716796875</ele>
        <time>2006-07-29T07:15:23Z</time>
      </trkpt>
      <trkpt lat="46.0776686668396" lon="9.314174652099609">
        <ele>325.06298828125</ele>
        <time>2006-07-29T07:15:31Z</time>
      </trkpt>
      <trkpt lat="46.077518463134766" lon="9.314281940460205">
        <ele>326.024169921875</ele>
        <time>2006-07-29T07:15:39Z</time>
      </trkpt>
      <trkpt lat="46.077497005462646" lon="9.314539432525635">
        <ele>326.985595703125</ele>
        <time>2006-07-29T07:15:47Z</time>
      </trkpt>
      <trkpt lat="46.077497005462646" lon="9.314968585968018">
        <ele>329.8695068359375</ele>
        <time>2006-07-29T07:16:01Z</time>
      </trkpt>
      <trkpt lat="46.07741117477417" lon="9.315226078033447">
        <ele>330.8309326171875</ele>
        <time>2006-07-29T07:16:10Z</time>
      </trkpt>
      <trkpt lat="46.077303886413574" lon="9.315483570098877">
        <ele>331.3115234375</ele>
        <time>2006-07-29T07:16:20Z</time>
      </trkpt>
      <trkpt lat="46.077389717102051" lon="9.315612316131592">
        <ele>333.234130859375</ele>
        <time>2006-07-29T07:16:26Z</time>
      </trkpt>
      <trkpt lat="46.077475547790527" lon="9.315526485443115">
        <ele>333.7147216796875</ele>
        <time>2006-07-29T07:16:31Z</time>
      </trkpt>
      <trkpt lat="46.07764720916748" lon="9.315311908721924">
        <ele>335.6373291015625</ele>
        <time>2006-07-29T07:16:41Z</time>
      </trkpt>
      <trkpt lat="46.077711582183838" lon="9.31490421295166">
        <ele>339.482666015625</ele>
        <time>2006-07-29T07:16:54Z</time>
      </trkpt>
      <trkpt lat="46.077797412872314" lon="9.31466817855835">
        <ele>341.885986328125</ele>
        <time>2006-07-29T07:17:04Z</time>
      </trkpt>
      <trkpt lat="46.077861785888672" lon="9.314754009246826">
        <ele>343.327880859375</ele>
        <time>2006-07-29T07:17:10Z</time>
      </trkpt>
      <trkpt lat="46.077861785888672" lon="9.314796924591065">
        <ele>343.327880859375</ele>
        <time>2006-07-29T07:17:11Z</time>
      </trkpt>
      <trkpt lat="46.077840328216553" lon="9.315097332000732">
        <ele>344.77001953125</ele>
        <time>2006-07-29T07:17:22Z</time>
      </trkpt>
      <trkpt lat="46.077861785888672" lon="9.315462112426758">
        <ele>347.1732177734375</ele>
        <time>2006-07-29T07:17:35Z</time>
      </trkpt>
      <trkpt lat="46.077840328216553" lon="9.315826892852783">
        <ele>349.0958251953125</ele>
        <time>2006-07-29T07:17:48Z</time>
      </trkpt>
      <trkpt lat="46.077733039855957" lon="9.316127300262451">
        <ele>350.537841796875</ele>
        <time>2006-07-29T07:18:00Z</time>
      </trkpt>
      <trkpt lat="46.077582836151123" lon="9.316384792327881">
        <ele>352.941162109375</ele>
        <time>2006-07-29T07:18:12Z</time>
      </trkpt>
      <trkpt lat="46.077561378479004" lon="9.316556453704834">
        <ele>354.3831787109375</ele>
        <time>2006-07-29T07:18:19Z</time>
      </trkpt>
      <trkpt lat="46.07764720916748" lon="9.316642284393311">
        <ele>354.3831787109375</ele>
        <time>2006-07-29T07:18:25Z</time>
      </trkpt>
      <trkpt lat="46.077797412872314" lon="9.316534996032715">
        <ele>355.8251953125</ele>
        <time>2006-07-29T07:18:33Z</time>
      </trkpt>
      <trkpt lat="46.077969074249268" lon="9.316277503967285">
        <ele>358.708984375</ele>
        <time>2006-07-29T07:18:45Z</time>
      </trkpt>
      <trkpt lat="46.078097820281982" lon="9.316041469573975">
        <ele>360.6317138671875</ele>
        <time>2006-07-29T07:18:56Z</time>
      </trkpt>
      <trkpt lat="46.078183650970459" lon="9.315762519836426">
        <ele>363.0350341796875</ele>
        <time>2006-07-29T07:19:07Z</time>
      </trkpt>
      <trkpt lat="46.078269481658936" lon="9.31541919708252">
        <ele>364.4769287109375</ele>
        <time>2006-07-29T07:19:20Z</time>
      </trkpt>
      <trkpt lat="46.07839822769165" lon="9.315183162689209">
        <ele>366.3995361328125</ele>
        <time>2006-07-29T07:19:31Z</time>
      </trkpt>
      <trkpt lat="46.078591346740723" lon="9.315032958984375">
        <ele>368.802978515625</ele>
        <time>2006-07-29T07:19:42Z</time>
      </trkpt>
      <trkpt lat="46.078848838806152" lon="9.314861297607422">
        <ele>370.244873046875</ele>
        <time>2006-07-29T07:19:56Z</time>
      </trkpt>
      <trkpt lat="46.079063415527344" lon="9.314732551574707">
        <ele>371.6868896484375</ele>
        <time>2006-07-29T07:20:09Z</time>
      </trkpt>
      <trkpt lat="46.079299449920654" lon="9.314625263214111">
        <ele>373.12890625</ele>
        <time>2006-07-29T07:20:22Z</time>
      </trkpt>
      <trkpt lat="46.079492568969727" lon="9.314560890197754">
        <ele>375.051513671875</ele>
        <time>2006-07-29T07:20:33Z</time>
      </trkpt>
      <trkpt lat="46.079728603363037" lon="9.314453601837158">
        <ele>376.4935302734375</ele>
        <time>2006-07-29T07:20:46Z</time>
      </trkpt>
      <trkpt lat="46.079921722412109" lon="9.314389228820801">
        <ele>378.4161376953125</ele>
        <time>2006-07-29T07:20:56Z</time>
      </trkpt>
      <trkpt lat="46.079986095428467" lon="9.31441068649292">
        <ele>379.37744140625</ele>
        <time>2006-07-29T07:21:00Z</time>
      </trkpt>
      <trkpt lat="46.080050468444824" lon="9.314560890197754">
        <ele>379.8580322265625</ele>
        <time>2006-07-29T07:21:07Z</time>
      </trkpt>
      <trkpt lat="46.079878807067871" lon="9.314689636230469">
        <ele>380.8194580078125</ele>
        <time>2006-07-29T07:21:16Z</time>
      </trkpt>
      <trkpt lat="46.079685688018799" lon="9.314839839935303">
        <ele>381.7806396484375</ele>
        <time>2006-07-29T07:21:28Z</time>
      </trkpt>
      <trkpt lat="46.079514026641846" lon="9.315011501312256">
        <ele>383.7032470703125</ele>
        <time>2006-07-29T07:21:39Z</time>
      </trkpt>
      <trkpt lat="46.079514026641846" lon="9.315226078033447">
        <ele>386.106689453125</ele>
        <time>2006-07-29T07:21:47Z</time>
      </trkpt>
      <trkpt lat="46.07966423034668" lon="9.315290451049805">
        <ele>388.9906005859375</ele>
        <time>2006-07-29T07:21:55Z</time>
      </trkpt>
      <trkpt lat="46.079857349395752" lon="9.315268993377686">
        <ele>388.510009765625</ele>
        <time>2006-07-29T07:22:06Z</time>
      </trkpt>
      <trkpt lat="46.080071926116943" lon="9.315118789672852">
        <ele>390.4326171875</ele>
        <time>2006-07-29T07:22:18Z</time>
      </trkpt>
      <trkpt lat="46.080265045166016" lon="9.314882755279541">
        <ele>391.87451171875</ele>
        <time>2006-07-29T07:22:31Z</time>
      </trkpt>
      <trkpt lat="46.080436706542969" lon="9.314796924591065">
        <ele>393.7972412109375</ele>
        <time>2006-07-29T07:22:41Z</time>
      </trkpt>
      <trkpt lat="46.080629825592041" lon="9.314861297607422">
        <ele>395.2391357421875</ele>
        <time>2006-07-29T07:22:52Z</time>
      </trkpt>
      <trkpt lat="46.080865859985352" lon="9.314947128295898">
        <ele>397.6424560546875</ele>
        <time>2006-07-29T07:23:05Z</time>
      </trkpt>
      <trkpt lat="46.081080436706543" lon="9.31490421295166">
        <ele>399.0843505859375</ele>
        <time>2006-07-29T07:23:17Z</time>
      </trkpt>
      <trkpt lat="46.081359386444092" lon="9.314925670623779">
        <ele>401.48779296875</ele>
        <time>2006-07-29T07:23:31Z</time>
      </trkpt>
      <trkpt lat="46.081531047821045" lon="9.315011501312256">
        <ele>404.3717041015625</ele>
        <time>2006-07-29T07:23:42Z</time>
      </trkpt>
      <trkpt lat="46.081552505493164" lon="9.315183162689209">
        <ele>406.2943115234375</ele>
        <time>2006-07-29T07:23:49Z</time>
      </trkpt>
      <trkpt lat="46.081466674804688" lon="9.315183162689209">
        <ele>406.77490234375</ele>
        <time>2006-07-29T07:23:54Z</time>
      </trkpt>
      <trkpt lat="46.081209182739258" lon="9.315118789672852">
        <ele>407.736328125</ele>
        <time>2006-07-29T07:24:07Z</time>
      </trkpt>
      <trkpt lat="46.080994606018066" lon="9.31516170501709">
        <ele>409.6590576171875</ele>
        <time>2006-07-29T07:24:19Z</time>
      </trkpt>
      <trkpt lat="46.080801486968994" lon="9.315247535705566">
        <ele>411.5816650390625</ele>
        <time>2006-07-29T07:24:30Z</time>
      </trkpt>
      <trkpt lat="46.080586910247803" lon="9.315376281738281">
        <ele>413.5042724609375</ele>
        <time>2006-07-29T07:24:42Z</time>
      </trkpt>
      <trkpt lat="46.080372333526611" lon="9.315483570098877">
        <ele>415.4268798828125</ele>
        <time>2006-07-29T07:24:55Z</time>
      </trkpt>
      <trkpt lat="46.08015775680542" lon="9.315612316131592">
        <ele>417.349609375</ele>
        <time>2006-07-29T07:25:07Z</time>
      </trkpt>
      <trkpt lat="46.079943180084229" lon="9.315719604492188">
        <ele>419.7528076171875</ele>
        <time>2006-07-29T07:25:19Z</time>
      </trkpt>
      <trkpt lat="46.079728603363037" lon="9.315934181213379">
        <ele>421.6754150390625</ele>
        <time>2006-07-29T07:25:33Z</time>
      </trkpt>
      <trkpt lat="46.079578399658203" lon="9.31614875793457">
        <ele>422.63671875</ele>
        <time>2006-07-29T07:25:44Z</time>
      </trkpt>
      <trkpt lat="46.079471111297607" lon="9.316427707672119">
        <ele>424.5594482421875</ele>
        <time>2006-07-29T07:25:56Z</time>
      </trkpt>
      <trkpt lat="46.079385280609131" lon="9.316706657409668">
        <ele>426.4820556640625</ele>
        <time>2006-07-29T07:26:07Z</time>
      </trkpt>
      <trkpt lat="46.079277992248535" lon="9.317049980163574">
        <ele>426.0013427734375</ele>
        <time>2006-07-29T07:26:21Z</time>
      </trkpt>
      <trkpt lat="46.079106330871582" lon="9.317307472229004">
        <ele>428.4046630859375</ele>
        <time>2006-07-29T07:26:33Z</time>
      </trkpt>
      <trkpt lat="46.078870296478271" lon="9.317457675933838">
        <ele>430.3272705078125</ele>
        <time>2006-07-29T07:26:46Z</time>
      </trkpt>
      <trkpt lat="46.078741550445557" lon="9.31765079498291">
        <ele>431.7691650390625</ele>
        <time>2006-07-29T07:26:56Z</time>
      </trkpt>
      <trkpt lat="46.078805923461914" lon="9.317822456359863">
        <ele>431.7691650390625</ele>
        <time>2006-07-29T07:27:03Z</time>
      </trkpt>
      <trkpt lat="46.078934669494629" lon="9.317800998687744">
        <ele>433.2113037109375</ele>
        <time>2006-07-29T07:27:09Z</time>
      </trkpt>
      <trkpt lat="46.079041957855225" lon="9.317629337310791">
        <ele>434.172607421875</ele>
        <time>2006-07-29T07:27:17Z</time>
      </trkpt>
      <trkpt lat="46.079213619232178" lon="9.317393302917481">
        <ele>437.537109375</ele>
        <time>2006-07-29T07:27:29Z</time>
      </trkpt>
      <trkpt lat="46.079363822937012" lon="9.317328929901123">
        <ele>438.49853515625</ele>
        <time>2006-07-29T07:27:37Z</time>
      </trkpt>
      <trkpt lat="46.079514026641846" lon="9.317178726196289">
        <ele>439.459716796875</ele>
        <time>2006-07-29T07:27:47Z</time>
      </trkpt>
      <trkpt lat="46.079578399658203" lon="9.31689977645874">
        <ele>440.4212646484375</ele>
        <time>2006-07-29T07:27:57Z</time>
      </trkpt>
      <trkpt lat="46.079642772674561" lon="9.316792488098145">
        <ele>441.3824462890625</ele>
        <time>2006-07-29T07:28:03Z</time>
      </trkpt>
      <trkpt lat="46.079792976379395" lon="9.316642284393311">
        <ele>442.824462890625</ele>
        <time>2006-07-29T07:28:12Z</time>
      </trkpt>
      <trkpt lat="46.079943180084229" lon="9.316642284393311">
        <ele>443.3050537109375</ele>
        <time>2006-07-29T07:28:19Z</time>
      </trkpt>
      <trkpt lat="46.080179214477539" lon="9.316706657409668">
        <ele>445.7083740234375</ele>
        <time>2006-07-29T07:28:31Z</time>
      </trkpt>
      <trkpt lat="46.080372333526611" lon="9.316620826721191">
        <ele>447.6309814453125</ele>
        <time>2006-07-29T07:28:42Z</time>
      </trkpt>
      <trkpt lat="46.080522537231445" lon="9.316427707672119">
        <ele>449.072998046875</ele>
        <time>2006-07-29T07:28:53Z</time>
      </trkpt>
      <trkpt lat="46.080715656280518" lon="9.316191673278809">
        <ele>451.476318359375</ele>
        <time>2006-07-29T07:29:06Z</time>
      </trkpt>
      <trkpt lat="46.08090877532959" lon="9.316084384918213">
        <ele>453.39892578125</ele>
        <time>2006-07-29T07:29:18Z</time>
      </trkpt>
      <trkpt lat="46.081123352050781" lon="9.316084384918213">
        <ele>456.282958984375</ele>
        <time>2006-07-29T07:29:30Z</time>
      </trkpt>
      <trkpt lat="46.081252098083496" lon="9.31617021560669">
        <ele>457.2442626953125</ele>
        <time>2006-07-29T07:29:39Z</time>
      </trkpt>
      <trkpt lat="46.081187725067139" lon="9.316277503967285">
        <ele>457.7249755859375</ele>
        <time>2006-07-29T07:29:45Z</time>
      </trkpt>
      <trkpt lat="46.080994606018066" lon="9.316298961639404">
        <ele>459.1668701171875</ele>
        <time>2006-07-29T07:29:57Z</time>
      </trkpt>
      <trkpt lat="46.080865859985352" lon="9.316320419311523">
        <ele>460.128173828125</ele>
        <time>2006-07-29T07:30:05Z</time>
      </trkpt>
      <trkpt lat="46.080780029296875" lon="9.31640625">
        <ele>461.0894775390625</ele>
        <time>2006-07-29T07:30:12Z</time>
      </trkpt>
      <trkpt lat="46.080694198608398" lon="9.316599369049072">
        <ele>462.5313720703125</ele>
        <time>2006-07-29T07:30:22Z</time>
      </trkpt>
      <trkpt lat="46.080629825592041" lon="9.316813945770264">
        <ele>463.0120849609375</ele>
        <time>2006-07-29T07:30:32Z</time>
      </trkpt>
      <trkpt lat="46.080522537231445" lon="9.317007064819336">
        <ele>464.4541015625</ele>
        <time>2006-07-29T07:30:42Z</time>
      </trkpt>
      <trkpt lat="46.080372333526611" lon="9.317092895507813">
        <ele>466.376708984375</ele>
        <time>2006-07-29T07:30:52Z</time>
      </trkpt>
      <trkpt lat="46.080222129821777" lon="9.317200183868408">
        <ele>467.338134765625</ele>
        <time>2006-07-29T07:31:03Z</time>
      </trkpt>
      <trkpt lat="46.080071926116943" lon="9.317328929901123">
        <ele>468.780029296875</ele>
        <time>2006-07-29T07:31:13Z</time>
      </trkpt>
      <trkpt lat="46.079943180084229" lon="9.317522048950195">
        <ele>470.221923828125</ele>
        <time>2006-07-29T07:31:24Z</time>
      </trkpt>
      <trkpt lat="46.079814434051514" lon="9.317758083343506">
        <ele>472.6253662109375</ele>
        <time>2006-07-29T07:31:36Z</time>
      </trkpt>
      <trkpt lat="46.079707145690918" lon="9.317972660064697">
        <ele>474.0672607421875</ele>
        <time>2006-07-29T07:31:48Z</time>
      </trkpt>
      <trkpt lat="46.079599857330322" lon="9.31814432144165">
        <ele>475.0286865234375</ele>
        <time>2006-07-29T07:31:58Z</time>
      </trkpt>
      <trkpt lat="46.079556941986084" lon="9.31816577911377">
        <ele>475.50927734375</ele>
        <time>2006-07-29T07:32:05Z</time>
      </trkpt>
      <trkpt lat="46.079556941986084" lon="9.318187236785889">
        <ele>474.5479736328125</ele>
        <time>2006-07-29T07:32:22Z</time>
      </trkpt>
      <trkpt lat="46.079556941986084" lon="9.318187236785889">
        <ele>474.5479736328125</ele>
        <time>2006-07-29T07:32:40Z</time>
      </trkpt>
      <trkpt lat="46.079578399658203" lon="9.31816577911377">
        <ele>474.0672607421875</ele>
        <time>2006-07-29T07:33:08Z</time>
      </trkpt>
      <trkpt lat="46.079578399658203" lon="9.31816577911377">
        <ele>475.9898681640625</ele>
        <time>2006-07-29T07:33:54Z</time>
      </trkpt>
      <trkpt lat="46.079556941986084" lon="9.31816577911377">
        <ele>472.6253662109375</ele>
        <time>2006-07-29T07:34:53Z</time>
      </trkpt>
      <trkpt lat="46.079556941986084" lon="9.31816577911377">
        <ele>472.6253662109375</ele>
        <time>2006-07-29T07:35:43Z</time>
      </trkpt>
      <trkpt lat="46.079578399658203" lon="9.31816577911377">
        <ele>472.6253662109375</ele>
        <time>2006-07-29T07:36:18Z</time>
      </trkpt>
      <trkpt lat="46.079578399658203" lon="9.31816577911377">
        <ele>476.4705810546875</ele>
        <time>2006-07-29T07:37:15Z</time>
      </trkpt>
      <trkpt lat="46.079556941986084" lon="9.318208694458008">
        <ele>475.50927734375</ele>
        <time>2006-07-29T07:38:11Z</time>
      </trkpt>
      <trkpt lat="46.079492568969727" lon="9.318358898162842">
        <ele>475.9898681640625</ele>
        <time>2006-07-29T07:38:20Z</time>
      </trkpt>
      <trkpt lat="46.07940673828125" lon="9.318530559539795">
        <ele>477.431884765625</ele>
        <time>2006-07-29T07:38:29Z</time>
      </trkpt>
      <trkpt lat="46.079342365264893" lon="9.318766593933106">
        <ele>479.3544921875</ele>
        <time>2006-07-29T07:38:39Z</time>
      </trkpt>
      <trkpt lat="46.079363822937012" lon="9.319109916687012">
        <ele>481.2772216796875</ele>
        <time>2006-07-29T07:38:52Z</time>
      </trkpt>
      <trkpt lat="46.079428195953369" lon="9.319324493408203">
        <ele>482.71923828125</ele>
        <time>2006-07-29T07:39:02Z</time>
      </trkpt>
      <trkpt lat="46.079578399658203" lon="9.319581985473633">
        <ele>484.641845703125</ele>
        <time>2006-07-29T07:39:15Z</time>
      </trkpt>
      <trkpt lat="46.079728603363037" lon="9.319818019866943">
        <ele>487.0450439453125</ele>
        <time>2006-07-29T07:39:28Z</time>
      </trkpt>
      <trkpt lat="46.07990026473999" lon="9.320032596588135">
        <ele>488.4871826171875</ele>
        <time>2006-07-29T07:39:40Z</time>
      </trkpt>
      <trkpt lat="46.080029010772705" lon="9.320268630981445">
        <ele>489.4483642578125</ele>
        <time>2006-07-29T07:39:52Z</time>
      </trkpt>
      <trkpt lat="46.080179214477539" lon="9.320461750030518">
        <ele>490.4097900390625</ele>
        <time>2006-07-29T07:40:03Z</time>
      </trkpt>
      <trkpt lat="46.080329418182373" lon="9.32065486907959">
        <ele>492.3323974609375</ele>
        <time>2006-07-29T07:40:14Z</time>
      </trkpt>
      <trkpt lat="46.080501079559326" lon="9.320933818817139">
        <ele>495.2161865234375</ele>
        <time>2006-07-29T07:40:28Z</time>
      </trkpt>
      <trkpt lat="46.080629825592041" lon="9.321169853210449">
        <ele>497.61962890625</ele>
        <time>2006-07-29T07:40:40Z</time>
      </trkpt>
      <trkpt lat="46.080758571624756" lon="9.321384429931641">
        <ele>498.5809326171875</ele>
        <time>2006-07-29T07:40:51Z</time>
      </trkpt>
      <trkpt lat="46.080887317657471" lon="9.32166337966919">
        <ele>500.02294921875</ele>
        <time>2006-07-29T07:41:04Z</time>
      </trkpt>
      <trkpt lat="46.081016063690186" lon="9.321942329406738">
        <ele>500.5035400390625</ele>
        <time>2006-07-29T07:41:17Z</time>
      </trkpt>
      <trkpt lat="46.081123352050781" lon="9.322135448455811">
        <ele>500.5035400390625</ele>
        <time>2006-07-29T07:41:27Z</time>
      </trkpt>
      <trkpt lat="46.081252098083496" lon="9.322328567504883">
        <ele>502.90673828125</ele>
        <time>2006-07-29T07:41:38Z</time>
      </trkpt>
      <trkpt lat="46.081445217132568" lon="9.322543144226074">
        <ele>504.8294677734375</ele>
        <time>2006-07-29T07:41:51Z</time>
      </trkpt>
      <trkpt lat="46.081616878509521" lon="9.322757720947266">
        <ele>507.7135009765625</ele>
        <time>2006-07-29T07:42:04Z</time>
      </trkpt>
      <trkpt lat="46.081788539886475" lon="9.322972297668457">
        <ele>511.0780029296875</ele>
        <time>2006-07-29T07:42:17Z</time>
      </trkpt>
      <trkpt lat="46.081938743591309" lon="9.323165416717529">
        <ele>514.442626953125</ele>
        <time>2006-07-29T07:42:27Z</time>
      </trkpt>
      <trkpt lat="46.082088947296143" lon="9.323444366455078">
        <ele>517.8072509765625</ele>
        <time>2006-07-29T07:42:41Z</time>
      </trkpt>
      <trkpt lat="46.082239151000977" lon="9.32365894317627">
        <ele>520.6912841796875</ele>
        <time>2006-07-29T07:42:52Z</time>
      </trkpt>
      <trkpt lat="46.082346439361572" lon="9.323852062225342">
        <ele>521.652587890625</ele>
        <time>2006-07-29T07:43:02Z</time>
      </trkpt>
      <trkpt lat="46.082475185394287" lon="9.324109554290772">
        <ele>521.652587890625</ele>
        <time>2006-07-29T07:43:14Z</time>
      </trkpt>
      <trkpt lat="46.082561016082764" lon="9.32440996170044">
        <ele>526.4591064453125</ele>
        <time>2006-07-29T07:43:27Z</time>
      </trkpt>
      <trkpt lat="46.082625389099121" lon="9.324667453765869">
        <ele>526.9398193359375</ele>
        <time>2006-07-29T07:43:38Z</time>
      </trkpt>
      <trkpt lat="46.082668304443359" lon="9.324882030487061">
        <ele>527.9010009765625</ele>
        <time>2006-07-29T07:43:47Z</time>
      </trkpt>
      <trkpt lat="46.082711219787598" lon="9.325118064880371">
        <ele>528.862548828125</ele>
        <time>2006-07-29T07:43:57Z</time>
      </trkpt>
      <trkpt lat="46.082754135131836" lon="9.325354099273682">
        <ele>529.3431396484375</ele>
        <time>2006-07-29T07:44:07Z</time>
      </trkpt>
      <trkpt lat="46.082775592803955" lon="9.325697422027588">
        <ele>530.304443359375</ele>
        <time>2006-07-29T07:44:20Z</time>
      </trkpt>
      <trkpt lat="46.082775592803955" lon="9.326040744781494">
        <ele>530.78515625</ele>
        <time>2006-07-29T07:44:34Z</time>
      </trkpt>
      <trkpt lat="46.082754135131836" lon="9.326319694519043">
        <ele>531.2657470703125</ele>
        <time>2006-07-29T07:44:45Z</time>
      </trkpt>
      <trkpt lat="46.082754135131836" lon="9.326534271240234">
        <ele>531.746337890625</ele>
        <time>2006-07-29T07:44:53Z</time>
      </trkpt>
      <trkpt lat="46.082732677459717" lon="9.326834678649902">
        <ele>534.63037109375</ele>
        <time>2006-07-29T07:45:05Z</time>
      </trkpt>
      <trkpt lat="46.082711219787598" lon="9.327113628387451">
        <ele>536.5531005859375</ele>
        <time>2006-07-29T07:45:16Z</time>
      </trkpt>
      <trkpt lat="46.082689762115479" lon="9.327456951141357">
        <ele>540.3983154296875</ele>
        <time>2006-07-29T07:45:29Z</time>
      </trkpt>
      <trkpt lat="46.082668304443359" lon="9.327778816223145">
        <ele>543.2821044921875</ele>
        <time>2006-07-29T07:45:41Z</time>
      </trkpt>
      <trkpt lat="46.082668304443359" lon="9.327993392944336">
        <ele>544.7242431640625</ele>
        <time>2006-07-29T07:45:49Z</time>
      </trkpt>
      <trkpt lat="46.082668304443359" lon="9.328250885009766">
        <ele>543.7628173828125</ele>
        <time>2006-07-29T07:46:00Z</time>
      </trkpt>
      <trkpt lat="46.08264684677124" lon="9.328529834747315">
        <ele>547.12744140625</ele>
        <time>2006-07-29T07:46:11Z</time>
      </trkpt>
      <trkpt lat="46.082625389099121" lon="9.328830242156982">
        <ele>548.0888671875</ele>
        <time>2006-07-29T07:46:23Z</time>
      </trkpt>
      <trkpt lat="46.082603931427002" lon="9.329109191894531">
        <ele>548.0888671875</ele>
        <time>2006-07-29T07:46:34Z</time>
      </trkpt>
      <trkpt lat="46.082582473754883" lon="9.329409599304199">
        <ele>550.011474609375</ele>
        <time>2006-07-29T07:46:45Z</time>
      </trkpt>
      <trkpt lat="46.082539558410645" lon="9.329667091369629">
        <ele>553.3759765625</ele>
        <time>2006-07-29T07:46:56Z</time>
      </trkpt>
      <trkpt lat="46.082475185394287" lon="9.329946041107178">
        <ele>554.81787109375</ele>
        <time>2006-07-29T07:47:08Z</time>
      </trkpt>
      <trkpt lat="46.08241081237793" lon="9.330160617828369">
        <ele>555.298583984375</ele>
        <time>2006-07-29T07:47:18Z</time>
      </trkpt>
      <trkpt lat="46.082303524017334" lon="9.330375194549561">
        <ele>558.182861328125</ele>
        <time>2006-07-29T07:47:29Z</time>
      </trkpt>
      <trkpt lat="46.0821533203125" lon="9.330589771270752">
        <ele>561.066650390625</ele>
        <time>2006-07-29T07:47:41Z</time>
      </trkpt>
      <trkpt lat="46.081981658935547" lon="9.330761432647705">
        <ele>562.508544921875</ele>
        <time>2006-07-29T07:47:52Z</time>
      </trkpt>
      <trkpt lat="46.081917285919189" lon="9.330933094024658">
        <ele>563.469970703125</ele>
        <time>2006-07-29T07:48:01Z</time>
      </trkpt>
      <trkpt lat="46.081960201263428" lon="9.331040382385254">
        <ele>563.950439453125</ele>
        <time>2006-07-29T07:48:06Z</time>
      </trkpt>
      <trkpt lat="46.082088947296143" lon="9.330954551696777">
        <ele>564.911865234375</ele>
        <time>2006-07-29T07:48:14Z</time>
      </trkpt>
      <trkpt lat="46.082174777984619" lon="9.330782890319824">
        <ele>566.83447265625</ele>
        <time>2006-07-29T07:48:22Z</time>
      </trkpt>
      <trkpt lat="46.082303524017334" lon="9.33063268661499">
        <ele>569.23779296875</ele>
        <time>2006-07-29T07:48:31Z</time>
      </trkpt>
      <trkpt lat="46.082432270050049" lon="9.330525398254395">
        <ele>570.198974609375</ele>
        <time>2006-07-29T07:48:40Z</time>
      </trkpt>
      <trkpt lat="46.082561016082764" lon="9.330332279205322">
        <ele>570.198974609375</ele>
        <time>2006-07-29T07:48:51Z</time>
      </trkpt>
      <trkpt lat="46.082625389099121" lon="9.330182075500488">
        <ele>570.198974609375</ele>
        <time>2006-07-29T07:48:59Z</time>
      </trkpt>
      <trkpt lat="46.082732677459717" lon="9.329967498779297">
        <ele>571.640869140625</ele>
        <time>2006-07-29T07:49:09Z</time>
      </trkpt>
      <trkpt lat="46.082818508148193" lon="9.329731464385986">
        <ele>573.083251953125</ele>
        <time>2006-07-29T07:49:20Z</time>
      </trkpt>
      <trkpt lat="46.08290433883667" lon="9.329516887664795">
        <ele>574.04443359375</ele>
        <time>2006-07-29T07:49:30Z</time>
      </trkpt>
      <trkpt lat="46.082968711853027" lon="9.329323768615723">
        <ele>575.967041015625</ele>
        <time>2006-07-29T07:49:39Z</time>
      </trkpt>
      <trkpt lat="46.083118915557861" lon="9.32913064956665">
        <ele>576.928466796875</ele>
        <time>2006-07-29T07:49:50Z</time>
      </trkpt>
      <trkpt lat="46.08314037322998" lon="9.329109191894531">
        <ele>577.4091796875</ele>
        <time>2006-07-29T07:49:52Z</time>
      </trkpt>
      <trkpt lat="46.083226203918457" lon="9.329044818878174">
        <ele>578.370361328125</ele>
        <time>2006-07-29T07:49:57Z</time>
      </trkpt>
      <trkpt lat="46.083376407623291" lon="9.328873157501221">
        <ele>581.73486328125</ele>
        <time>2006-07-29T07:50:09Z</time>
      </trkpt>
      <trkpt lat="46.083462238311768" lon="9.328658580780029">
        <ele>583.657470703125</ele>
        <time>2006-07-29T07:50:19Z</time>
      </trkpt>
      <trkpt lat="46.083505153656006" lon="9.328379631042481">
        <ele>585.580078125</ele>
        <time>2006-07-29T07:50:30Z</time>
      </trkpt>
      <trkpt lat="46.083526611328125" lon="9.328079223632813">
        <ele>587.02197265625</ele>
        <time>2006-07-29T07:50:42Z</time>
      </trkpt>
      <trkpt lat="46.083526611328125" lon="9.327843189239502">
        <ele>589.425537109375</ele>
        <time>2006-07-29T07:50:52Z</time>
      </trkpt>
      <trkpt lat="46.083612442016602" lon="9.327778816223145">
        <ele>589.90625</ele>
        <time>2006-07-29T07:50:58Z</time>
      </trkpt>
      <trkpt lat="46.083633899688721" lon="9.327929019927979">
        <ele>590.386962890625</ele>
        <time>2006-07-29T07:51:04Z</time>
      </trkpt>
      <trkpt lat="46.083612442016602" lon="9.328165054321289">
        <ele>592.790283203125</ele>
        <time>2006-07-29T07:51:14Z</time>
      </trkpt>
      <trkpt lat="46.083612442016602" lon="9.328486919403076">
        <ele>594.712646484375</ele>
        <time>2006-07-29T07:51:27Z</time>
      </trkpt>
      <trkpt lat="46.083633899688721" lon="9.328701496124268">
        <ele>596.15478515625</ele>
        <time>2006-07-29T07:51:36Z</time>
      </trkpt>
      <trkpt lat="46.083676815032959" lon="9.32889461517334">
        <ele>596.635498046875</ele>
        <time>2006-07-29T07:51:44Z</time>
      </trkpt>
      <trkpt lat="46.083590984344482" lon="9.329109191894531">
        <ele>596.635498046875</ele>
        <time>2006-07-29T07:51:54Z</time>
      </trkpt>
      <trkpt lat="46.083462238311768" lon="9.329323768615723">
        <ele>598.077392578125</ele>
        <time>2006-07-29T07:52:05Z</time>
      </trkpt>
      <trkpt lat="46.083354949951172" lon="9.329516887664795">
        <ele>598.557861328125</ele>
        <time>2006-07-29T07:52:15Z</time>
      </trkpt>
      <trkpt lat="46.0831618309021" lon="9.329795837402344">
        <ele>601.44189453125</ele>
        <time>2006-07-29T07:52:30Z</time>
      </trkpt>
      <trkpt lat="46.083076000213623" lon="9.330010414123535">
        <ele>602.8837890625</ele>
        <time>2006-07-29T07:52:40Z</time>
      </trkpt>
      <trkpt lat="46.083011627197266" lon="9.330267906188965">
        <ele>602.8837890625</ele>
        <time>2006-07-29T07:52:50Z</time>
      </trkpt>
      <trkpt lat="46.082968711853027" lon="9.330482482910156">
        <ele>602.403076171875</ele>
        <time>2006-07-29T07:53:01Z</time>
      </trkpt>
      <trkpt lat="46.082775592803955" lon="9.330654144287109">
        <ele>603.364501953125</ele>
        <time>2006-07-29T07:53:13Z</time>
      </trkpt>
      <trkpt lat="46.082689762115479" lon="9.33089017868042">
        <ele>605.287353515625</ele>
        <time>2006-07-29T07:53:23Z</time>
      </trkpt>
      <trkpt lat="46.082625389099121" lon="9.331169128417969">
        <ele>605.76806640625</ele>
        <time>2006-07-29T07:53:34Z</time>
      </trkpt>
      <trkpt lat="46.082582473754883" lon="9.331469535827637">
        <ele>607.690673828125</ele>
        <time>2006-07-29T07:53:46Z</time>
      </trkpt>
      <trkpt lat="46.082603931427002" lon="9.331727027893066">
        <ele>607.690673828125</ele>
        <time>2006-07-29T07:53:57Z</time>
      </trkpt>
      <trkpt lat="46.082668304443359" lon="9.332005977630615">
        <ele>607.690673828125</ele>
        <time>2006-07-29T07:54:09Z</time>
      </trkpt>
      <trkpt lat="46.082711219787598" lon="9.332284927368164">
        <ele>611.535888671875</ele>
        <time>2006-07-29T07:54:21Z</time>
      </trkpt>
      <trkpt lat="46.082775592803955" lon="9.332542419433594">
        <ele>612.977783203125</ele>
        <time>2006-07-29T07:54:32Z</time>
      </trkpt>
      <trkpt lat="46.082797050476074" lon="9.332821369171143">
        <ele>614.419677734375</ele>
        <time>2006-07-29T07:54:43Z</time>
      </trkpt>
      <trkpt lat="46.082882881164551" lon="9.333014488220215">
        <ele>615.86181640625</ele>
        <time>2006-07-29T07:54:53Z</time>
      </trkpt>
      <trkpt lat="46.082968711853027" lon="9.333078861236572">
        <ele>617.7841796875</ele>
        <time>2006-07-29T07:54:59Z</time>
      </trkpt>
      <trkpt lat="46.082968711853027" lon="9.333057403564453">
        <ele>617.7841796875</ele>
        <time>2006-07-29T07:55:05Z</time>
      </trkpt>
      <trkpt lat="46.082968711853027" lon="9.333035945892334">
        <ele>616.34228515625</ele>
        <time>2006-07-29T07:56:51Z</time>
      </trkpt>
      <trkpt lat="46.082925796508789" lon="9.332928657531738">
        <ele>616.34228515625</ele>
        <time>2006-07-29T07:56:55Z</time>
      </trkpt>
      <trkpt lat="46.082861423492432" lon="9.332692623138428">
        <ele>617.3037109375</ele>
        <time>2006-07-29T07:57:04Z</time>
      </trkpt>
      <trkpt lat="46.082839965820312" lon="9.332435131072998">
        <ele>620.187744140625</ele>
        <time>2006-07-29T07:57:14Z</time>
      </trkpt>
      <trkpt lat="46.082797050476074" lon="9.332113265991211">
        <ele>622.591064453125</ele>
        <time>2006-07-29T07:57:26Z</time>
      </trkpt>
      <trkpt lat="46.082775592803955" lon="9.331855773925781">
        <ele>624.994384765625</ele>
        <time>2006-07-29T07:57:36Z</time>
      </trkpt>
      <trkpt lat="46.082775592803955" lon="9.331598281860352">
        <ele>627.878173828125</ele>
        <time>2006-07-29T07:57:47Z</time>
      </trkpt>
      <trkpt lat="46.082818508148193" lon="9.331405162811279">
        <ele>630.281494140625</ele>
        <time>2006-07-29T07:57:56Z</time>
      </trkpt>
      <trkpt lat="46.082861423492432" lon="9.331448078155518">
        <ele>630.76220703125</ele>
        <time>2006-07-29T07:58:00Z</time>
      </trkpt>
      <trkpt lat="46.082839965820312" lon="9.331727027893066">
        <ele>632.684814453125</ele>
        <time>2006-07-29T07:58:11Z</time>
      </trkpt>
      <trkpt lat="46.082861423492432" lon="9.332005977630615">
        <ele>633.64599609375</ele>
        <time>2006-07-29T07:58:22Z</time>
      </trkpt>
      <trkpt lat="46.082947254180908" lon="9.332306385040283">
        <ele>633.64599609375</ele>
        <time>2006-07-29T07:58:35Z</time>
      </trkpt>
      <trkpt lat="46.083011627197266" lon="9.332585334777832">
        <ele>634.607421875</ele>
        <time>2006-07-29T07:58:47Z</time>
      </trkpt>
      <trkpt lat="46.083076000213623" lon="9.332864284515381">
        <ele>636.5302734375</ele>
        <time>2006-07-29T07:58:59Z</time>
      </trkpt>
      <trkpt lat="46.0831618309021" lon="9.333100318908691">
        <ele>638.452880859375</ele>
        <time>2006-07-29T07:59:11Z</time>
      </trkpt>
      <trkpt lat="46.083226203918457" lon="9.333293437957764">
        <ele>639.894775390625</ele>
        <time>2006-07-29T07:59:21Z</time>
      </trkpt>
      <trkpt lat="46.083354949951172" lon="9.333615303039551">
        <ele>642.77880859375</ele>
        <time>2006-07-29T07:59:36Z</time>
      </trkpt>
      <trkpt lat="46.083419322967529" lon="9.333915710449219">
        <ele>644.220703125</ele>
        <time>2006-07-29T07:59:50Z</time>
      </trkpt>
      <trkpt lat="46.083419322967529" lon="9.334173202514648">
        <ele>645.181884765625</ele>
        <time>2006-07-29T08:00:01Z</time>
      </trkpt>
      <trkpt lat="46.08339786529541" lon="9.334495067596436">
        <ele>647.1044921875</ele>
        <time>2006-07-29T08:00:14Z</time>
      </trkpt>
      <trkpt lat="46.083376407623291" lon="9.334731101989746">
        <ele>648.06591796875</ele>
        <time>2006-07-29T08:00:24Z</time>
      </trkpt>
      <trkpt lat="46.08339786529541" lon="9.335010051727295">
        <ele>649.988525390625</ele>
        <time>2006-07-29T08:00:35Z</time>
      </trkpt>
      <trkpt lat="46.083462238311768" lon="9.335310459136963">
        <ele>651.430419921875</ele>
        <time>2006-07-29T08:00:48Z</time>
      </trkpt>
      <trkpt lat="46.083526611328125" lon="9.335589408874512">
        <ele>654.795166015625</ele>
        <time>2006-07-29T08:01:00Z</time>
      </trkpt>
      <trkpt lat="46.083633899688721" lon="9.335675239562988">
        <ele>656.7177734375</ele>
        <time>2006-07-29T08:01:07Z</time>
      </trkpt>
      <trkpt lat="46.083676815032959" lon="9.335546493530273">
        <ele>656.7177734375</ele>
        <time>2006-07-29T08:01:13Z</time>
      </trkpt>
      <trkpt lat="46.08365535736084" lon="9.335310459136963">
        <ele>657.198486328125</ele>
        <time>2006-07-29T08:01:22Z</time>
      </trkpt>
      <trkpt lat="46.08365535736084" lon="9.335074424743652">
        <ele>657.198486328125</ele>
        <time>2006-07-29T08:01:31Z</time>
      </trkpt>
      <trkpt lat="46.083698272705078" lon="9.334795475006104">
        <ele>659.12109375</ele>
        <time>2006-07-29T08:01:42Z</time>
      </trkpt>
      <trkpt lat="46.083719730377197" lon="9.334495067596436">
        <ele>660.082275390625</ele>
        <time>2006-07-29T08:01:54Z</time>
      </trkpt>
      <trkpt lat="46.083784103393555" lon="9.334194660186768">
        <ele>662.005126953125</ele>
        <time>2006-07-29T08:02:06Z</time>
      </trkpt>
      <trkpt lat="46.083848476409912" lon="9.3338942527771">
        <ele>663.927490234375</ele>
        <time>2006-07-29T08:02:18Z</time>
      </trkpt>
      <trkpt lat="46.083848476409912" lon="9.33363676071167">
        <ele>665.36962890625</ele>
        <time>2006-07-29T08:02:28Z</time>
      </trkpt>
      <trkpt lat="46.083784103393555" lon="9.33337926864624">
        <ele>667.292236328125</ele>
        <time>2006-07-29T08:02:39Z</time>
      </trkpt>
      <trkpt lat="46.083719730377197" lon="9.333078861236572">
        <ele>667.772705078125</ele>
        <time>2006-07-29T08:02:51Z</time>
      </trkpt>
      <trkpt lat="46.083633899688721" lon="9.332799911499023">
        <ele>669.215087890625</ele>
        <time>2006-07-29T08:03:03Z</time>
      </trkpt>
      <trkpt lat="46.083548069000244" lon="9.332585334777832">
        <ele>670.656982421875</ele>
        <time>2006-07-29T08:03:14Z</time>
      </trkpt>
      <trkpt lat="46.083526611328125" lon="9.332478046417236">
        <ele>671.6181640625</ele>
        <time>2006-07-29T08:03:18Z</time>
      </trkpt>
      <trkpt lat="46.083590984344482" lon="9.332456588745117">
        <ele>672.098876953125</ele>
        <time>2006-07-29T08:03:24Z</time>
      </trkpt>
      <trkpt lat="46.083612442016602" lon="9.332478046417236">
        <ele>672.098876953125</ele>
        <time>2006-07-29T08:03:25Z</time>
      </trkpt>
      <trkpt lat="46.083676815032959" lon="9.33264970779419">
        <ele>672.57958984375</ele>
        <time>2006-07-29T08:03:33Z</time>
      </trkpt>
      <trkpt lat="46.083762645721436" lon="9.3328857421875">
        <ele>674.021484375</ele>
        <time>2006-07-29T08:03:43Z</time>
      </trkpt>
      <trkpt lat="46.08389139175415" lon="9.333164691925049">
        <ele>676.4248046875</ele>
        <time>2006-07-29T08:03:56Z</time>
      </trkpt>
      <trkpt lat="46.083998680114746" lon="9.333422183990479">
        <ele>678.347412109375</ele>
        <time>2006-07-29T08:04:08Z</time>
      </trkpt>
      <trkpt lat="46.084105968475342" lon="9.333701133728027">
        <ele>681.7119140625</ele>
        <time>2006-07-29T08:04:20Z</time>
      </trkpt>
      <trkpt lat="46.084105968475342" lon="9.333872795104981">
        <ele>682.192626953125</ele>
        <time>2006-07-29T08:04:27Z</time>
      </trkpt>
      <trkpt lat="46.084063053131104" lon="9.334173202514648">
        <ele>683.15380859375</ele>
        <time>2006-07-29T08:04:39Z</time>
      </trkpt>
      <trkpt lat="46.084063053131104" lon="9.33438777923584">
        <ele>684.115478515625</ele>
        <time>2006-07-29T08:04:48Z</time>
      </trkpt>
      <trkpt lat="46.084063053131104" lon="9.334752559661865">
        <ele>687.960693359375</ele>
        <time>2006-07-29T08:05:03Z</time>
      </trkpt>
      <trkpt lat="46.084084510803223" lon="9.334967136383057">
        <ele>690.364013671875</ele>
        <time>2006-07-29T08:05:13Z</time>
      </trkpt>
      <trkpt lat="46.084170341491699" lon="9.335224628448486">
        <ele>690.844482421875</ele>
        <time>2006-07-29T08:05:26Z</time>
      </trkpt>
      <trkpt lat="46.084256172180176" lon="9.335460662841797">
        <ele>689.402587890625</ele>
        <time>2006-07-29T08:05:37Z</time>
      </trkpt>
      <trkpt lat="46.084342002868652" lon="9.335739612579346">
        <ele>691.3251953125</ele>
        <time>2006-07-29T08:05:49Z</time>
      </trkpt>
      <trkpt lat="46.084449291229248" lon="9.335739612579346">
        <ele>693.728515625</ele>
        <time>2006-07-29T08:05:55Z</time>
      </trkpt>
      <trkpt lat="46.084492206573486" lon="9.335546493530273">
        <ele>695.17041015625</ele>
        <time>2006-07-29T08:06:05Z</time>
      </trkpt>
      <trkpt lat="46.084492206573486" lon="9.335246086120606">
        <ele>695.651123046875</ele>
        <time>2006-07-29T08:06:17Z</time>
      </trkpt>
      <trkpt lat="46.084513664245605" lon="9.334967136383057">
        <ele>695.651123046875</ele>
        <time>2006-07-29T08:06:28Z</time>
      </trkpt>
      <trkpt lat="46.084535121917725" lon="9.334731101989746">
        <ele>698.534912109375</ele>
        <time>2006-07-29T08:06:38Z</time>
      </trkpt>
      <trkpt lat="46.084578037261963" lon="9.334495067596436">
        <ele>700.4580078125</ele>
        <time>2006-07-29T08:06:48Z</time>
      </trkpt>
      <trkpt lat="46.084663867950439" lon="9.334259033203125">
        <ele>702.861083984375</ele>
        <time>2006-07-29T08:06:58Z</time>
      </trkpt>
      <trkpt lat="46.084706783294678" lon="9.333937168121338">
        <ele>703.822509765625</ele>
        <time>2006-07-29T08:07:10Z</time>
      </trkpt>
      <trkpt lat="46.084706783294678" lon="9.333593845367432">
        <ele>702.38037109375</ele>
        <time>2006-07-29T08:07:24Z</time>
      </trkpt>
      <trkpt lat="46.08464241027832" lon="9.33337926864624">
        <ele>703.822509765625</ele>
        <time>2006-07-29T08:07:33Z</time>
      </trkpt>
      <trkpt lat="46.084556579589844" lon="9.333121776580811">
        <ele>707.667724609375</ele>
        <time>2006-07-29T08:07:45Z</time>
      </trkpt>
      <trkpt lat="46.084535121917725" lon="9.332993030548096">
        <ele>710.07080078125</ele>
        <time>2006-07-29T08:07:50Z</time>
      </trkpt>
      <trkpt lat="46.084599494934082" lon="9.332971572875977">
        <ele>711.99365234375</ele>
        <time>2006-07-29T08:07:56Z</time>
      </trkpt>
      <trkpt lat="46.084620952606201" lon="9.333014488220215">
        <ele>712.47412109375</ele>
        <time>2006-07-29T08:07:58Z</time>
      </trkpt>
      <trkpt lat="46.084685325622559" lon="9.333314895629883">
        <ele>714.87744140625</ele>
        <time>2006-07-29T08:08:11Z</time>
      </trkpt>
      <trkpt lat="46.084792613983154" lon="9.333508014678955">
        <ele>716.319580078125</ele>
        <time>2006-07-29T08:08:21Z</time>
      </trkpt>
      <trkpt lat="46.084921360015869" lon="9.333744049072266">
        <ele>719.20361328125</ele>
        <time>2006-07-29T08:08:34Z</time>
      </trkpt>
      <trkpt lat="46.085050106048584" lon="9.333980083465576">
        <ele>721.606689453125</ele>
        <time>2006-07-29T08:08:46Z</time>
      </trkpt>
      <trkpt lat="46.085093021392822" lon="9.334194660186768">
        <ele>723.048828125</ele>
        <time>2006-07-29T08:08:56Z</time>
      </trkpt>
      <trkpt lat="46.085071563720703" lon="9.334430694580078">
        <ele>724.49072265625</ele>
        <time>2006-07-29T08:09:06Z</time>
      </trkpt>
      <trkpt lat="46.085028648376465" lon="9.334688186645508">
        <ele>724.49072265625</ele>
        <time>2006-07-29T08:09:18Z</time>
      </trkpt>
      <trkpt lat="46.085050106048584" lon="9.334924221038818">
        <ele>725.451904296875</ele>
        <time>2006-07-29T08:09:28Z</time>
      </trkpt>
      <trkpt lat="46.085093021392822" lon="9.335160255432129">
        <ele>727.855224609375</ele>
        <time>2006-07-29T08:09:38Z</time>
      </trkpt>
      <trkpt lat="46.085135936737061" lon="9.335439205169678">
        <ele>730.7392578125</ele>
        <time>2006-07-29T08:09:50Z</time>
      </trkpt>
      <trkpt lat="46.085200309753418" lon="9.335718154907227">
        <ele>733.142578125</ele>
        <time>2006-07-29T08:10:02Z</time>
      </trkpt>
      <trkpt lat="46.085286140441895" lon="9.335761070251465">
        <ele>733.623291015625</ele>
        <time>2006-07-29T08:10:07Z</time>
      </trkpt>
      <trkpt lat="46.085350513458252" lon="9.335589408874512">
        <ele>734.584716796875</ele>
        <time>2006-07-29T08:10:15Z</time>
      </trkpt>
      <trkpt lat="46.085329055786133" lon="9.335546493530273">
        <ele>735.0654296875</ele>
        <time>2006-07-29T08:10:17Z</time>
      </trkpt>
      <trkpt lat="46.085329055786133" lon="9.335246086120606">
        <ele>736.98779296875</ele>
        <time>2006-07-29T08:10:28Z</time>
      </trkpt>
      <trkpt lat="46.08539342880249" lon="9.334988594055176">
        <ele>738.429931640625</ele>
        <time>2006-07-29T08:10:39Z</time>
      </trkpt>
      <trkpt lat="46.085436344146729" lon="9.334731101989746">
        <ele>739.871826171875</ele>
        <time>2006-07-29T08:10:50Z</time>
      </trkpt>
      <trkpt lat="46.085479259490967" lon="9.33462381362915">
        <ele>740.8330078125</ele>
        <time>2006-07-29T08:10:55Z</time>
      </trkpt>
      <trkpt lat="46.085522174835205" lon="9.334666728973389">
        <ele>741.313720703125</ele>
        <time>2006-07-29T08:10:59Z</time>
      </trkpt>
      <trkpt lat="46.085500717163086" lon="9.334774017333984">
        <ele>742.275146484375</ele>
        <time>2006-07-29T08:11:04Z</time>
      </trkpt>
      <trkpt lat="46.085500717163086" lon="9.335095882415772">
        <ele>745.6396484375</ele>
        <time>2006-07-29T08:11:17Z</time>
      </trkpt>
      <trkpt lat="46.085565090179443" lon="9.33539628982544">
        <ele>747.562255859375</ele>
        <time>2006-07-29T08:11:30Z</time>
      </trkpt>
      <trkpt lat="46.085629463195801" lon="9.335589408874512">
        <ele>749.00439453125</ele>
        <time>2006-07-29T08:11:40Z</time>
      </trkpt>
      <trkpt lat="46.085715293884277" lon="9.335803985595703">
        <ele>749.9658203125</ele>
        <time>2006-07-29T08:11:51Z</time>
      </trkpt>
      <trkpt lat="46.085779666900635" lon="9.336040019989014">
        <ele>751.888427734375</ele>
        <time>2006-07-29T08:12:02Z</time>
      </trkpt>
      <trkpt lat="46.085801124572754" lon="9.336254596710205">
        <ele>754.291748046875</ele>
        <time>2006-07-29T08:12:12Z</time>
      </trkpt>
      <trkpt lat="46.085779666900635" lon="9.336469173431397">
        <ele>754.772216796875</ele>
        <time>2006-07-29T08:12:23Z</time>
      </trkpt>
      <trkpt lat="46.085822582244873" lon="9.336705207824707">
        <ele>756.214111328125</ele>
        <time>2006-07-29T08:12:35Z</time>
      </trkpt>
      <trkpt lat="46.085865497589111" lon="9.336748123168945">
        <ele>756.69482421875</ele>
        <time>2006-07-29T08:12:38Z</time>
      </trkpt>
      <trkpt lat="46.08590841293335" lon="9.33664083480835">
        <ele>758.136962890625</ele>
        <time>2006-07-29T08:12:45Z</time>
      </trkpt>
      <trkpt lat="46.085929870605469" lon="9.33638334274292">
        <ele>759.09814453125</ele>
        <time>2006-07-29T08:12:58Z</time>
      </trkpt>
      <trkpt lat="46.085994243621826" lon="9.33612585067749">
        <ele>760.5400390625</ele>
        <time>2006-07-29T08:13:10Z</time>
      </trkpt>
      <trkpt lat="46.086015701293945" lon="9.33612585067749">
        <ele>760.059326171875</ele>
        <time>2006-07-29T08:13:11Z</time>
      </trkpt>
      <trkpt lat="46.086058616638184" lon="9.335825443267822">
        <ele>761.982177734375</ele>
        <time>2006-07-29T08:13:25Z</time>
      </trkpt>
      <trkpt lat="46.086080074310303" lon="9.335610866546631">
        <ele>763.424072265625</ele>
        <time>2006-07-29T08:13:36Z</time>
      </trkpt>
      <trkpt lat="46.086101531982422" lon="9.335353374481201">
        <ele>765.82763671875</ele>
        <time>2006-07-29T08:13:49Z</time>
      </trkpt>
      <trkpt lat="46.08614444732666" lon="9.335095882415772">
        <ele>767.26953125</ele>
        <time>2006-07-29T08:14:01Z</time>
      </trkpt>
      <trkpt lat="46.086187362670898" lon="9.334902763366699">
        <ele>768.71142578125</ele>
        <time>2006-07-29T08:14:11Z</time>
      </trkpt>
      <trkpt lat="46.086230278015137" lon="9.334666728973389">
        <ele>771.11474609375</ele>
        <time>2006-07-29T08:14:24Z</time>
      </trkpt>
      <trkpt lat="46.086273193359375" lon="9.334516525268555">
        <ele>772.556640625</ele>
        <time>2006-07-29T08:14:32Z</time>
      </trkpt>
      <trkpt lat="46.086294651031494" lon="9.33462381362915">
        <ele>773.51806640625</ele>
        <time>2006-07-29T08:14:39Z</time>
      </trkpt>
      <trkpt lat="46.086294651031494" lon="9.334838390350342">
        <ele>774.479248046875</ele>
        <time>2006-07-29T08:14:50Z</time>
      </trkpt>
      <trkpt lat="46.086316108703613" lon="9.335074424743652">
        <ele>773.99853515625</ele>
        <time>2006-07-29T08:15:01Z</time>
      </trkpt>
      <trkpt lat="46.086316108703613" lon="9.335267543792725">
        <ele>775.4404296875</ele>
        <time>2006-07-29T08:15:11Z</time>
      </trkpt>
      <trkpt lat="46.086316108703613" lon="9.335482120513916">
        <ele>776.882568359375</ele>
        <time>2006-07-29T08:15:22Z</time>
      </trkpt>
      <trkpt lat="46.086380481719971" lon="9.335718154907227">
        <ele>779.28564453125</ele>
        <time>2006-07-29T08:15:34Z</time>
      </trkpt>
      <trkpt lat="46.086444854736328" lon="9.335911273956299">
        <ele>779.766357421875</ele>
        <time>2006-07-29T08:15:44Z</time>
      </trkpt>
      <trkpt lat="46.086509227752686" lon="9.336040019989014">
        <ele>781.208740234375</ele>
        <time>2006-07-29T08:15:54Z</time>
      </trkpt>
      <trkpt lat="46.086573600769043" lon="9.336276054382324">
        <ele>782.169921875</ele>
        <time>2006-07-29T08:16:08Z</time>
      </trkpt>
      <trkpt lat="46.0866379737854" lon="9.336533546447754">
        <ele>785.534423828125</ele>
        <time>2006-07-29T08:16:20Z</time>
      </trkpt>
      <trkpt lat="46.086702346801758" lon="9.336726665496826">
        <ele>790.821533203125</ele>
        <time>2006-07-29T08:16:30Z</time>
      </trkpt>
      <trkpt lat="46.086766719818115" lon="9.336941242218018">
        <ele>791.30224609375</ele>
        <time>2006-07-29T08:16:42Z</time>
      </trkpt>
      <trkpt lat="46.086852550506592" lon="9.337155818939209">
        <ele>793.224853515625</ele>
        <time>2006-07-29T08:16:54Z</time>
      </trkpt>
      <trkpt lat="46.086916923522949" lon="9.337348937988281">
        <ele>795.1474609375</ele>
        <time>2006-07-29T08:17:04Z</time>
      </trkpt>
      <trkpt lat="46.086959838867188" lon="9.337284564971924">
        <ele>795.628173828125</ele>
        <time>2006-07-29T08:17:10Z</time>
      </trkpt>
      <trkpt lat="46.086981296539307" lon="9.337198734283447">
        <ele>794.666748046875</ele>
        <time>2006-07-29T08:17:14Z</time>
      </trkpt>
      <trkpt lat="46.086981296539307" lon="9.337005615234375">
        <ele>795.628173828125</ele>
        <time>2006-07-29T08:17:24Z</time>
      </trkpt>
      <trkpt lat="46.086959838867188" lon="9.336748123168945">
        <ele>797.0703125</ele>
        <time>2006-07-29T08:17:37Z</time>
      </trkpt>
      <trkpt lat="46.086959838867188" lon="9.336512088775635">
        <ele>798.51220703125</ele>
        <time>2006-07-29T08:17:48Z</time>
      </trkpt>
      <trkpt lat="46.086959838867188" lon="9.336233139038086">
        <ele>798.51220703125</ele>
        <time>2006-07-29T08:18:00Z</time>
      </trkpt>
      <trkpt lat="46.086938381195068" lon="9.335932731628418">
        <ele>799.954345703125</ele>
        <time>2006-07-29T08:18:13Z</time>
      </trkpt>
      <trkpt lat="46.086938381195068" lon="9.335675239562988">
        <ele>801.396240234375</ele>
        <time>2006-07-29T08:18:24Z</time>
      </trkpt>
      <trkpt lat="46.086938381195068" lon="9.335417747497559">
        <ele>803.31884765625</ele>
        <time>2006-07-29T08:18:35Z</time>
      </trkpt>
      <trkpt lat="46.086981296539307" lon="9.335117340087891">
        <ele>805.72216796875</ele>
        <time>2006-07-29T08:18:47Z</time>
      </trkpt>
      <trkpt lat="46.087024211883545" lon="9.33488130569458">
        <ele>806.20263671875</ele>
        <time>2006-07-29T08:18:58Z</time>
      </trkpt>
      <trkpt lat="46.087067127227783" lon="9.33462381362915">
        <ele>808.60595703125</ele>
        <time>2006-07-29T08:19:08Z</time>
      </trkpt>
      <trkpt lat="46.087110042572021" lon="9.334366321563721">
        <ele>810.528564453125</ele>
        <time>2006-07-29T08:19:20Z</time>
      </trkpt>
      <trkpt lat="46.087238788604736" lon="9.334194660186768">
        <ele>812.451416015625</ele>
        <time>2006-07-29T08:19:30Z</time>
      </trkpt>
      <trkpt lat="46.08738899230957" lon="9.334044456481934">
        <ele>817.258056640625</ele>
        <time>2006-07-29T08:19:42Z</time>
      </trkpt>
      <trkpt lat="46.087560653686523" lon="9.334001541137695">
        <ele>819.1806640625</ele>
        <time>2006-07-29T08:19:53Z</time>
      </trkpt>
      <trkpt lat="46.087753772735596" lon="9.334001541137695">
        <ele>822.545166015625</ele>
        <time>2006-07-29T08:20:05Z</time>
      </trkpt>
      <trkpt lat="46.087861061096191" lon="9.333958625793457">
        <ele>823.02587890625</ele>
        <time>2006-07-29T08:20:12Z</time>
      </trkpt>
      <trkpt lat="46.087882518768311" lon="9.333808422088623">
        <ele>822.545166015625</ele>
        <time>2006-07-29T08:20:18Z</time>
      </trkpt>
      <trkpt lat="46.087753772735596" lon="9.333572387695313">
        <ele>822.064453125</ele>
        <time>2006-07-29T08:20:31Z</time>
      </trkpt>
      <trkpt lat="46.087582111358643" lon="9.333422183990479">
        <ele>823.987060546875</ele>
        <time>2006-07-29T08:20:43Z</time>
      </trkpt>
      <trkpt lat="46.087474822998047" lon="9.333164691925049">
        <ele>822.545166015625</ele>
        <time>2006-07-29T08:20:55Z</time>
      </trkpt>
      <trkpt lat="46.087453365325928" lon="9.332928657531738">
        <ele>823.02587890625</ele>
        <time>2006-07-29T08:21:05Z</time>
      </trkpt>
      <trkpt lat="46.087517738342285" lon="9.33262825012207">
        <ele>824.948486328125</ele>
        <time>2006-07-29T08:21:18Z</time>
      </trkpt>
      <trkpt lat="46.087582111358643" lon="9.33239221572876">
        <ele>826.87109375</ele>
        <time>2006-07-29T08:21:29Z</time>
      </trkpt>
      <trkpt lat="46.087646484375" lon="9.332177639007568">
        <ele>828.7939453125</ele>
        <time>2006-07-29T08:21:41Z</time>
      </trkpt>
      <trkpt lat="46.087753772735596" lon="9.331984519958496">
        <ele>830.716552734375</ele>
        <time>2006-07-29T08:21:52Z</time>
      </trkpt>
      <trkpt lat="46.087882518768311" lon="9.331769943237305">
        <ele>835.04248046875</ele>
        <time>2006-07-29T08:22:05Z</time>
      </trkpt>
      <trkpt lat="46.087989807128906" lon="9.331619739532471">
        <ele>834.561767578125</ele>
        <time>2006-07-29T08:22:17Z</time>
      </trkpt>
      <trkpt lat="46.088075637817383" lon="9.33138370513916">
        <ele>838.406982421875</ele>
        <time>2006-07-29T08:22:29Z</time>
      </trkpt>
      <trkpt lat="46.088075637817383" lon="9.331061840057373">
        <ele>842.252197265625</ele>
        <time>2006-07-29T08:22:45Z</time>
      </trkpt>
      <trkpt lat="46.088097095489502" lon="9.330847263336182">
        <ele>843.694091796875</ele>
        <time>2006-07-29T08:22:55Z</time>
      </trkpt>
      <trkpt lat="46.088161468505859" lon="9.330589771270752">
        <ele>844.175048828125</ele>
        <time>2006-07-29T08:23:08Z</time>
      </trkpt>
      <trkpt lat="46.088290214538574" lon="9.33039665222168">
        <ele>845.616943359375</ele>
        <time>2006-07-29T08:23:21Z</time>
      </trkpt>
      <trkpt lat="46.088418960571289" lon="9.330203533172607">
        <ele>846.09765625</ele>
        <time>2006-07-29T08:23:34Z</time>
      </trkpt>
      <trkpt lat="46.088547706604004" lon="9.330010414123535">
        <ele>847.058837890625</ele>
        <time>2006-07-29T08:23:47Z</time>
      </trkpt>
      <trkpt lat="46.088612079620361" lon="9.329924583435059">
        <ele>849.462158203125</ele>
        <time>2006-07-29T08:23:54Z</time>
      </trkpt>
      <trkpt lat="46.088569164276123" lon="9.330096244812012">
        <ele>849.462158203125</ele>
        <time>2006-07-29T08:24:02Z</time>
      </trkpt>
      <trkpt lat="46.088483333587646" lon="9.330246448516846">
        <ele>851.865478515625</ele>
        <time>2006-07-29T08:24:11Z</time>
      </trkpt>
      <trkpt lat="46.08839750289917" lon="9.330439567565918">
        <ele>857.63330078125</ele>
        <time>2006-07-29T08:24:21Z</time>
      </trkpt>
      <trkpt lat="46.088376045227051" lon="9.330675601959229">
        <ele>860.03662109375</ele>
        <time>2006-07-29T08:24:33Z</time>
      </trkpt>
      <trkpt lat="46.08839750289917" lon="9.330933094024658">
        <ele>861.95947265625</ele>
        <time>2006-07-29T08:24:47Z</time>
      </trkpt>
      <trkpt lat="46.088418960571289" lon="9.330976009368897">
        <ele>862.920654296875</ele>
        <time>2006-07-29T08:24:54Z</time>
      </trkpt>
      <trkpt lat="46.088504791259766" lon="9.331061840057373">
        <ele>863.4013671875</ele>
        <time>2006-07-29T08:25:01Z</time>
      </trkpt>
      <trkpt lat="46.088547706604004" lon="9.33114767074585">
        <ele>864.84326171875</ele>
        <time>2006-07-29T08:25:07Z</time>
      </trkpt>
      <trkpt lat="46.0886549949646" lon="9.331362247467041">
        <ele>865.8046875</ele>
        <time>2006-07-29T08:25:20Z</time>
      </trkpt>
      <trkpt lat="46.088676452636719" lon="9.331555366516113">
        <ele>868.207763671875</ele>
        <time>2006-07-29T08:25:30Z</time>
      </trkpt>
      <trkpt lat="46.088697910308838" lon="9.331769943237305">
        <ele>871.572265625</ele>
        <time>2006-07-29T08:25:42Z</time>
      </trkpt>
      <trkpt lat="46.088697910308838" lon="9.332005977630615">
        <ele>871.572265625</ele>
        <time>2006-07-29T08:25:53Z</time>
      </trkpt>
      <trkpt lat="46.088697910308838" lon="9.332220554351807">
        <ele>872.53369140625</ele>
        <time>2006-07-29T08:26:03Z</time>
      </trkpt>
      <trkpt lat="46.088719367980957" lon="9.332499504089356">
        <ele>875.898193359375</ele>
        <time>2006-07-29T08:26:17Z</time>
      </trkpt>
      <trkpt lat="46.088740825653076" lon="9.332778453826904">
        <ele>876.85986328125</ele>
        <time>2006-07-29T08:26:30Z</time>
      </trkpt>
      <trkpt lat="46.088762283325195" lon="9.3328857421875">
        <ele>875.898193359375</ele>
        <time>2006-07-29T08:26:36Z</time>
      </trkpt>
      <trkpt lat="46.088848114013672" lon="9.332928657531738">
        <ele>877.821044921875</ele>
        <time>2006-07-29T08:26:45Z</time>
      </trkpt>
      <trkpt lat="46.08889102935791" lon="9.332692623138428">
        <ele>881.185791015625</ele>
        <time>2006-07-29T08:26:58Z</time>
      </trkpt>
      <trkpt lat="46.088912487030029" lon="9.332413673400879">
        <ele>884.55029296875</ele>
        <time>2006-07-29T08:27:12Z</time>
      </trkpt>
      <trkpt lat="46.088933944702148" lon="9.332177639007568">
        <ele>885.031005859375</ele>
        <time>2006-07-29T08:27:25Z</time>
      </trkpt>
      <trkpt lat="46.088933944702148" lon="9.331920146942139">
        <ele>885.511474609375</ele>
        <time>2006-07-29T08:27:38Z</time>
      </trkpt>
      <trkpt lat="46.088955402374268" lon="9.331748485565186">
        <ele>886.953369140625</ele>
        <time>2006-07-29T08:27:47Z</time>
      </trkpt>
      <trkpt lat="46.089019775390625" lon="9.331555366516113">
        <ele>886.472900390625</ele>
        <time>2006-07-29T08:27:58Z</time>
      </trkpt>
      <trkpt lat="46.089105606079102" lon="9.331340789794922">
        <ele>886.953369140625</ele>
        <time>2006-07-29T08:28:11Z</time>
      </trkpt>
      <trkpt lat="46.089169979095459" lon="9.331233501434326">
        <ele>890.798583984375</ele>
        <time>2006-07-29T08:28:18Z</time>
      </trkpt>
      <trkpt lat="46.089277267456055" lon="9.331083297729492">
        <ele>890.798583984375</ele>
        <time>2006-07-29T08:28:29Z</time>
      </trkpt>
      <trkpt lat="46.089298725128174" lon="9.331083297729492">
        <ele>892.240966796875</ele>
        <time>2006-07-29T08:28:31Z</time>
      </trkpt>
      <trkpt lat="46.089277267456055" lon="9.331212043762207">
        <ele>895.124755859375</ele>
        <time>2006-07-29T08:28:38Z</time>
      </trkpt>
      <trkpt lat="46.089212894439697" lon="9.331426620483398">
        <ele>894.16357421875</ele>
        <time>2006-07-29T08:28:49Z</time>
      </trkpt>
      <trkpt lat="46.089127063751221" lon="9.331662654876709">
        <ele>891.760009765625</ele>
        <time>2006-07-29T08:28:58Z</time>
      </trkpt>
      <trkpt lat="46.089127063751221" lon="9.331984519958496">
        <ele>891.760009765625</ele>
        <time>2006-07-29T08:29:09Z</time>
      </trkpt>
      <trkpt lat="46.089212894439697" lon="9.332199096679688">
        <ele>891.760009765625</ele>
        <time>2006-07-29T08:29:19Z</time>
      </trkpt>
      <trkpt lat="46.089277267456055" lon="9.332435131072998">
        <ele>894.16357421875</ele>
        <time>2006-07-29T08:29:29Z</time>
      </trkpt>
      <trkpt lat="46.089298725128174" lon="9.33262825012207">
        <ele>897.04736328125</ele>
        <time>2006-07-29T08:29:39Z</time>
      </trkpt>
      <trkpt lat="46.089341640472412" lon="9.332864284515381">
        <ele>899.931396484375</ele>
        <time>2006-07-29T08:29:50Z</time>
      </trkpt>
      <trkpt lat="46.089427471160889" lon="9.333057403564453">
        <ele>903.776611328125</ele>
        <time>2006-07-29T08:30:02Z</time>
      </trkpt>
      <trkpt lat="46.089470386505127" lon="9.333121776580811">
        <ele>906.1796875</ele>
        <time>2006-07-29T08:30:07Z</time>
      </trkpt>
      <trkpt lat="46.089513301849365" lon="9.333186149597168">
        <ele>907.621826171875</ele>
        <time>2006-07-29T08:30:11Z</time>
      </trkpt>
      <trkpt lat="46.089663505554199" lon="9.333314895629883">
        <ele>909.06396484375</ele>
        <time>2006-07-29T08:30:22Z</time>
      </trkpt>
      <trkpt lat="46.089770793914795" lon="9.33337926864624">
        <ele>910.505859375</ele>
        <time>2006-07-29T08:30:31Z</time>
      </trkpt>
      <trkpt lat="46.089835166931152" lon="9.333550930023193">
        <ele>909.544677734375</ele>
        <time>2006-07-29T08:30:40Z</time>
      </trkpt>
      <trkpt lat="46.089835166931152" lon="9.333744049072266">
        <ele>910.505859375</ele>
        <time>2006-07-29T08:30:49Z</time>
      </trkpt>
      <trkpt lat="46.089856624603271" lon="9.334044456481934">
        <ele>911.947998046875</ele>
        <time>2006-07-29T08:31:04Z</time>
      </trkpt>
      <trkpt lat="46.08989953994751" lon="9.334151744842529">
        <ele>912.428466796875</ele>
        <time>2006-07-29T08:31:11Z</time>
      </trkpt>
      <trkpt lat="46.089942455291748" lon="9.33413028717041">
        <ele>911.947998046875</ele>
        <time>2006-07-29T08:31:14Z</time>
      </trkpt>
      <trkpt lat="46.090028285980225" lon="9.333958625793457">
        <ele>913.870361328125</ele>
        <time>2006-07-29T08:31:25Z</time>
      </trkpt>
      <trkpt lat="46.090114116668701" lon="9.333765506744385">
        <ele>914.35107421875</ele>
        <time>2006-07-29T08:31:36Z</time>
      </trkpt>
      <trkpt lat="46.090178489685059" lon="9.333593845367432">
        <ele>915.3125</ele>
        <time>2006-07-29T08:31:46Z</time>
      </trkpt>
      <trkpt lat="46.090264320373535" lon="9.333508014678955">
        <ele>915.793212890625</ele>
        <time>2006-07-29T08:31:52Z</time>
      </trkpt>
      <trkpt lat="46.090307235717773" lon="9.333593845367432">
        <ele>917.235107421875</ele>
        <time>2006-07-29T08:31:58Z</time>
      </trkpt>
      <trkpt lat="46.090328693389893" lon="9.333658218383789">
        <ele>918.677001953125</ele>
        <time>2006-07-29T08:32:09Z</time>
      </trkpt>
      <trkpt lat="46.090350151062012" lon="9.333658218383789">
        <ele>914.35107421875</ele>
        <time>2006-07-29T08:32:29Z</time>
      </trkpt>
      <trkpt lat="46.090350151062012" lon="9.33363676071167">
        <ele>928.290283203125</ele>
        <time>2006-07-29T08:34:56Z</time>
      </trkpt>
      <trkpt lat="46.090371608734131" lon="9.333786964416504">
        <ele>932.135498046875</ele>
        <time>2006-07-29T08:40:26Z</time>
      </trkpt>
      <trkpt lat="46.090414524078369" lon="9.333851337432861">
        <ele>931.17431640625</ele>
        <time>2006-07-29T08:40:30Z</time>
      </trkpt>
      <trkpt lat="46.090478897094727" lon="9.334087371826172">
        <ele>929.25146484375</ele>
        <time>2006-07-29T08:40:43Z</time>
      </trkpt>
      <trkpt lat="46.090457439422607" lon="9.334344863891602">
        <ele>928.77099609375</ele>
        <time>2006-07-29T08:40:56Z</time>
      </trkpt>
      <trkpt lat="46.090543270111084" lon="9.334580898284912">
        <ele>927.3291015625</ele>
        <time>2006-07-29T08:41:08Z</time>
      </trkpt>
      <trkpt lat="46.090672016143799" lon="9.334688186645508">
        <ele>928.290283203125</ele>
        <time>2006-07-29T08:41:19Z</time>
      </trkpt>
      <trkpt lat="46.090822219848633" lon="9.334688186645508">
        <ele>930.693603515625</ele>
        <time>2006-07-29T08:41:30Z</time>
      </trkpt>
      <trkpt lat="46.090950965881348" lon="9.334688186645508">
        <ele>929.732177734375</ele>
        <time>2006-07-29T08:41:40Z</time>
      </trkpt>
      <trkpt lat="46.091122627258301" lon="9.334602355957031">
        <ele>932.135498046875</ele>
        <time>2006-07-29T08:41:52Z</time>
      </trkpt>
      <trkpt lat="46.091251373291016" lon="9.334409236907959">
        <ele>931.17431640625</ele>
        <time>2006-07-29T08:42:04Z</time>
      </trkpt>
      <trkpt lat="46.091272830963135" lon="9.334151744842529">
        <ele>932.135498046875</ele>
        <time>2006-07-29T08:42:14Z</time>
      </trkpt>
      <trkpt lat="46.091229915618896" lon="9.333829879760742">
        <ele>932.6162109375</ele>
        <time>2006-07-29T08:42:25Z</time>
      </trkpt>
      <trkpt lat="46.091101169586182" lon="9.333465099334717">
        <ele>934.538818359375</ele>
        <time>2006-07-29T08:42:39Z</time>
      </trkpt>
      <trkpt lat="46.090972423553467" lon="9.333229064941406">
        <ele>935.01953125</ele>
        <time>2006-07-29T08:42:50Z</time>
      </trkpt>
      <trkpt lat="46.09088659286499" lon="9.332993030548096">
        <ele>936.46142578125</ele>
        <time>2006-07-29T08:43:00Z</time>
      </trkpt>
      <trkpt lat="46.090865135192871" lon="9.332671165466309">
        <ele>936.94189453125</ele>
        <time>2006-07-29T08:43:12Z</time>
      </trkpt>
      <trkpt lat="46.090843677520752" lon="9.332370758056641">
        <ele>939.34521484375</ele>
        <time>2006-07-29T08:43:23Z</time>
      </trkpt>
      <trkpt lat="46.090972423553467" lon="9.332199096679688">
        <ele>939.34521484375</ele>
        <time>2006-07-29T08:43:35Z</time>
      </trkpt>
      <trkpt lat="46.09114408493042" lon="9.331984519958496">
        <ele>938.384033203125</ele>
        <time>2006-07-29T08:43:48Z</time>
      </trkpt>
      <trkpt lat="46.09114408493042" lon="9.331705570220947">
        <ele>946.555419921875</ele>
        <time>2006-07-29T08:43:59Z</time>
      </trkpt>
      <trkpt lat="46.091122627258301" lon="9.33138370513916">
        <ele>949.439208984375</ele>
        <time>2006-07-29T08:44:12Z</time>
      </trkpt>
      <trkpt lat="46.09114408493042" lon="9.33114767074585">
        <ele>950.400634765625</ele>
        <time>2006-07-29T08:44:23Z</time>
      </trkpt>
      <trkpt lat="46.091272830963135" lon="9.331018924713135">
        <ele>950.400634765625</ele>
        <time>2006-07-29T08:44:34Z</time>
      </trkpt>
      <trkpt lat="46.091423034667969" lon="9.330976009368897">
        <ele>952.322998046875</ele>
        <time>2006-07-29T08:44:46Z</time>
      </trkpt>
      <trkpt lat="46.09140157699585" lon="9.331018924713135">
        <ele>952.322998046875</ele>
        <time>2006-07-29T08:44:49Z</time>
      </trkpt>
      <trkpt lat="46.091337203979492" lon="9.33114767074585">
        <ele>951.842529296875</ele>
        <time>2006-07-29T08:44:57Z</time>
      </trkpt>
      <trkpt lat="46.091294288635254" lon="9.331362247467041">
        <ele>951.36181640625</ele>
        <time>2006-07-29T08:45:08Z</time>
      </trkpt>
      <trkpt lat="46.091315746307373" lon="9.331576824188232">
        <ele>953.76513671875</ele>
        <time>2006-07-29T08:45:17Z</time>
      </trkpt>
      <trkpt lat="46.091337203979492" lon="9.33164119720459">
        <ele>954.726318359375</ele>
        <time>2006-07-29T08:45:20Z</time>
      </trkpt>
      <trkpt lat="46.091487407684326" lon="9.331984519958496">
        <ele>955.20703125</ele>
        <time>2006-07-29T08:45:36Z</time>
      </trkpt>
      <trkpt lat="46.091508865356445" lon="9.332199096679688">
        <ele>959.052490234375</ele>
        <time>2006-07-29T08:45:44Z</time>
      </trkpt>
      <trkpt lat="46.091508865356445" lon="9.332370758056641">
        <ele>963.37841796875</ele>
        <time>2006-07-29T08:45:53Z</time>
      </trkpt>
      <trkpt lat="46.091530323028564" lon="9.33264970779419">
        <ele>964.8203125</ele>
        <time>2006-07-29T08:46:04Z</time>
      </trkpt>
      <trkpt lat="46.09163761138916" lon="9.333035945892334">
        <ele>969.146240234375</ele>
        <time>2006-07-29T08:46:19Z</time>
      </trkpt>
      <trkpt lat="46.091787815093994" lon="9.33314323425293">
        <ele>971.54931640625</ele>
        <time>2006-07-29T08:46:30Z</time>
      </trkpt>
      <trkpt lat="46.091938018798828" lon="9.333293437957764">
        <ele>968.66552734375</ele>
        <time>2006-07-29T08:46:42Z</time>
      </trkpt>
      <trkpt lat="46.092109680175781" lon="9.333486557006836">
        <ele>969.146240234375</ele>
        <time>2006-07-29T08:46:57Z</time>
      </trkpt>
      <trkpt lat="46.092238426208496" lon="9.333679676055908">
        <ele>970.588134765625</ele>
        <time>2006-07-29T08:47:09Z</time>
      </trkpt>
      <trkpt lat="46.092431545257568" lon="9.3338942527771">
        <ele>973.472412109375</ele>
        <time>2006-07-29T08:47:23Z</time>
      </trkpt>
      <trkpt lat="46.092538833618164" lon="9.334022998809815">
        <ele>976.8369140625</ele>
        <time>2006-07-29T08:47:34Z</time>
      </trkpt>
      <trkpt lat="46.092538833618164" lon="9.334001541137695">
        <ele>977.317626953125</ele>
        <time>2006-07-29T08:47:35Z</time>
      </trkpt>
      <trkpt lat="46.092538833618164" lon="9.333937168121338">
        <ele>977.317626953125</ele>
        <time>2006-07-29T08:47:40Z</time>
      </trkpt>
      <trkpt lat="46.092410087585449" lon="9.333701133728027">
        <ele>981.643310546875</ele>
        <time>2006-07-29T08:47:54Z</time>
      </trkpt>
      <trkpt lat="46.092367172241211" lon="9.333443641662598">
        <ele>985.488525390625</ele>
        <time>2006-07-29T08:48:05Z</time>
      </trkpt>
      <trkpt lat="46.092410087585449" lon="9.33314323425293">
        <ele>987.891845703125</ele>
        <time>2006-07-29T08:48:17Z</time>
      </trkpt>
      <trkpt lat="46.092495918273926" lon="9.332864284515381">
        <ele>990.29541015625</ele>
        <time>2006-07-29T08:48:30Z</time>
      </trkpt>
      <trkpt lat="46.092453002929688" lon="9.332585334777832">
        <ele>990.77587890625</ele>
        <time>2006-07-29T08:48:43Z</time>
      </trkpt>
      <trkpt lat="46.09238862991333" lon="9.33239221572876">
        <ele>992.69873046875</ele>
        <time>2006-07-29T08:48:52Z</time>
      </trkpt>
      <trkpt lat="46.092453002929688" lon="9.332349300384522">
        <ele>993.17919921875</ele>
        <time>2006-07-29T08:48:57Z</time>
      </trkpt>
      <trkpt lat="46.092474460601807" lon="9.332370758056641">
        <ele>993.17919921875</ele>
        <time>2006-07-29T08:48:58Z</time>
      </trkpt>
      <trkpt lat="46.092581748962402" lon="9.332499504089356">
        <ele>995.101806640625</ele>
        <time>2006-07-29T08:49:09Z</time>
      </trkpt>
      <trkpt lat="46.092710494995117" lon="9.332606792449951">
        <ele>997.98583984375</ele>
        <time>2006-07-29T08:49:21Z</time>
      </trkpt>
      <trkpt lat="46.092860698699951" lon="9.332585334777832">
        <ele>1000.38916015625</ele>
        <time>2006-07-29T08:49:33Z</time>
      </trkpt>
      <trkpt lat="46.093053817749023" lon="9.332606792449951">
        <ele>1004.715087890625</ele>
        <time>2006-07-29T08:49:48Z</time>
      </trkpt>
      <trkpt lat="46.093182563781738" lon="9.332585334777832">
        <ele>1006.6376953125</ele>
        <time>2006-07-29T08:49:58Z</time>
      </trkpt>
      <trkpt lat="46.093332767486572" lon="9.332499504089356">
        <ele>1008.079833984375</ele>
        <time>2006-07-29T08:50:10Z</time>
      </trkpt>
      <trkpt lat="46.093440055847168" lon="9.332499504089356">
        <ele>1010.963623046875</ele>
        <time>2006-07-29T08:50:19Z</time>
      </trkpt>
      <trkpt lat="46.093504428863525" lon="9.332542419433594">
        <ele>1010.002197265625</ele>
        <time>2006-07-29T08:50:27Z</time>
      </trkpt>
      <trkpt lat="46.093504428863525" lon="9.332606792449951">
        <ele>1010.002197265625</ele>
        <time>2006-07-29T08:50:31Z</time>
      </trkpt>
      <trkpt lat="46.093525886535645" lon="9.332821369171143">
        <ele>1011.925048828125</ele>
        <time>2006-07-29T08:50:43Z</time>
      </trkpt>
      <trkpt lat="46.093568801879883" lon="9.332971572875977">
        <ele>1013.366943359375</ele>
        <time>2006-07-29T08:50:52Z</time>
      </trkpt>
      <trkpt lat="46.09363317489624" lon="9.333164691925049">
        <ele>1013.847412109375</ele>
        <time>2006-07-29T08:51:04Z</time>
      </trkpt>
      <trkpt lat="46.093676090240479" lon="9.333293437957764">
        <ele>1011.4443359375</ele>
        <time>2006-07-29T08:51:13Z</time>
      </trkpt>
      <trkpt lat="46.093676090240479" lon="9.333529472351074">
        <ele>1016.250732421875</ele>
        <time>2006-07-29T08:51:26Z</time>
      </trkpt>
      <trkpt lat="46.093740463256836" lon="9.333701133728027">
        <ele>1019.615478515625</ele>
        <time>2006-07-29T08:51:38Z</time>
      </trkpt>
      <trkpt lat="46.093847751617432" lon="9.333744049072266">
        <ele>1028.748046875</ele>
        <time>2006-07-29T08:51:48Z</time>
      </trkpt>
      <trkpt lat="46.093933582305908" lon="9.333786964416504">
        <ele>1026.3447265625</ele>
        <time>2006-07-29T08:51:57Z</time>
      </trkpt>
      <trkpt lat="46.093933582305908" lon="9.333808422088623">
        <ele>1025.864013671875</ele>
        <time>2006-07-29T08:51:59Z</time>
      </trkpt>
      <trkpt lat="46.093976497650146" lon="9.333851337432861">
        <ele>1027.78662109375</ele>
        <time>2006-07-29T08:52:05Z</time>
      </trkpt>
      <trkpt lat="46.094019412994385" lon="9.334022998809815">
        <ele>1028.748046875</ele>
        <time>2006-07-29T08:52:16Z</time>
      </trkpt>
      <trkpt lat="46.094019412994385" lon="9.334194660186768">
        <ele>1028.748046875</ele>
        <time>2006-07-29T08:52:28Z</time>
      </trkpt>
      <trkpt lat="46.094040870666504" lon="9.334323406219482">
        <ele>1030.18994140625</ele>
        <time>2006-07-29T08:52:37Z</time>
      </trkpt>
      <trkpt lat="46.094083786010742" lon="9.334473609924316">
        <ele>1029.709228515625</ele>
        <time>2006-07-29T08:52:47Z</time>
      </trkpt>
      <trkpt lat="46.09412670135498" lon="9.334752559661865">
        <ele>1029.709228515625</ele>
        <time>2006-07-29T08:53:02Z</time>
      </trkpt>
      <trkpt lat="46.09412670135498" lon="9.334902763366699">
        <ele>1031.6318359375</ele>
        <time>2006-07-29T08:53:12Z</time>
      </trkpt>
      <trkpt lat="46.094105243682861" lon="9.334988594055176">
        <ele>1034.03515625</ele>
        <time>2006-07-29T08:53:17Z</time>
      </trkpt>
      <trkpt lat="46.094105243682861" lon="9.335181713104248">
        <ele>1034.515869140625</ele>
        <time>2006-07-29T08:53:26Z</time>
      </trkpt>
      <trkpt lat="46.0941481590271" lon="9.33537483215332">
        <ele>1036.438720703125</ele>
        <time>2006-07-29T08:53:36Z</time>
      </trkpt>
      <trkpt lat="46.094191074371338" lon="9.335546493530273">
        <ele>1038.842041015625</ele>
        <time>2006-07-29T08:53:45Z</time>
      </trkpt>
      <trkpt lat="46.094169616699219" lon="9.335761070251465">
        <ele>1043.167724609375</ele>
        <time>2006-07-29T08:53:56Z</time>
      </trkpt>
      <trkpt lat="46.094169616699219" lon="9.335846900939941">
        <ele>1043.167724609375</ele>
        <time>2006-07-29T08:54:00Z</time>
      </trkpt>
      <trkpt lat="46.0941481590271" lon="9.336018562316895">
        <ele>1044.609619140625</ele>
        <time>2006-07-29T08:54:11Z</time>
      </trkpt>
      <trkpt lat="46.0941481590271" lon="9.336168766021729">
        <ele>1046.0517578125</ele>
        <time>2006-07-29T08:54:22Z</time>
      </trkpt>
      <trkpt lat="46.0941481590271" lon="9.336426258087158">
        <ele>1046.0517578125</ele>
        <time>2006-07-29T08:54:36Z</time>
      </trkpt>
      <trkpt lat="46.094105243682861" lon="9.336705207824707">
        <ele>1044.609619140625</ele>
        <time>2006-07-29T08:54:53Z</time>
      </trkpt>
      <trkpt lat="46.094083786010742" lon="9.336919784545898">
        <ele>1044.609619140625</ele>
        <time>2006-07-29T08:55:07Z</time>
      </trkpt>
      <trkpt lat="46.093997955322266" lon="9.33713436126709">
        <ele>1048.935546875</ele>
        <time>2006-07-29T08:55:20Z</time>
      </trkpt>
      <trkpt lat="46.093933582305908" lon="9.337306022644043">
        <ele>1052.781005859375</ele>
        <time>2006-07-29T08:55:31Z</time>
      </trkpt>
      <trkpt lat="46.093847751617432" lon="9.337542057037354">
        <ele>1059.029541015625</ele>
        <time>2006-07-29T08:55:46Z</time>
      </trkpt>
      <trkpt lat="46.093719005584717" lon="9.337735176086426">
        <ele>1061.432861328125</ele>
        <time>2006-07-29T08:55:56Z</time>
      </trkpt>
      <trkpt lat="46.093525886535645" lon="9.337971210479736">
        <ele>1061.91357421875</ele>
        <time>2006-07-29T08:56:08Z</time>
      </trkpt>
      <trkpt lat="46.093311309814453" lon="9.33814287185669">
        <ele>1064.316650390625</ele>
        <time>2006-07-29T08:56:20Z</time>
      </trkpt>
      <trkpt lat="46.0931396484375" lon="9.338293075561523">
        <ele>1066.719970703125</ele>
        <time>2006-07-29T08:56:30Z</time>
      </trkpt>
      <trkpt lat="46.092925071716309" lon="9.338464736938477">
        <ele>1068.162109375</ele>
        <time>2006-07-29T08:56:42Z</time>
      </trkpt>
      <trkpt lat="46.092689037322998" lon="9.338765144348145">
        <ele>1070.084716796875</ele>
        <time>2006-07-29T08:56:55Z</time>
      </trkpt>
      <trkpt lat="46.092560291290283" lon="9.339065551757813">
        <ele>1071.526611328125</ele>
        <time>2006-07-29T08:57:07Z</time>
      </trkpt>
      <trkpt lat="46.092495918273926" lon="9.339451789855957">
        <ele>1072.00732421875</ele>
        <time>2006-07-29T08:57:18Z</time>
      </trkpt>
      <trkpt lat="46.092431545257568" lon="9.339859485626221">
        <ele>1072.00732421875</ele>
        <time>2006-07-29T08:57:29Z</time>
      </trkpt>
      <trkpt lat="46.092431545257568" lon="9.340202808380127">
        <ele>1071.526611328125</ele>
        <time>2006-07-29T08:57:42Z</time>
      </trkpt>
      <trkpt lat="46.092517375946045" lon="9.34063196182251">
        <ele>1073.449462890625</ele>
        <time>2006-07-29T08:57:58Z</time>
      </trkpt>
      <trkpt lat="46.092731952667236" lon="9.341104030609131">
        <ele>1074.41064453125</ele>
        <time>2006-07-29T08:58:22Z</time>
      </trkpt>
      <trkpt lat="46.092796325683594" lon="9.341425895690918">
        <ele>1072.00732421875</ele>
        <time>2006-07-29T08:58:37Z</time>
      </trkpt>
      <trkpt lat="46.092817783355713" lon="9.341661930084229">
        <ele>1072.00732421875</ele>
        <time>2006-07-29T08:58:49Z</time>
      </trkpt>
      <trkpt lat="46.092903614044189" lon="9.341919422149658">
        <ele>1073.929931640625</ele>
        <time>2006-07-29T08:59:03Z</time>
      </trkpt>
      <trkpt lat="46.093032360076904" lon="9.342091083526611">
        <ele>1075.371826171875</ele>
        <time>2006-07-29T08:59:15Z</time>
      </trkpt>
      <trkpt lat="46.093075275421143" lon="9.342112541198731">
        <ele>1075.8525390625</ele>
        <time>2006-07-29T08:59:22Z</time>
      </trkpt>
      <trkpt lat="46.093096733093262" lon="9.34213399887085">
        <ele>1084.504638671875</ele>
        <time>2006-07-29T09:08:51Z</time>
      </trkpt>
      <trkpt lat="46.093096733093262" lon="9.342176914215088">
        <ele>1083.062255859375</ele>
        <time>2006-07-29T09:09:20Z</time>
      </trkpt>
      <trkpt lat="46.093118190765381" lon="9.342262744903565">
        <ele>1080.178466796875</ele>
        <time>2006-07-29T09:09:30Z</time>
      </trkpt>
      <trkpt lat="46.0931396484375" lon="9.342305660247803">
        <ele>1080.6591796875</ele>
        <time>2006-07-29T09:09:35Z</time>
      </trkpt>
      <trkpt lat="46.093096733093262" lon="9.342412948608398">
        <ele>1080.178466796875</ele>
        <time>2006-07-29T09:09:39Z</time>
      </trkpt>
      <trkpt lat="46.092967987060547" lon="9.342606067657471">
        <ele>1080.178466796875</ele>
        <time>2006-07-29T09:09:49Z</time>
      </trkpt>
      <trkpt lat="46.092731952667236" lon="9.342777729034424">
        <ele>1078.736572265625</ele>
        <time>2006-07-29T09:10:01Z</time>
      </trkpt>
      <trkpt lat="46.092495918273926" lon="9.343013763427734">
        <ele>1080.6591796875</ele>
        <time>2006-07-29T09:10:13Z</time>
      </trkpt>
      <trkpt lat="46.092259883880615" lon="9.343228340148926">
        <ele>1082.10107421875</ele>
        <time>2006-07-29T09:10:27Z</time>
      </trkpt>
      <trkpt lat="46.092088222503662" lon="9.343400001525879">
        <ele>1085.946533203125</ele>
        <time>2006-07-29T09:10:36Z</time>
      </trkpt>
      <trkpt lat="46.091916561126709" lon="9.343764781951904">
        <ele>1090.2724609375</ele>
        <time>2006-07-29T09:10:47Z</time>
      </trkpt>
      <trkpt lat="46.091723442077637" lon="9.344022274017334">
        <ele>1087.869140625</ele>
        <time>2006-07-29T09:10:56Z</time>
      </trkpt>
      <trkpt lat="46.091444492340088" lon="9.344258308410645">
        <ele>1088.83056640625</ele>
        <time>2006-07-29T09:11:09Z</time>
      </trkpt>
      <trkpt lat="46.091251373291016" lon="9.344494342803955">
        <ele>1090.7529296875</ele>
        <time>2006-07-29T09:11:19Z</time>
      </trkpt>
      <trkpt lat="46.090950965881348" lon="9.344923496246338">
        <ele>1094.11767578125</ele>
        <time>2006-07-29T09:11:38Z</time>
      </trkpt>
      <trkpt lat="46.090757846832275" lon="9.345180988311768">
        <ele>1092.195068359375</ele>
        <time>2006-07-29T09:11:49Z</time>
      </trkpt>
      <trkpt lat="46.090607643127441" lon="9.345417022705078">
        <ele>1086.42724609375</ele>
        <time>2006-07-29T09:11:59Z</time>
      </trkpt>
      <trkpt lat="46.090350151062012" lon="9.345588684082031">
        <ele>1087.388427734375</ele>
        <time>2006-07-29T09:12:10Z</time>
      </trkpt>
      <trkpt lat="46.090006828308105" lon="9.345781803131104">
        <ele>1089.791748046875</ele>
        <time>2006-07-29T09:12:22Z</time>
      </trkpt>
      <trkpt lat="46.089706420898437" lon="9.345889091491699">
        <ele>1091.233642578125</ele>
        <time>2006-07-29T09:12:33Z</time>
      </trkpt>
      <trkpt lat="46.089470386505127" lon="9.345974922180176">
        <ele>1092.195068359375</ele>
        <time>2006-07-29T09:12:42Z</time>
      </trkpt>
      <trkpt lat="46.08938455581665" lon="9.34612512588501">
        <ele>1091.233642578125</ele>
        <time>2006-07-29T09:12:46Z</time>
      </trkpt>
      <trkpt lat="46.089212894439697" lon="9.346318244934082">
        <ele>1092.195068359375</ele>
        <time>2006-07-29T09:12:54Z</time>
      </trkpt>
      <trkpt lat="46.088976860046387" lon="9.346597194671631">
        <ele>1091.71435546875</ele>
        <time>2006-07-29T09:13:03Z</time>
      </trkpt>
      <trkpt lat="46.088869571685791" lon="9.346575736999512">
        <ele>1090.7529296875</ele>
        <time>2006-07-29T09:13:07Z</time>
      </trkpt>
      <trkpt lat="46.088805198669434" lon="9.346511363983154">
        <ele>1090.7529296875</ele>
        <time>2006-07-29T09:13:10Z</time>
      </trkpt>
      <trkpt lat="46.088526248931885" lon="9.346425533294678">
        <ele>1090.7529296875</ele>
        <time>2006-07-29T09:13:20Z</time>
      </trkpt>
      <trkpt lat="46.088290214538574" lon="9.346468448638916">
        <ele>1090.2724609375</ele>
        <time>2006-07-29T09:13:28Z</time>
      </trkpt>
      <trkpt lat="46.088054180145264" lon="9.346339702606201">
        <ele>1092.195068359375</ele>
        <time>2006-07-29T09:13:38Z</time>
      </trkpt>
      <trkpt lat="46.08790397644043" lon="9.346060752868652">
        <ele>1090.7529296875</ele>
        <time>2006-07-29T09:13:47Z</time>
      </trkpt>
      <trkpt lat="46.087732315063477" lon="9.345910549163818">
        <ele>1091.233642578125</ele>
        <time>2006-07-29T09:13:55Z</time>
      </trkpt>
      <trkpt lat="46.087496280670166" lon="9.345974922180176">
        <ele>1094.11767578125</ele>
        <time>2006-07-29T09:14:04Z</time>
      </trkpt>
      <trkpt lat="46.087174415588379" lon="9.346253871917725">
        <ele>1095.078857421875</ele>
        <time>2006-07-29T09:14:19Z</time>
      </trkpt>
      <trkpt lat="46.086938381195068" lon="9.346532821655273">
        <ele>1096.52099609375</ele>
        <time>2006-07-29T09:14:30Z</time>
      </trkpt>
      <trkpt lat="46.086723804473877" lon="9.346940517425537">
        <ele>1097.00146484375</ele>
        <time>2006-07-29T09:14:44Z</time>
      </trkpt>
      <trkpt lat="46.086487770080566" lon="9.347434043884277">
        <ele>1099.885498046875</ele>
        <time>2006-07-29T09:14:59Z</time>
      </trkpt>
      <trkpt lat="46.086316108703613" lon="9.348013401031494">
        <ele>1101.32763671875</ele>
        <time>2006-07-29T09:15:12Z</time>
      </trkpt>
      <trkpt lat="46.086230278015137" lon="9.34837818145752">
        <ele>1101.808349609375</ele>
        <time>2006-07-29T09:15:21Z</time>
      </trkpt>
      <trkpt lat="46.086187362670898" lon="9.348721504211426">
        <ele>1101.808349609375</ele>
        <time>2006-07-29T09:15:31Z</time>
      </trkpt>
      <trkpt lat="46.08614444732666" lon="9.34912919998169">
        <ele>1100.846923828125</ele>
        <time>2006-07-29T09:15:41Z</time>
      </trkpt>
      <trkpt lat="46.086037158966064" lon="9.349451065063477">
        <ele>1100.846923828125</ele>
        <time>2006-07-29T09:15:50Z</time>
      </trkpt>
      <trkpt lat="46.085972785949707" lon="9.349687099456787">
        <ele>1101.32763671875</ele>
        <time>2006-07-29T09:15:57Z</time>
      </trkpt>
      <trkpt lat="46.085951328277588" lon="9.349794387817383">
        <ele>1101.808349609375</ele>
        <time>2006-07-29T09:16:04Z</time>
      </trkpt>
      <trkpt lat="46.085951328277588" lon="9.349880218505859">
        <ele>1105.1728515625</ele>
        <time>2006-07-29T09:18:41Z</time>
      </trkpt>
      <trkpt lat="46.085951328277588" lon="9.349880218505859">
        <ele>1106.61474609375</ele>
        <time>2006-07-29T09:19:49Z</time>
      </trkpt>
      <trkpt lat="46.085951328277588" lon="9.349966049194336">
        <ele>1112.382568359375</ele>
        <time>2006-07-29T09:20:35Z</time>
      </trkpt>
      <trkpt lat="46.085951328277588" lon="9.350159168243408">
        <ele>1112.382568359375</ele>
        <time>2006-07-29T09:20:43Z</time>
      </trkpt>
      <trkpt lat="46.085801124572754" lon="9.350352287292481">
        <ele>1111.902099609375</ele>
        <time>2006-07-29T09:20:51Z</time>
      </trkpt>
      <trkpt lat="46.085758209228516" lon="9.350523948669434">
        <ele>1110.940673828125</ele>
        <time>2006-07-29T09:20:58Z</time>
      </trkpt>
      <trkpt lat="46.085693836212158" lon="9.350802898406982">
        <ele>1110.4599609375</ele>
        <time>2006-07-29T09:21:08Z</time>
      </trkpt>
      <trkpt lat="46.085672378540039" lon="9.35112476348877">
        <ele>1110.940673828125</ele>
        <time>2006-07-29T09:21:19Z</time>
      </trkpt>
      <trkpt lat="46.08565092086792" lon="9.351403713226318">
        <ele>1110.4599609375</ele>
        <time>2006-07-29T09:21:29Z</time>
      </trkpt>
      <trkpt lat="46.085629463195801" lon="9.351446628570557">
        <ele>1110.940673828125</ele>
        <time>2006-07-29T09:21:31Z</time>
      </trkpt>
      <trkpt lat="46.085436344146729" lon="9.351511001586914">
        <ele>1109.979248046875</ele>
        <time>2006-07-29T09:21:40Z</time>
      </trkpt>
      <trkpt lat="46.085329055786133" lon="9.351532459259033">
        <ele>1109.498779296875</ele>
        <time>2006-07-29T09:21:45Z</time>
      </trkpt>
      <trkpt lat="46.085286140441895" lon="9.351747035980225">
        <ele>1110.4599609375</ele>
        <time>2006-07-29T09:21:52Z</time>
      </trkpt>
      <trkpt lat="46.085307598114014" lon="9.352240562438965">
        <ele>1110.940673828125</ele>
        <time>2006-07-29T09:22:07Z</time>
      </trkpt>
      <trkpt lat="46.085329055786133" lon="9.35260534286499">
        <ele>1111.42138671875</ele>
        <time>2006-07-29T09:22:20Z</time>
      </trkpt>
      <trkpt lat="46.084856986999512" lon="9.352240562438965">
        <ele>1112.382568359375</ele>
        <time>2006-07-29T09:22:28Z</time>
      </trkpt>
      <trkpt lat="46.084728240966797" lon="9.352240562438965">
        <ele>1113.343994140625</ele>
        <time>2006-07-29T09:22:35Z</time>
      </trkpt>
      <trkpt lat="46.084578037261963" lon="9.35236930847168">
        <ele>1115.747314453125</ele>
        <time>2006-07-29T09:22:41Z</time>
      </trkpt>
      <trkpt lat="46.084470748901367" lon="9.352326393127441">
        <ele>1115.747314453125</ele>
        <time>2006-07-29T09:22:45Z</time>
      </trkpt>
      <trkpt lat="46.084191799163818" lon="9.352283477783203">
        <ele>1115.2666015625</ele>
        <time>2006-07-29T09:22:56Z</time>
      </trkpt>
      <trkpt lat="46.083977222442627" lon="9.35236930847168">
        <ele>1110.4599609375</ele>
        <time>2006-07-29T09:23:07Z</time>
      </trkpt>
      <trkpt lat="46.083762645721436" lon="9.352347850799561">
        <ele>1106.134033203125</ele>
        <time>2006-07-29T09:23:18Z</time>
      </trkpt>
      <trkpt lat="46.083548069000244" lon="9.352347850799561">
        <ele>1106.134033203125</ele>
        <time>2006-07-29T09:23:26Z</time>
      </trkpt>
      <trkpt lat="46.083204746246338" lon="9.352519512176514">
        <ele>1105.1728515625</ele>
        <time>2006-07-29T09:23:40Z</time>
      </trkpt>
      <trkpt lat="46.082990169525146" lon="9.352777004241943">
        <ele>1105.1728515625</ele>
        <time>2006-07-29T09:23:51Z</time>
      </trkpt>
      <trkpt lat="46.082797050476074" lon="9.35312032699585">
        <ele>1106.134033203125</ele>
        <time>2006-07-29T09:24:01Z</time>
      </trkpt>
      <trkpt lat="46.082603931427002" lon="9.353506565093994">
        <ele>1108.056884765625</ele>
        <time>2006-07-29T09:24:15Z</time>
      </trkpt>
      <trkpt lat="46.082367897033691" lon="9.353892803192139">
        <ele>1106.61474609375</ele>
        <time>2006-07-29T09:24:28Z</time>
      </trkpt>
      <trkpt lat="46.082024574279785" lon="9.354772567749023">
        <ele>1107.576171875</ele>
        <time>2006-07-29T09:24:42Z</time>
      </trkpt>
      <trkpt lat="46.081852912902832" lon="9.355266094207764">
        <ele>1107.576171875</ele>
        <time>2006-07-29T09:24:53Z</time>
      </trkpt>
      <trkpt lat="46.081724166870117" lon="9.355630874633789">
        <ele>1107.095458984375</ele>
        <time>2006-07-29T09:25:04Z</time>
      </trkpt>
      <trkpt lat="46.081702709197998" lon="9.3558669090271">
        <ele>1109.498779296875</ele>
        <time>2006-07-29T09:25:11Z</time>
      </trkpt>
      <trkpt lat="46.081638336181641" lon="9.355974197387695">
        <ele>1112.382568359375</ele>
        <time>2006-07-29T09:25:17Z</time>
      </trkpt>
      <trkpt lat="46.081573963165283" lon="9.356317520141602">
        <ele>1111.902099609375</ele>
        <time>2006-07-29T09:25:31Z</time>
      </trkpt>
      <trkpt lat="46.081509590148926" lon="9.35659646987915">
        <ele>1112.382568359375</ele>
        <time>2006-07-29T09:25:45Z</time>
      </trkpt>
      <trkpt lat="46.081466674804688" lon="9.356811046600342">
        <ele>1113.824462890625</ele>
        <time>2006-07-29T09:25:57Z</time>
      </trkpt>
      <trkpt lat="46.081423759460449" lon="9.357047080993652">
        <ele>1118.63134765625</ele>
        <time>2006-07-29T09:26:10Z</time>
      </trkpt>
      <trkpt lat="46.08140230178833" lon="9.35736894607544">
        <ele>1121.03466796875</ele>
        <time>2006-07-29T09:26:26Z</time>
      </trkpt>
      <trkpt lat="46.081445217132568" lon="9.357519149780273">
        <ele>1124.399169921875</ele>
        <time>2006-07-29T09:26:37Z</time>
      </trkpt>
      <trkpt lat="46.081488132476807" lon="9.357690811157227">
        <ele>1127.283203125</ele>
        <time>2006-07-29T09:26:50Z</time>
      </trkpt>
      <trkpt lat="46.081531047821045" lon="9.357819557189941">
        <ele>1130.1669921875</ele>
        <time>2006-07-29T09:27:00Z</time>
      </trkpt>
      <trkpt lat="46.081573963165283" lon="9.357926845550537">
        <ele>1131.60888671875</ele>
        <time>2006-07-29T09:27:10Z</time>
      </trkpt>
      <trkpt lat="46.081595420837402" lon="9.358119964599609">
        <ele>1134.973876953125</ele>
        <time>2006-07-29T09:27:23Z</time>
      </trkpt>
      <trkpt lat="46.081595420837402" lon="9.358270168304443">
        <ele>1137.376953125</ele>
        <time>2006-07-29T09:27:36Z</time>
      </trkpt>
      <trkpt lat="46.081573963165283" lon="9.358441829681397">
        <ele>1139.7802734375</ele>
        <time>2006-07-29T09:27:47Z</time>
      </trkpt>
      <trkpt lat="46.081531047821045" lon="9.358592033386231">
        <ele>1140.260986328125</ele>
        <time>2006-07-29T09:27:59Z</time>
      </trkpt>
      <trkpt lat="46.081509590148926" lon="9.358806610107422">
        <ele>1142.18359375</ele>
        <time>2006-07-29T09:28:13Z</time>
      </trkpt>
      <trkpt lat="46.081445217132568" lon="9.358999729156494">
        <ele>1146.02880859375</ele>
        <time>2006-07-29T09:28:27Z</time>
      </trkpt>
      <trkpt lat="46.081423759460449" lon="9.359214305877686">
        <ele>1146.989990234375</ele>
        <time>2006-07-29T09:28:40Z</time>
      </trkpt>
      <trkpt lat="46.081445217132568" lon="9.359428882598877">
        <ele>1147.951416015625</ele>
        <time>2006-07-29T09:28:55Z</time>
      </trkpt>
      <trkpt lat="46.081488132476807" lon="9.35960054397583">
        <ele>1148.912841796875</ele>
        <time>2006-07-29T09:29:08Z</time>
      </trkpt>
      <trkpt lat="46.081509590148926" lon="9.35985803604126">
        <ele>1151.796875</ele>
        <time>2006-07-29T09:29:24Z</time>
      </trkpt>
      <trkpt lat="46.081531047821045" lon="9.360072612762451">
        <ele>1152.27734375</ele>
        <time>2006-07-29T09:29:41Z</time>
      </trkpt>
      <trkpt lat="46.081509590148926" lon="9.3603515625">
        <ele>1153.23876953125</ele>
        <time>2006-07-29T09:29:58Z</time>
      </trkpt>
      <trkpt lat="46.081509590148926" lon="9.360566139221191">
        <ele>1158.04541015625</ele>
        <time>2006-07-29T09:30:15Z</time>
      </trkpt>
      <trkpt lat="46.081488132476807" lon="9.360780715942383">
        <ele>1159.4873046875</ele>
        <time>2006-07-29T09:30:27Z</time>
      </trkpt>
      <trkpt lat="46.081488132476807" lon="9.361016750335693">
        <ele>1160.92919921875</ele>
        <time>2006-07-29T09:30:42Z</time>
      </trkpt>
      <trkpt lat="46.081531047821045" lon="9.361209869384766">
        <ele>1162.851806640625</ele>
        <time>2006-07-29T09:30:56Z</time>
      </trkpt>
      <trkpt lat="46.081552505493164" lon="9.361445903778076">
        <ele>1163.81298828125</ele>
        <time>2006-07-29T09:31:14Z</time>
      </trkpt>
      <trkpt lat="46.081616878509521" lon="9.361531734466553">
        <ele>1163.81298828125</ele>
        <time>2006-07-29T09:31:24Z</time>
      </trkpt>
      <trkpt lat="46.08165979385376" lon="9.361746311187744">
        <ele>1167.177978515625</ele>
        <time>2006-07-29T09:31:42Z</time>
      </trkpt>
      <trkpt lat="46.081702709197998" lon="9.361939430236816">
        <ele>1171.503662109375</ele>
        <time>2006-07-29T09:31:58Z</time>
      </trkpt>
      <trkpt lat="46.081702709197998" lon="9.362068176269531">
        <ele>1173.426513671875</ele>
        <time>2006-07-29T09:32:09Z</time>
      </trkpt>
      <trkpt lat="46.081745624542236" lon="9.362325668334961">
        <ele>1175.82958984375</ele>
        <time>2006-07-29T09:32:33Z</time>
      </trkpt>
      <trkpt lat="46.081724166870117" lon="9.362518787384033">
        <ele>1177.752197265625</ele>
        <time>2006-07-29T09:32:54Z</time>
      </trkpt>
      <trkpt lat="46.081767082214355" lon="9.362626075744629">
        <ele>1179.194091796875</ele>
        <time>2006-07-29T09:33:10Z</time>
      </trkpt>
      <trkpt lat="46.081831455230713" lon="9.362754821777344">
        <ele>1184.0009765625</ele>
        <time>2006-07-29T09:33:21Z</time>
      </trkpt>
      <trkpt lat="46.081831455230713" lon="9.36284065246582">
        <ele>1183.520263671875</ele>
        <time>2006-07-29T09:33:32Z</time>
      </trkpt>
      <trkpt lat="46.081874370574951" lon="9.36286211013794">
        <ele>1183.03955078125</ele>
        <time>2006-07-29T09:33:51Z</time>
      </trkpt>
      <trkpt lat="46.082797050476074" lon="9.363527297973633">
        <ele>1183.03955078125</ele>
        <time>2006-07-29T09:45:48Z</time>
      </trkpt>
      <trkpt lat="46.090822219848633" lon="9.366016387939453">
        <ele>1295.513916015625</ele>
        <time>2006-07-29T09:47:42Z</time>
      </trkpt>
      <trkpt lat="46.090564727783203" lon="9.365801811218262">
        <ele>1322.911376953125</ele>
        <time>2006-07-29T09:50:45Z</time>
      </trkpt>
      <trkpt lat="46.091337203979492" lon="9.364128112792969">
        <ele>1322.911376953125</ele>
        <time>2006-07-29T09:55:59Z</time>
      </trkpt>
      <trkpt lat="46.092710494995117" lon="9.366960525512695">
        <ele>1380.590576171875</ele>
        <time>2006-07-29T09:56:45Z</time>
      </trkpt>
      <trkpt lat="46.092839241027832" lon="9.366917610168457">
        <ele>1380.590576171875</ele>
        <time>2006-07-29T09:57:15Z</time>
      </trkpt>
      <trkpt lat="46.093289852142334" lon="9.3668532371521">
        <ele>1380.590576171875</ele>
        <time>2006-07-29T09:57:17Z</time>
      </trkpt>
      <trkpt lat="46.093375682830811" lon="9.366960525512695">
        <ele>1380.590576171875</ele>
        <time>2006-07-29T09:57:20Z</time>
      </trkpt>
      <trkpt lat="46.093461513519287" lon="9.3668532371521">
        <ele>1380.590576171875</ele>
        <time>2006-07-29T09:57:30Z</time>
      </trkpt>
      <trkpt lat="46.095585823059082" lon="9.365866184234619">
        <ele>1469.9931640625</ele>
        <time>2006-07-29T10:14:31Z</time>
      </trkpt>
      <trkpt lat="46.094985008239746" lon="9.36335563659668">
        <ele>1462.302490234375</ele>
        <time>2006-07-29T10:17:58Z</time>
      </trkpt>
      <trkpt lat="46.095006465911865" lon="9.363205432891846">
        <ele>1462.302490234375</ele>
        <time>2006-07-29T10:18:10Z</time>
      </trkpt>
      <trkpt lat="46.094963550567627" lon="9.363033771514893">
        <ele>1466.62841796875</ele>
        <time>2006-07-29T10:18:28Z</time>
      </trkpt>
      <trkpt lat="46.094920635223389" lon="9.361917972564697">
        <ele>1464.22509765625</ele>
        <time>2006-07-29T10:25:14Z</time>
      </trkpt>
      <trkpt lat="46.090972423553467" lon="9.359300136566162">
        <ele>1464.22509765625</ele>
        <time>2006-07-29T10:25:26Z</time>
      </trkpt>
      <trkpt lat="46.090564727783203" lon="9.358892440795898">
        <ele>1525.268798828125</ele>
        <time>2006-07-29T10:26:36Z</time>
      </trkpt>
      <trkpt lat="46.090607643127441" lon="9.35884952545166">
        <ele>1516.136474609375</ele>
        <time>2006-07-29T10:27:41Z</time>
      </trkpt>
      <trkpt lat="46.090607643127441" lon="9.358763694763184">
        <ele>1516.136474609375</ele>
        <time>2006-07-29T10:27:55Z</time>
      </trkpt>
      <trkpt lat="46.090543270111084" lon="9.358592033386231">
        <ele>1518.539794921875</ele>
        <time>2006-07-29T10:28:07Z</time>
      </trkpt>
      <trkpt lat="46.090457439422607" lon="9.358227252960205">
        <ele>1519.501220703125</ele>
        <time>2006-07-29T10:28:38Z</time>
      </trkpt>
      <trkpt lat="46.090414524078369" lon="9.358141422271729">
        <ele>1519.981689453125</ele>
        <time>2006-07-29T10:28:55Z</time>
      </trkpt>
      <trkpt lat="46.090285778045654" lon="9.358077049255371">
        <ele>1522.385009765625</ele>
        <time>2006-07-29T10:29:33Z</time>
      </trkpt>
      <trkpt lat="46.090199947357178" lon="9.357969760894775">
        <ele>1522.385009765625</ele>
        <time>2006-07-29T10:29:52Z</time>
      </trkpt>
      <trkpt lat="46.090049743652344" lon="9.357819557189941">
        <ele>1531.517333984375</ele>
        <time>2006-07-29T10:30:04Z</time>
      </trkpt>
      <trkpt lat="46.089985370635986" lon="9.357755184173584">
        <ele>1535.36279296875</ele>
        <time>2006-07-29T10:30:12Z</time>
      </trkpt>
      <trkpt lat="46.089920997619629" lon="9.357562065124512">
        <ele>1543.533935546875</ele>
        <time>2006-07-29T10:30:36Z</time>
      </trkpt>
      <trkpt lat="46.089920997619629" lon="9.357562065124512">
        <ele>1543.533935546875</ele>
        <time>2006-07-29T10:30:37Z</time>
      </trkpt>
      <trkpt lat="46.090006828308105" lon="9.357583522796631">
        <ele>1543.533935546875</ele>
        <time>2006-07-29T10:30:47Z</time>
      </trkpt>
      <trkpt lat="46.090199947357178" lon="9.357755184173584">
        <ele>1544.0146484375</ele>
        <time>2006-07-29T10:31:07Z</time>
      </trkpt>
      <trkpt lat="46.090350151062012" lon="9.357883930206299">
        <ele>1544.0146484375</ele>
        <time>2006-07-29T10:31:23Z</time>
      </trkpt>
      <trkpt lat="46.090242862701416" lon="9.357712268829346">
        <ele>1544.0146484375</ele>
        <time>2006-07-29T10:32:11Z</time>
      </trkpt>
      <trkpt lat="46.090414524078369" lon="9.357798099517822">
        <ele>1553.147216796875</ele>
        <time>2006-07-29T10:32:35Z</time>
      </trkpt>
      <trkpt lat="46.092302799224854" lon="9.359214305877686">
        <ele>1592.08056640625</ele>
        <time>2006-07-29T10:36:39Z</time>
      </trkpt>
      <trkpt lat="46.09215259552002" lon="9.359278678894043">
        <ele>1604.57763671875</ele>
        <time>2006-07-29T10:36:48Z</time>
      </trkpt>
      <trkpt lat="46.092002391815186" lon="9.359171390533447">
        <ele>1605.058349609375</ele>
        <time>2006-07-29T10:36:59Z</time>
      </trkpt>
      <trkpt lat="46.091616153717041" lon="9.358828067779541">
        <ele>1596.40673828125</ele>
        <time>2006-07-29T10:37:37Z</time>
      </trkpt>
      <trkpt lat="46.091809272766113" lon="9.358484745025635">
        <ele>1598.809814453125</ele>
        <time>2006-07-29T10:37:52Z</time>
      </trkpt>
      <trkpt lat="46.091938018798828" lon="9.358119964599609">
        <ele>1599.29052734375</ele>
        <time>2006-07-29T10:37:54Z</time>
      </trkpt>
      <trkpt lat="46.091680526733398" lon="9.358291625976563">
        <ele>1606.01953125</ele>
        <time>2006-07-29T10:38:08Z</time>
      </trkpt>
      <trkpt lat="46.091873645782471" lon="9.358034133911133">
        <ele>1606.01953125</ele>
        <time>2006-07-29T10:38:39Z</time>
      </trkpt>
      <trkpt lat="46.092023849487305" lon="9.357819557189941">
        <ele>1606.01953125</ele>
        <time>2006-07-29T10:39:32Z</time>
      </trkpt>
      <trkpt lat="46.092238426208496" lon="9.358441829681397">
        <ele>1606.01953125</ele>
        <time>2006-07-29T10:39:44Z</time>
      </trkpt>
      <trkpt lat="46.092109680175781" lon="9.357647895812988">
        <ele>1606.01953125</ele>
        <time>2006-07-29T10:40:50Z</time>
      </trkpt>
      <trkpt lat="46.092689037322998" lon="9.358956813812256">
        <ele>1622.8427734375</ele>
        <time>2006-07-29T10:40:58Z</time>
      </trkpt>
      <trkpt lat="46.09288215637207" lon="9.358742237091065">
        <ele>1623.803955078125</ele>
        <time>2006-07-29T10:42:19Z</time>
      </trkpt>
      <trkpt lat="46.093332767486572" lon="9.358956813812256">
        <ele>1638.223876953125</ele>
        <time>2006-07-29T10:42:41Z</time>
      </trkpt>
      <trkpt lat="46.093332767486572" lon="9.358935356140137">
        <ele>1638.223876953125</ele>
        <time>2006-07-29T10:42:42Z</time>
      </trkpt>
      <trkpt lat="46.093289852142334" lon="9.358806610107422">
        <ele>1640.146484375</ele>
        <time>2006-07-29T10:42:52Z</time>
      </trkpt>
      <trkpt lat="46.093268394470215" lon="9.35861349105835">
        <ele>1639.665771484375</ele>
        <time>2006-07-29T10:43:03Z</time>
      </trkpt>
      <trkpt lat="46.093204021453857" lon="9.358420372009277">
        <ele>1640.146484375</ele>
        <time>2006-07-29T10:43:21Z</time>
      </trkpt>
      <trkpt lat="46.093182563781738" lon="9.358205795288086">
        <ele>1640.146484375</ele>
        <time>2006-07-29T10:43:45Z</time>
      </trkpt>
      <trkpt lat="46.093225479125977" lon="9.358141422271729">
        <ele>1640.146484375</ele>
        <time>2006-07-29T10:43:57Z</time>
      </trkpt>
      <trkpt lat="46.093246936798096" lon="9.35809850692749">
        <ele>1643.0302734375</ele>
        <time>2006-07-29T10:44:42Z</time>
      </trkpt>
      <trkpt lat="46.093118190765381" lon="9.357969760894775">
        <ele>1643.0302734375</ele>
        <time>2006-07-29T10:45:18Z</time>
      </trkpt>
      <trkpt lat="46.092946529388428" lon="9.358034133911133">
        <ele>1645.433837890625</ele>
        <time>2006-07-29T10:45:36Z</time>
      </trkpt>
      <trkpt lat="46.092860698699951" lon="9.358077049255371">
        <ele>1646.875732421875</ele>
        <time>2006-07-29T10:45:47Z</time>
      </trkpt>
      <trkpt lat="46.092731952667236" lon="9.358184337615967">
        <ele>1659.853271484375</ele>
        <time>2006-07-29T10:46:45Z</time>
      </trkpt>
      <trkpt lat="46.092624664306641" lon="9.358162879943848">
        <ele>1659.372802734375</ele>
        <time>2006-07-29T10:46:52Z</time>
      </trkpt>
      <trkpt lat="46.092774868011475" lon="9.357841014862061">
        <ele>1659.853271484375</ele>
        <time>2006-07-29T10:47:30Z</time>
      </trkpt>
      <trkpt lat="46.092774868011475" lon="9.357776641845703">
        <ele>1659.853271484375</ele>
        <time>2006-07-29T10:47:45Z</time>
      </trkpt>
      <trkpt lat="46.092731952667236" lon="9.357733726501465">
        <ele>1659.853271484375</ele>
        <time>2006-07-29T10:48:01Z</time>
      </trkpt>
      <trkpt lat="46.092689037322998" lon="9.357776641845703">
        <ele>1663.69873046875</ele>
        <time>2006-07-29T10:48:11Z</time>
      </trkpt>
      <trkpt lat="46.092624664306641" lon="9.357755184173584">
        <ele>1663.69873046875</ele>
        <time>2006-07-29T10:48:20Z</time>
      </trkpt>
      <trkpt lat="46.092560291290283" lon="9.357647895812988">
        <ele>1664.179443359375</ele>
        <time>2006-07-29T10:48:28Z</time>
      </trkpt>
      <trkpt lat="46.092538833618164" lon="9.357647895812988">
        <ele>1665.62158203125</ele>
        <time>2006-07-29T10:48:38Z</time>
      </trkpt>
      <trkpt lat="46.092453002929688" lon="9.357583522796631">
        <ele>1669.947265625</ele>
        <time>2006-07-29T10:48:46Z</time>
      </trkpt>
      <trkpt lat="46.09238862991333" lon="9.357497692108154">
        <ele>1672.3505859375</ele>
        <time>2006-07-29T10:48:55Z</time>
      </trkpt>
      <trkpt lat="46.09238862991333" lon="9.357476234436035">
        <ele>1674.75390625</ele>
        <time>2006-07-29T10:49:08Z</time>
      </trkpt>
      <trkpt lat="46.092538833618164" lon="9.357283115386963">
        <ele>1674.75390625</ele>
        <time>2006-07-29T10:49:40Z</time>
      </trkpt>
      <trkpt lat="46.092495918273926" lon="9.357240200042725">
        <ele>1674.75390625</ele>
        <time>2006-07-29T10:49:53Z</time>
      </trkpt>
      <trkpt lat="46.092431545257568" lon="9.357240200042725">
        <ele>1674.75390625</ele>
        <time>2006-07-29T10:49:58Z</time>
      </trkpt>
      <trkpt lat="46.092302799224854" lon="9.357197284698486">
        <ele>1674.75390625</ele>
        <time>2006-07-29T10:50:11Z</time>
      </trkpt>
      <trkpt lat="46.092216968536377" lon="9.357154369354248">
        <ele>1674.75390625</ele>
        <time>2006-07-29T10:50:21Z</time>
      </trkpt>
      <trkpt lat="46.09215259552002" lon="9.357047080993652">
        <ele>1675.715087890625</ele>
        <time>2006-07-29T10:50:34Z</time>
      </trkpt>
      <trkpt lat="46.092088222503662" lon="9.356982707977295">
        <ele>1677.637939453125</ele>
        <time>2006-07-29T10:50:43Z</time>
      </trkpt>
      <trkpt lat="46.092066764831543" lon="9.356896877288818">
        <ele>1678.11865234375</ele>
        <time>2006-07-29T10:50:50Z</time>
      </trkpt>
      <trkpt lat="46.092023849487305" lon="9.356832504272461">
        <ele>1681.002685546875</ele>
        <time>2006-07-29T10:50:58Z</time>
      </trkpt>
      <trkpt lat="46.091938018798828" lon="9.356746673583984">
        <ele>1681.483154296875</ele>
        <time>2006-07-29T10:51:07Z</time>
      </trkpt>
      <trkpt lat="46.09189510345459" lon="9.356682300567627">
        <ele>1680.041259765625</ele>
        <time>2006-07-29T10:51:18Z</time>
      </trkpt>
      <trkpt lat="46.091852188110352" lon="9.356639385223389">
        <ele>1680.52197265625</ele>
        <time>2006-07-29T10:51:25Z</time>
      </trkpt>
      <trkpt lat="46.091852188110352" lon="9.356575012207031">
        <ele>1681.483154296875</ele>
        <time>2006-07-29T10:51:32Z</time>
      </trkpt>
      <trkpt lat="46.091830730438232" lon="9.356467723846436">
        <ele>1683.40576171875</ele>
        <time>2006-07-29T10:51:42Z</time>
      </trkpt>
      <trkpt lat="46.091766357421875" lon="9.35636043548584">
        <ele>1683.40576171875</ele>
        <time>2006-07-29T10:51:55Z</time>
      </trkpt>
      <trkpt lat="46.091787815093994" lon="9.356381893157959">
        <ele>1686.289794921875</ele>
        <time>2006-07-29T10:52:09Z</time>
      </trkpt>
      <trkpt lat="46.091787815093994" lon="9.356317520141602">
        <ele>1689.173583984375</ele>
        <time>2006-07-29T10:52:24Z</time>
      </trkpt>
      <trkpt lat="46.091766357421875" lon="9.356274604797363">
        <ele>1692.53857421875</ele>
        <time>2006-07-29T10:52:33Z</time>
      </trkpt>
      <trkpt lat="46.091744899749756" lon="9.356231689453125">
        <ele>1693.01904296875</ele>
        <time>2006-07-29T10:52:42Z</time>
      </trkpt>
      <trkpt lat="46.09163761138916" lon="9.356167316436768">
        <ele>1694.941650390625</ele>
        <time>2006-07-29T10:53:01Z</time>
      </trkpt>
      <trkpt lat="46.091594696044922" lon="9.356124401092529">
        <ele>1696.3837890625</ele>
        <time>2006-07-29T10:53:09Z</time>
      </trkpt>
      <trkpt lat="46.091551780700684" lon="9.356060028076172">
        <ele>1696.8642578125</ele>
        <time>2006-07-29T10:53:16Z</time>
      </trkpt>
      <trkpt lat="46.091530323028564" lon="9.356038570404053">
        <ele>1694.4609375</ele>
        <time>2006-07-29T10:53:24Z</time>
      </trkpt>
      <trkpt lat="46.091487407684326" lon="9.355974197387695">
        <ele>1694.941650390625</ele>
        <time>2006-07-29T10:53:32Z</time>
      </trkpt>
      <trkpt lat="46.091487407684326" lon="9.355974197387695">
        <ele>1695.42236328125</ele>
        <time>2006-07-29T10:53:33Z</time>
      </trkpt>
      <trkpt lat="46.091444492340088" lon="9.355845451354981">
        <ele>1694.4609375</ele>
        <time>2006-07-29T10:53:43Z</time>
      </trkpt>
      <trkpt lat="46.09140157699585" lon="9.355759620666504">
        <ele>1696.8642578125</ele>
        <time>2006-07-29T10:53:50Z</time>
      </trkpt>
      <trkpt lat="46.09140157699585" lon="9.355759620666504">
        <ele>1696.8642578125</ele>
        <time>2006-07-29T10:53:52Z</time>
      </trkpt>
      <trkpt lat="46.091337203979492" lon="9.355716705322266">
        <ele>1699.267578125</ele>
        <time>2006-07-29T10:54:03Z</time>
      </trkpt>
      <trkpt lat="46.091337203979492" lon="9.355673789978027">
        <ele>1700.70947265625</ele>
        <time>2006-07-29T10:54:12Z</time>
      </trkpt>
      <trkpt lat="46.091315746307373" lon="9.355652332305908">
        <ele>1703.11279296875</ele>
        <time>2006-07-29T10:54:22Z</time>
      </trkpt>
      <trkpt lat="46.091294288635254" lon="9.35560941696167">
        <ele>1706.477294921875</ele>
        <time>2006-07-29T10:54:29Z</time>
      </trkpt>
      <trkpt lat="46.091272830963135" lon="9.355566501617432">
        <ele>1708.880859375</ele>
        <time>2006-07-29T10:54:36Z</time>
      </trkpt>
      <trkpt lat="46.091208457946777" lon="9.355502128601074">
        <ele>1710.803466796875</ele>
        <time>2006-07-29T10:54:45Z</time>
      </trkpt>
      <trkpt lat="46.091187000274658" lon="9.355502128601074">
        <ele>1712.245361328125</ele>
        <time>2006-07-29T10:54:52Z</time>
      </trkpt>
      <trkpt lat="46.091101169586182" lon="9.355373382568359">
        <ele>1711.764892578125</ele>
        <time>2006-07-29T10:54:58Z</time>
      </trkpt>
      <trkpt lat="46.091079711914063" lon="9.35535192489624">
        <ele>1712.245361328125</ele>
        <time>2006-07-29T10:55:04Z</time>
      </trkpt>
      <trkpt lat="46.091101169586182" lon="9.355330467224121">
        <ele>1709.361572265625</ele>
        <time>2006-07-29T10:55:42Z</time>
      </trkpt>
      <trkpt lat="46.09114408493042" lon="9.355330467224121">
        <ele>1709.361572265625</ele>
        <time>2006-07-29T10:57:12Z</time>
      </trkpt>
      <trkpt lat="46.09114408493042" lon="9.35535192489624">
        <ele>1709.361572265625</ele>
        <time>2006-07-29T10:57:30Z</time>
      </trkpt>
      <trkpt lat="46.091165542602539" lon="9.35535192489624">
        <ele>1709.361572265625</ele>
        <time>2006-07-29T10:57:47Z</time>
      </trkpt>
      <trkpt lat="46.091079711914063" lon="9.355416297912598">
        <ele>1714.648681640625</ele>
        <time>2006-07-29T11:02:14Z</time>
      </trkpt>
      <trkpt lat="46.091079711914063" lon="9.355416297912598">
        <ele>1712.245361328125</ele>
        <time>2006-07-29T11:02:27Z</time>
      </trkpt>
      <trkpt lat="46.09114408493042" lon="9.355330467224121">
        <ele>1705.51611328125</ele>
        <time>2006-07-29T11:02:33Z</time>
      </trkpt>
      <trkpt lat="46.09114408493042" lon="9.355373382568359">
        <ele>1708.400146484375</ele>
        <time>2006-07-29T11:02:59Z</time>
      </trkpt>
      <trkpt lat="46.09114408493042" lon="9.355373382568359">
        <ele>1709.842041015625</ele>
        <time>2006-07-29T11:03:13Z</time>
      </trkpt>
      <trkpt lat="46.091122627258301" lon="9.355373382568359">
        <ele>1711.764892578125</ele>
        <time>2006-07-29T11:03:40Z</time>
      </trkpt>
      <trkpt lat="46.091122627258301" lon="9.355373382568359">
        <ele>1706.9580078125</ele>
        <time>2006-07-29T11:06:50Z</time>
      </trkpt>
      <trkpt lat="46.091079711914063" lon="9.355309009552002">
        <ele>1715.610107421875</ele>
        <time>2006-07-29T11:07:23Z</time>
      </trkpt>
      <trkpt lat="46.091101169586182" lon="9.355330467224121">
        <ele>1713.687255859375</ele>
        <time>2006-07-29T11:08:51Z</time>
      </trkpt>
      <trkpt lat="46.091122627258301" lon="9.355394840240479">
        <ele>1713.687255859375</ele>
        <time>2006-07-29T11:09:04Z</time>
      </trkpt>
      <trkpt lat="46.091444492340088" lon="9.355952739715576">
        <ele>1713.687255859375</ele>
        <time>2006-07-29T11:09:15Z</time>
      </trkpt>
      <trkpt lat="46.091358661651611" lon="9.356038570404053">
        <ele>1713.687255859375</ele>
        <time>2006-07-29T11:09:23Z</time>
      </trkpt>
      <trkpt lat="46.09114408493042" lon="9.356338977813721">
        <ele>1717.052001953125</ele>
        <time>2006-07-29T11:10:06Z</time>
      </trkpt>
      <trkpt lat="46.091916561126709" lon="9.357240200042725">
        <ele>1707.91943359375</ele>
        <time>2006-07-29T11:10:20Z</time>
      </trkpt>
      <trkpt lat="46.092066764831543" lon="9.35711145401001">
        <ele>1705.99658203125</ele>
        <time>2006-07-29T11:10:25Z</time>
      </trkpt>
      <trkpt lat="46.092109680175781" lon="9.35711145401001">
        <ele>1689.654296875</ele>
        <time>2006-07-29T11:11:27Z</time>
      </trkpt>
      <trkpt lat="46.092345714569092" lon="9.35736894607544">
        <ele>1672.3505859375</ele>
        <time>2006-07-29T11:15:11Z</time>
      </trkpt>
      <trkpt lat="46.092238426208496" lon="9.357454776763916">
        <ele>1672.3505859375</ele>
        <time>2006-07-29T11:15:15Z</time>
      </trkpt>
      <trkpt lat="46.092216968536377" lon="9.357476234436035">
        <ele>1672.3505859375</ele>
        <time>2006-07-29T11:15:16Z</time>
      </trkpt>
      <trkpt lat="46.092324256896973" lon="9.357776641845703">
        <ele>1672.3505859375</ele>
        <time>2006-07-29T11:15:23Z</time>
      </trkpt>
      <trkpt lat="46.092431545257568" lon="9.357733726501465">
        <ele>1672.3505859375</ele>
        <time>2006-07-29T11:15:26Z</time>
      </trkpt>
      <trkpt lat="46.092538833618164" lon="9.357755184173584">
        <ele>1672.3505859375</ele>
        <time>2006-07-29T11:15:29Z</time>
      </trkpt>
      <trkpt lat="46.092474460601807" lon="9.357905387878418">
        <ele>1672.3505859375</ele>
        <time>2006-07-29T11:15:32Z</time>
      </trkpt>
      <trkpt lat="46.09238862991333" lon="9.358270168304443">
        <ele>1672.3505859375</ele>
        <time>2006-07-29T11:15:37Z</time>
      </trkpt>
      <trkpt lat="46.092453002929688" lon="9.358377456665039">
        <ele>1672.3505859375</ele>
        <time>2006-07-29T11:15:40Z</time>
      </trkpt>
      <trkpt lat="46.092731952667236" lon="9.358141422271729">
        <ele>1672.3505859375</ele>
        <time>2006-07-29T11:15:47Z</time>
      </trkpt>
      <trkpt lat="46.092903614044189" lon="9.358227252960205">
        <ele>1672.3505859375</ele>
        <time>2006-07-29T11:15:52Z</time>
      </trkpt>
      <trkpt lat="46.092967987060547" lon="9.358377456665039">
        <ele>1672.3505859375</ele>
        <time>2006-07-29T11:15:56Z</time>
      </trkpt>
      <trkpt lat="46.092989444732666" lon="9.358592033386231">
        <ele>1672.3505859375</ele>
        <time>2006-07-29T11:16:04Z</time>
      </trkpt>
      <trkpt lat="46.093032360076904" lon="9.358742237091065">
        <ele>1671.869873046875</ele>
        <time>2006-07-29T11:16:11Z</time>
      </trkpt>
      <trkpt lat="46.093096733093262" lon="9.358828067779541">
        <ele>1670.427978515625</ele>
        <time>2006-07-29T11:16:14Z</time>
      </trkpt>
      <trkpt lat="46.093032360076904" lon="9.358913898468018">
        <ele>1668.024658203125</ele>
        <time>2006-07-29T11:16:18Z</time>
      </trkpt>
      <trkpt lat="46.09264612197876" lon="9.35884952545166">
        <ele>1668.024658203125</ele>
        <time>2006-07-29T11:16:27Z</time>
      </trkpt>
      <trkpt lat="46.091423034667969" lon="9.35861349105835">
        <ele>1668.024658203125</ele>
        <time>2006-07-29T11:16:53Z</time>
      </trkpt>
      <trkpt lat="46.091723442077637" lon="9.358398914337158">
        <ele>1647.837158203125</ele>
        <time>2006-07-29T11:23:36Z</time>
      </trkpt>
      <trkpt lat="46.097409725189209" lon="9.366488456726074">
        <ele>1624.765380859375</ele>
        <time>2006-07-29T11:24:36Z</time>
      </trkpt>
      <trkpt lat="46.096014976501465" lon="9.367904663085938">
        <ele>1624.765380859375</ele>
        <time>2006-07-29T11:24:45Z</time>
      </trkpt>
      <trkpt lat="46.096272468566895" lon="9.367003440856934">
        <ele>1528.633544921875</ele>
        <time>2006-07-29T13:17:55Z</time>
      </trkpt>
      <trkpt lat="46.096508502960205" lon="9.366531372070313">
        <ele>1457.015380859375</ele>
        <time>2006-07-29T13:20:02Z</time>
      </trkpt>
      <trkpt lat="46.096594333648682" lon="9.366359710693359">
        <ele>1457.015380859375</ele>
        <time>2006-07-29T13:20:15Z</time>
      </trkpt>
      <trkpt lat="46.096808910369873" lon="9.365930557250977">
        <ele>1452.689453125</ele>
        <time>2006-07-29T13:20:26Z</time>
      </trkpt>
      <trkpt lat="46.096937656402588" lon="9.365715980529785">
        <ele>1450.7666015625</ele>
        <time>2006-07-29T13:20:34Z</time>
      </trkpt>
      <trkpt lat="46.097002029418945" lon="9.365565776824951">
        <ele>1450.2861328125</ele>
        <time>2006-07-29T13:20:39Z</time>
      </trkpt>
      <trkpt lat="46.097023487091064" lon="9.365394115447998">
        <ele>1450.2861328125</ele>
        <time>2006-07-29T13:20:46Z</time>
      </trkpt>
      <trkpt lat="46.097087860107422" lon="9.365050792694092">
        <ele>1457.976806640625</ele>
        <time>2006-07-29T13:21:41Z</time>
      </trkpt>
      <trkpt lat="46.097152233123779" lon="9.365007877349854">
        <ele>1452.689453125</ele>
        <time>2006-07-29T13:22:32Z</time>
      </trkpt>
      <trkpt lat="46.097173690795898" lon="9.364686012268066">
        <ele>1452.208740234375</ele>
        <time>2006-07-29T13:22:44Z</time>
      </trkpt>
      <trkpt lat="46.097216606140137" lon="9.364235401153565">
        <ele>1451.72802734375</ele>
        <time>2006-07-29T13:23:05Z</time>
      </trkpt>
      <trkpt lat="46.097216606140137" lon="9.362368583679199">
        <ele>1459.418701171875</ele>
        <time>2006-07-29T13:24:44Z</time>
      </trkpt>
      <trkpt lat="46.097860336303711" lon="9.360866546630859">
        <ele>1452.208740234375</ele>
        <time>2006-07-29T13:24:51Z</time>
      </trkpt>
      <trkpt lat="46.097860336303711" lon="9.360866546630859">
        <ele>1452.208740234375</ele>
        <time>2006-07-29T13:24:56Z</time>
      </trkpt>
      <trkpt lat="46.097967624664307" lon="9.360308647155762">
        <ele>1445.4794921875</ele>
        <time>2006-07-29T13:25:26Z</time>
      </trkpt>
      <trkpt lat="46.097924709320068" lon="9.359900951385498">
        <ele>1442.595703125</ele>
        <time>2006-07-29T13:26:01Z</time>
      </trkpt>
      <trkpt lat="46.098031997680664" lon="9.35960054397583">
        <ele>1440.6728515625</ele>
        <time>2006-07-29T13:26:26Z</time>
      </trkpt>
      <trkpt lat="46.098074913024902" lon="9.3593430519104">
        <ele>1440.1923828125</ele>
        <time>2006-07-29T13:26:48Z</time>
      </trkpt>
      <trkpt lat="46.098031997680664" lon="9.35910701751709">
        <ele>1436.82763671875</ele>
        <time>2006-07-29T13:27:11Z</time>
      </trkpt>
      <trkpt lat="46.097946166992188" lon="9.358763694763184">
        <ele>1434.42431640625</ele>
        <time>2006-07-29T13:27:36Z</time>
      </trkpt>
      <trkpt lat="46.097860336303711" lon="9.358677864074707">
        <ele>1431.540283203125</ele>
        <time>2006-07-29T13:27:51Z</time>
      </trkpt>
      <trkpt lat="46.09764575958252" lon="9.358742237091065">
        <ele>1421.446533203125</ele>
        <time>2006-07-29T13:28:10Z</time>
      </trkpt>
      <trkpt lat="46.097431182861328" lon="9.358742237091065">
        <ele>1415.197998046875</ele>
        <time>2006-07-29T13:28:52Z</time>
      </trkpt>
      <trkpt lat="46.097302436828613" lon="9.358699321746826">
        <ele>1407.02685546875</ele>
        <time>2006-07-29T13:35:25Z</time>
      </trkpt>
      <trkpt lat="46.097280979156494" lon="9.358634948730469">
        <ele>1409.43017578125</ele>
        <time>2006-07-29T13:35:36Z</time>
      </trkpt>
      <trkpt lat="46.097302436828613" lon="9.358570575714111">
        <ele>1407.507568359375</ele>
        <time>2006-07-29T13:35:45Z</time>
      </trkpt>
      <trkpt lat="46.097302436828613" lon="9.358484745025635">
        <ele>1407.02685546875</ele>
        <time>2006-07-29T13:35:56Z</time>
      </trkpt>
      <trkpt lat="46.097280979156494" lon="9.358420372009277">
        <ele>1407.02685546875</ele>
        <time>2006-07-29T13:36:06Z</time>
      </trkpt>
      <trkpt lat="46.097280979156494" lon="9.35835599899292">
        <ele>1404.14306640625</ele>
        <time>2006-07-29T13:36:16Z</time>
      </trkpt>
      <trkpt lat="46.097195148468018" lon="9.358248710632324">
        <ele>1402.70068359375</ele>
        <time>2006-07-29T13:36:30Z</time>
      </trkpt>
      <trkpt lat="46.09713077545166" lon="9.358162879943848">
        <ele>1401.739501953125</ele>
        <time>2006-07-29T13:36:47Z</time>
      </trkpt>
      <trkpt lat="46.097087860107422" lon="9.358077049255371">
        <ele>1400.297607421875</ele>
        <time>2006-07-29T13:36:57Z</time>
      </trkpt>
      <trkpt lat="46.097066402435303" lon="9.358012676239014">
        <ele>1399.81689453125</ele>
        <time>2006-07-29T13:37:05Z</time>
      </trkpt>
      <trkpt lat="46.097044944763184" lon="9.357991218566895">
        <ele>1398.85546875</ele>
        <time>2006-07-29T13:37:12Z</time>
      </trkpt>
      <trkpt lat="46.09689474105835" lon="9.357819557189941">
        <ele>1398.374755859375</ele>
        <time>2006-07-29T13:37:24Z</time>
      </trkpt>
      <trkpt lat="46.09687328338623" lon="9.357755184173584">
        <ele>1398.374755859375</ele>
        <time>2006-07-29T13:37:30Z</time>
      </trkpt>
      <trkpt lat="46.09687328338623" lon="9.357669353485107">
        <ele>1397.894287109375</ele>
        <time>2006-07-29T13:37:34Z</time>
      </trkpt>
      <trkpt lat="46.096830368041992" lon="9.357519149780273">
        <ele>1397.41357421875</ele>
        <time>2006-07-29T13:37:39Z</time>
      </trkpt>
      <trkpt lat="46.096808910369873" lon="9.357433319091797">
        <ele>1397.41357421875</ele>
        <time>2006-07-29T13:37:45Z</time>
      </trkpt>
      <trkpt lat="46.096787452697754" lon="9.357304573059082">
        <ele>1394.529541015625</ele>
        <time>2006-07-29T13:37:54Z</time>
      </trkpt>
      <trkpt lat="46.096787452697754" lon="9.357261657714844">
        <ele>1393.087646484375</ele>
        <time>2006-07-29T13:38:01Z</time>
      </trkpt>
      <trkpt lat="46.096765995025635" lon="9.357175827026367">
        <ele>1392.12646484375</ele>
        <time>2006-07-29T13:38:08Z</time>
      </trkpt>
      <trkpt lat="46.096765995025635" lon="9.357089996337891">
        <ele>1389.242431640625</ele>
        <time>2006-07-29T13:38:17Z</time>
      </trkpt>
      <trkpt lat="46.096765995025635" lon="9.357068538665772">
        <ele>1386.8388671875</ele>
        <time>2006-07-29T13:38:24Z</time>
      </trkpt>
      <trkpt lat="46.096787452697754" lon="9.35711145401001">
        <ele>1385.39697265625</ele>
        <time>2006-07-29T13:38:29Z</time>
      </trkpt>
      <trkpt lat="46.096830368041992" lon="9.35711145401001">
        <ele>1382.51318359375</ele>
        <time>2006-07-29T13:38:38Z</time>
      </trkpt>
      <trkpt lat="46.096808910369873" lon="9.357068538665772">
        <ele>1378.187255859375</ele>
        <time>2006-07-29T13:38:46Z</time>
      </trkpt>
      <trkpt lat="46.096787452697754" lon="9.356982707977295">
        <ele>1373.861328125</ele>
        <time>2006-07-29T13:38:55Z</time>
      </trkpt>
      <trkpt lat="46.096787452697754" lon="9.356832504272461">
        <ele>1370.015869140625</ele>
        <time>2006-07-29T13:39:06Z</time>
      </trkpt>
      <trkpt lat="46.096744537353516" lon="9.356725215911865">
        <ele>1368.09326171875</ele>
        <time>2006-07-29T13:39:16Z</time>
      </trkpt>
      <trkpt lat="46.096744537353516" lon="9.356703758239746">
        <ele>1370.49658203125</ele>
        <time>2006-07-29T13:39:29Z</time>
      </trkpt>
      <trkpt lat="46.096787452697754" lon="9.356660842895508">
        <ele>1378.66796875</ele>
        <time>2006-07-29T13:40:02Z</time>
      </trkpt>
      <trkpt lat="46.096615791320801" lon="9.35636043548584">
        <ele>1377.22607421875</ele>
        <time>2006-07-29T13:40:25Z</time>
      </trkpt>
      <trkpt lat="46.096572875976562" lon="9.356274604797363">
        <ele>1377.22607421875</ele>
        <time>2006-07-29T13:40:40Z</time>
      </trkpt>
      <trkpt lat="46.096508502960205" lon="9.356210231781006">
        <ele>1377.22607421875</ele>
        <time>2006-07-29T13:40:55Z</time>
      </trkpt>
      <trkpt lat="46.096315383911133" lon="9.355952739715576">
        <ele>1377.22607421875</ele>
        <time>2006-07-29T13:41:21Z</time>
      </trkpt>
      <trkpt lat="46.096208095550537" lon="9.355738162994385">
        <ele>1376.2646484375</ele>
        <time>2006-07-29T13:41:43Z</time>
      </trkpt>
      <trkpt lat="46.096165180206299" lon="9.35560941696167">
        <ele>1376.2646484375</ele>
        <time>2006-07-29T13:41:51Z</time>
      </trkpt>
      <trkpt lat="46.096165180206299" lon="9.35560941696167">
        <ele>1376.2646484375</ele>
        <time>2006-07-29T13:41:54Z</time>
      </trkpt>
      <trkpt lat="46.096165180206299" lon="9.355416297912598">
        <ele>1374.82275390625</ele>
        <time>2006-07-29T13:42:00Z</time>
      </trkpt>
      <trkpt lat="46.096165180206299" lon="9.355373382568359">
        <ele>1374.82275390625</ele>
        <time>2006-07-29T13:42:02Z</time>
      </trkpt>
      <trkpt lat="46.096165180206299" lon="9.355287551879883">
        <ele>1370.977294921875</ele>
        <time>2006-07-29T13:42:09Z</time>
      </trkpt>
      <trkpt lat="46.096122264862061" lon="9.355094432830811">
        <ele>1362.80615234375</ele>
        <time>2006-07-29T13:42:32Z</time>
      </trkpt>
      <trkpt lat="46.096100807189941" lon="9.355008602142334">
        <ele>1361.3642578125</ele>
        <time>2006-07-29T13:42:45Z</time>
      </trkpt>
      <trkpt lat="46.096014976501465" lon="9.354815483093262">
        <ele>1359.922119140625</ele>
        <time>2006-07-29T13:43:12Z</time>
      </trkpt>
      <trkpt lat="46.095929145812988" lon="9.35460090637207">
        <ele>1356.076904296875</ele>
        <time>2006-07-29T13:43:26Z</time>
      </trkpt>
      <trkpt lat="46.095821857452393" lon="9.35436487197876">
        <ele>1354.154296875</ele>
        <time>2006-07-29T13:43:47Z</time>
      </trkpt>
      <trkpt lat="46.095757484436035" lon="9.35410737991333">
        <ele>1354.154296875</ele>
        <time>2006-07-29T13:43:56Z</time>
      </trkpt>
      <trkpt lat="46.095736026763916" lon="9.353935718536377">
        <ele>1353.673583984375</ele>
        <time>2006-07-29T13:44:05Z</time>
      </trkpt>
      <trkpt lat="46.095671653747559" lon="9.353463649749756">
        <ele>1353.673583984375</ele>
        <time>2006-07-29T13:44:26Z</time>
      </trkpt>
      <trkpt lat="46.09562873840332" lon="9.353291988372803">
        <ele>1355.115478515625</ele>
        <time>2006-07-29T13:44:37Z</time>
      </trkpt>
      <trkpt lat="46.095478534698486" lon="9.353163242340088">
        <ele>1355.115478515625</ele>
        <time>2006-07-29T13:45:24Z</time>
      </trkpt>
      <trkpt lat="46.095457077026367" lon="9.352734088897705">
        <ele>1352.712158203125</ele>
        <time>2006-07-29T13:45:40Z</time>
      </trkpt>
      <trkpt lat="46.095349788665771" lon="9.35236930847168">
        <ele>1350.78955078125</ele>
        <time>2006-07-29T13:45:56Z</time>
      </trkpt>
      <trkpt lat="46.095263957977295" lon="9.352240562438965">
        <ele>1349.34765625</ele>
        <time>2006-07-29T13:46:05Z</time>
      </trkpt>
      <trkpt lat="46.095349788665771" lon="9.35185432434082">
        <ele>1346.9443359375</ele>
        <time>2006-07-29T13:46:27Z</time>
      </trkpt>
      <trkpt lat="46.095778942108154" lon="9.349386692047119">
        <ele>1346.9443359375</ele>
        <time>2006-07-29T13:49:10Z</time>
      </trkpt>
      <trkpt lat="46.095457077026367" lon="9.348013401031494">
        <ele>1346.9443359375</ele>
        <time>2006-07-29T13:49:15Z</time>
      </trkpt>
      <trkpt lat="46.095457077026367" lon="9.348013401031494">
        <ele>1346.9443359375</ele>
        <time>2006-07-29T13:49:16Z</time>
      </trkpt>
      <trkpt lat="46.095542907714844" lon="9.347841739654541">
        <ele>1346.9443359375</ele>
        <time>2006-07-29T13:49:34Z</time>
      </trkpt>
      <trkpt lat="46.095542907714844" lon="9.347691535949707">
        <ele>1346.9443359375</ele>
        <time>2006-07-29T13:49:50Z</time>
      </trkpt>
      <trkpt lat="46.095478534698486" lon="9.347434043884277">
        <ele>1336.369873046875</ele>
        <time>2006-07-29T13:50:09Z</time>
      </trkpt>
      <trkpt lat="46.09539270401001" lon="9.347240924835205">
        <ele>1325.314697265625</ele>
        <time>2006-07-29T13:50:24Z</time>
      </trkpt>
      <trkpt lat="46.09539270401001" lon="9.347155094146729">
        <ele>1320.98876953125</ele>
        <time>2006-07-29T13:50:33Z</time>
      </trkpt>
      <trkpt lat="46.09539270401001" lon="9.347133636474609">
        <ele>1319.546875</ele>
        <time>2006-07-29T13:50:35Z</time>
      </trkpt>
      <trkpt lat="46.09539270401001" lon="9.34711217880249">
        <ele>1319.066162109375</ele>
        <time>2006-07-29T13:50:37Z</time>
      </trkpt>
      <trkpt lat="46.09539270401001" lon="9.347069263458252">
        <ele>1319.066162109375</ele>
        <time>2006-07-29T13:50:42Z</time>
      </trkpt>
      <trkpt lat="46.095564365386963" lon="9.346940517425537">
        <ele>1316.18212890625</ele>
        <time>2006-07-29T13:50:48Z</time>
      </trkpt>
      <trkpt lat="46.096057891845703" lon="9.346232414245606">
        <ele>1315.70166015625</ele>
        <time>2006-07-29T13:53:29Z</time>
      </trkpt>
      <trkpt lat="46.096036434173584" lon="9.346232414245606">
        <ele>1258.5029296875</ele>
        <time>2006-07-29T13:53:34Z</time>
      </trkpt>
      <trkpt lat="46.096122264862061" lon="9.346168041229248">
        <ele>1262.348388671875</ele>
        <time>2006-07-29T13:53:38Z</time>
      </trkpt>
      <trkpt lat="46.096251010894775" lon="9.346060752868652">
        <ele>1257.541748046875</ele>
        <time>2006-07-29T13:53:47Z</time>
      </trkpt>
      <trkpt lat="46.096444129943848" lon="9.34612512588501">
        <ele>1256.580322265625</ele>
        <time>2006-07-29T13:53:57Z</time>
      </trkpt>
      <trkpt lat="46.096658706665039" lon="9.346253871917725">
        <ele>1256.099609375</ele>
        <time>2006-07-29T13:54:14Z</time>
      </trkpt>
      <trkpt lat="46.096808910369873" lon="9.346489906311035">
        <ele>1255.619140625</ele>
        <time>2006-07-29T13:54:29Z</time>
      </trkpt>
      <trkpt lat="46.096851825714111" lon="9.346661567687988">
        <ele>1255.138427734375</ele>
        <time>2006-07-29T13:54:41Z</time>
      </trkpt>
      <trkpt lat="46.09689474105835" lon="9.346554279327393">
        <ele>1255.619140625</ele>
        <time>2006-07-29T13:54:48Z</time>
      </trkpt>
      <trkpt lat="46.096937656402588" lon="9.34638261795044">
        <ele>1255.619140625</ele>
        <time>2006-07-29T13:54:55Z</time>
      </trkpt>
      <trkpt lat="46.097023487091064" lon="9.345932006835938">
        <ele>1255.619140625</ele>
        <time>2006-07-29T13:55:10Z</time>
      </trkpt>
      <trkpt lat="46.097023487091064" lon="9.345738887786865">
        <ele>1255.138427734375</ele>
        <time>2006-07-29T13:55:16Z</time>
      </trkpt>
      <trkpt lat="46.097044944763184" lon="9.345502853393555">
        <ele>1255.138427734375</ele>
        <time>2006-07-29T13:55:21Z</time>
      </trkpt>
      <trkpt lat="46.097066402435303" lon="9.345352649688721">
        <ele>1254.65771484375</ele>
        <time>2006-07-29T13:55:28Z</time>
      </trkpt>
      <trkpt lat="46.097087860107422" lon="9.345245361328125">
        <ele>1253.696533203125</ele>
        <time>2006-07-29T13:55:34Z</time>
      </trkpt>
      <trkpt lat="46.097109317779541" lon="9.345095157623291">
        <ele>1253.2158203125</ele>
        <time>2006-07-29T13:55:40Z</time>
      </trkpt>
      <trkpt lat="46.09713077545166" lon="9.345009326934815">
        <ele>1253.2158203125</ele>
        <time>2006-07-29T13:55:44Z</time>
      </trkpt>
      <trkpt lat="46.097152233123779" lon="9.344751834869385">
        <ele>1252.735107421875</ele>
        <time>2006-07-29T13:55:52Z</time>
      </trkpt>
      <trkpt lat="46.097173690795898" lon="9.34462308883667">
        <ele>1251.77392578125</ele>
        <time>2006-07-29T13:55:59Z</time>
      </trkpt>
      <trkpt lat="46.097216606140137" lon="9.344451427459717">
        <ele>1250.33203125</ele>
        <time>2006-07-29T13:56:05Z</time>
      </trkpt>
      <trkpt lat="46.097302436828613" lon="9.344108104705811">
        <ele>1248.889892578125</ele>
        <time>2006-07-29T13:56:15Z</time>
      </trkpt>
      <trkpt lat="46.097431182861328" lon="9.343786239624023">
        <ele>1245.525390625</ele>
        <time>2006-07-29T13:56:27Z</time>
      </trkpt>
      <trkpt lat="46.097517013549805" lon="9.343528747558594">
        <ele>1245.044677734375</ele>
        <time>2006-07-29T13:56:36Z</time>
      </trkpt>
      <trkpt lat="46.097517013549805" lon="9.343185424804688">
        <ele>1243.6025390625</ele>
        <time>2006-07-29T13:56:45Z</time>
      </trkpt>
      <trkpt lat="46.097302436828613" lon="9.342992305755615">
        <ele>1240.718505859375</ele>
        <time>2006-07-29T13:56:53Z</time>
      </trkpt>
      <trkpt lat="46.097238063812256" lon="9.3428635597229">
        <ele>1235.431396484375</ele>
        <time>2006-07-29T13:57:08Z</time>
      </trkpt>
      <trkpt lat="46.097280979156494" lon="9.342584609985352">
        <ele>1233.989501953125</ele>
        <time>2006-07-29T13:57:18Z</time>
      </trkpt>
      <trkpt lat="46.097366809844971" lon="9.342048168182373">
        <ele>1234.47021484375</ele>
        <time>2006-07-29T13:57:32Z</time>
      </trkpt>
      <trkpt lat="46.097431182861328" lon="9.341576099395752">
        <ele>1233.5087890625</ele>
        <time>2006-07-29T13:57:43Z</time>
      </trkpt>
      <trkpt lat="46.097409725189209" lon="9.341511726379395">
        <ele>1233.028076171875</ele>
        <time>2006-07-29T13:57:49Z</time>
      </trkpt>
      <trkpt lat="46.097409725189209" lon="9.341468811035156">
        <ele>1232.06689453125</ele>
        <time>2006-07-29T13:57:55Z</time>
      </trkpt>
      <trkpt lat="46.097409725189209" lon="9.341447353363037">
        <ele>1230.625</ele>
        <time>2006-07-29T13:58:10Z</time>
      </trkpt>
      <trkpt lat="46.097474098205566" lon="9.341104030609131">
        <ele>1230.144287109375</ele>
        <time>2006-07-29T13:58:21Z</time>
      </trkpt>
      <trkpt lat="46.097538471221924" lon="9.340717792510986">
        <ele>1230.144287109375</ele>
        <time>2006-07-29T13:58:32Z</time>
      </trkpt>
      <trkpt lat="46.09764575958252" lon="9.340546131134033">
        <ele>1230.144287109375</ele>
        <time>2006-07-29T13:58:41Z</time>
      </trkpt>
      <trkpt lat="46.097667217254639" lon="9.340524673461914">
        <ele>1230.144287109375</ele>
        <time>2006-07-29T13:58:42Z</time>
      </trkpt>
      <trkpt lat="46.097795963287354" lon="9.340481758117676">
        <ele>1229.66357421875</ele>
        <time>2006-07-29T13:58:45Z</time>
      </trkpt>
      <trkpt lat="46.097924709320068" lon="9.340438842773438">
        <ele>1229.66357421875</ele>
        <time>2006-07-29T13:58:47Z</time>
      </trkpt>
      <trkpt lat="46.098160743713379" lon="9.34037446975708">
        <ele>1229.66357421875</ele>
        <time>2006-07-29T13:58:52Z</time>
      </trkpt>
      <trkpt lat="46.098482608795166" lon="9.340438842773438">
        <ele>1229.66357421875</ele>
        <time>2006-07-29T13:59:01Z</time>
      </trkpt>
      <trkpt lat="46.098546981811523" lon="9.340460300445557">
        <ele>1229.66357421875</ele>
        <time>2006-07-29T13:59:06Z</time>
      </trkpt>
      <trkpt lat="46.098568439483643" lon="9.340460300445557">
        <ele>1228.2216796875</ele>
        <time>2006-07-29T13:59:11Z</time>
      </trkpt>
      <trkpt lat="46.098568439483643" lon="9.340460300445557">
        <ele>1228.2216796875</ele>
        <time>2006-07-29T13:59:18Z</time>
      </trkpt>
      <trkpt lat="46.098589897155762" lon="9.340460300445557">
        <ele>1228.2216796875</ele>
        <time>2006-07-29T13:59:26Z</time>
      </trkpt>
      <trkpt lat="46.098761558532715" lon="9.340567588806152">
        <ele>1227.74072265625</ele>
        <time>2006-07-29T13:59:38Z</time>
      </trkpt>
      <trkpt lat="46.098868846893311" lon="9.340696334838867">
        <ele>1227.74072265625</ele>
        <time>2006-07-29T13:59:45Z</time>
      </trkpt>
      <trkpt lat="46.098976135253906" lon="9.341104030609131">
        <ele>1227.74072265625</ele>
        <time>2006-07-29T14:00:04Z</time>
      </trkpt>
      <trkpt lat="46.099083423614502" lon="9.341511726379395">
        <ele>1227.26025390625</ele>
        <time>2006-07-29T14:00:18Z</time>
      </trkpt>
      <trkpt lat="46.099233627319336" lon="9.34213399887085">
        <ele>1167.177978515625</ele>
        <time>2006-07-29T14:00:39Z</time>
      </trkpt>
      <trkpt lat="46.099298000335693" lon="9.34288501739502">
        <ele>1167.177978515625</ele>
        <time>2006-07-29T14:01:04Z</time>
      </trkpt>
      <trkpt lat="46.099233627319336" lon="9.343035221099854">
        <ele>1167.658447265625</ele>
        <time>2006-07-29T14:01:12Z</time>
      </trkpt>
      <trkpt lat="46.09889030456543" lon="9.343228340148926">
        <ele>1167.658447265625</ele>
        <time>2006-07-29T14:01:17Z</time>
      </trkpt>
      <trkpt lat="46.098804473876953" lon="9.343464374542236">
        <ele>1167.658447265625</ele>
        <time>2006-07-29T14:01:31Z</time>
      </trkpt>
      <trkpt lat="46.098761558532715" lon="9.343678951263428">
        <ele>1167.658447265625</ele>
        <time>2006-07-29T14:01:43Z</time>
      </trkpt>
      <trkpt lat="46.098761558532715" lon="9.343829154968262">
        <ele>1169.581298828125</ele>
        <time>2006-07-29T14:01:53Z</time>
      </trkpt>
      <trkpt lat="46.098761558532715" lon="9.343914985656738">
        <ele>1169.1005859375</ele>
        <time>2006-07-29T14:01:58Z</time>
      </trkpt>
      <trkpt lat="46.098783016204834" lon="9.343957901000977">
        <ele>1169.581298828125</ele>
        <time>2006-07-29T14:02:02Z</time>
      </trkpt>
      <trkpt lat="46.098718643188477" lon="9.344193935394287">
        <ele>1169.581298828125</ele>
        <time>2006-07-29T14:02:11Z</time>
      </trkpt>
      <trkpt lat="46.098589897155762" lon="9.344601631164551">
        <ele>1169.581298828125</ele>
        <time>2006-07-29T14:02:23Z</time>
      </trkpt>
      <trkpt lat="46.098546981811523" lon="9.344944953918457">
        <ele>1168.13916015625</ele>
        <time>2006-07-29T14:02:33Z</time>
      </trkpt>
      <trkpt lat="46.098546981811523" lon="9.345138072967529">
        <ele>1164.2939453125</ele>
        <time>2006-07-29T14:02:41Z</time>
      </trkpt>
      <trkpt lat="46.098568439483643" lon="9.34537410736084">
        <ele>1157.083984375</ele>
        <time>2006-07-29T14:02:52Z</time>
      </trkpt>
      <trkpt lat="46.098589897155762" lon="9.345459938049316">
        <ele>1155.64208984375</ele>
        <time>2006-07-29T14:02:57Z</time>
      </trkpt>
      <trkpt lat="46.098568439483643" lon="9.345545768737793">
        <ele>1152.27734375</ele>
        <time>2006-07-29T14:03:06Z</time>
      </trkpt>
      <trkpt lat="46.098568439483643" lon="9.34563159942627">
        <ele>1151.796875</ele>
        <time>2006-07-29T14:03:15Z</time>
      </trkpt>
      <trkpt lat="46.098611354827881" lon="9.345653057098389">
        <ele>1149.3935546875</ele>
        <time>2006-07-29T14:03:22Z</time>
      </trkpt>
      <trkpt lat="46.098589897155762" lon="9.345738887786865">
        <ele>1147.470703125</ele>
        <time>2006-07-29T14:03:28Z</time>
      </trkpt>
      <trkpt lat="46.0986328125" lon="9.345824718475342">
        <ele>1141.22216796875</ele>
        <time>2006-07-29T14:03:42Z</time>
      </trkpt>
      <trkpt lat="46.0986328125" lon="9.345953464508057">
        <ele>1137.857666015625</ele>
        <time>2006-07-29T14:03:52Z</time>
      </trkpt>
      <trkpt lat="46.098611354827881" lon="9.345953464508057">
        <ele>1137.857666015625</ele>
        <time>2006-07-29T14:03:53Z</time>
      </trkpt>
      <trkpt lat="46.098589897155762" lon="9.346039295196533">
        <ele>1137.376953125</ele>
        <time>2006-07-29T14:04:01Z</time>
      </trkpt>
      <trkpt lat="46.098589897155762" lon="9.346060752868652">
        <ele>1136.415771484375</ele>
        <time>2006-07-29T14:04:05Z</time>
      </trkpt>
      <trkpt lat="46.098568439483643" lon="9.346189498901367">
        <ele>1132.570556640625</ele>
        <time>2006-07-29T14:04:16Z</time>
      </trkpt>
      <trkpt lat="46.098525524139404" lon="9.346339702606201">
        <ele>1131.12841796875</ele>
        <time>2006-07-29T14:04:23Z</time>
      </trkpt>
      <trkpt lat="46.098439693450928" lon="9.346575736999512">
        <ele>1127.283203125</ele>
        <time>2006-07-29T14:04:32Z</time>
      </trkpt>
      <trkpt lat="46.098332405090332" lon="9.346940517425537">
        <ele>1123.91845703125</ele>
        <time>2006-07-29T14:04:46Z</time>
      </trkpt>
      <trkpt lat="46.098268032073975" lon="9.347283840179443">
        <ele>1123.43798828125</ele>
        <time>2006-07-29T14:04:55Z</time>
      </trkpt>
      <trkpt lat="46.098246574401855" lon="9.347906112670898">
        <ele>1123.91845703125</ele>
        <time>2006-07-29T14:05:09Z</time>
      </trkpt>
      <trkpt lat="46.098268032073975" lon="9.347949028015137">
        <ele>1122.957275390625</ele>
        <time>2006-07-29T14:05:12Z</time>
      </trkpt>
      <trkpt lat="46.098225116729736" lon="9.347884654998779">
        <ele>1122.4765625</ele>
        <time>2006-07-29T14:05:17Z</time>
      </trkpt>
      <trkpt lat="46.098225116729736" lon="9.34786319732666">
        <ele>1122.4765625</ele>
        <time>2006-07-29T14:05:24Z</time>
      </trkpt>
      <trkpt lat="46.098182201385498" lon="9.347841739654541">
        <ele>1121.995849609375</ele>
        <time>2006-07-29T14:05:44Z</time>
      </trkpt>
      <trkpt lat="46.098225116729736" lon="9.347841739654541">
        <ele>1121.51513671875</ele>
        <time>2006-07-29T14:06:22Z</time>
      </trkpt>
      <trkpt lat="46.098289489746094" lon="9.34786319732666">
        <ele>1121.51513671875</ele>
        <time>2006-07-29T14:06:24Z</time>
      </trkpt>
      <trkpt lat="46.098353862762451" lon="9.348163604736328">
        <ele>1121.51513671875</ele>
        <time>2006-07-29T14:06:33Z</time>
      </trkpt>
      <trkpt lat="46.098396778106689" lon="9.348485469818115">
        <ele>1121.51513671875</ele>
        <time>2006-07-29T14:06:46Z</time>
      </trkpt>
      <trkpt lat="46.098418235778809" lon="9.348549842834473">
        <ele>1121.03466796875</ele>
        <time>2006-07-29T14:06:54Z</time>
      </trkpt>
      <trkpt lat="46.098418235778809" lon="9.348785877227783">
        <ele>1121.03466796875</ele>
        <time>2006-07-29T14:07:02Z</time>
      </trkpt>
      <trkpt lat="46.098525524139404" lon="9.349322319030762">
        <ele>1120.553955078125</ele>
        <time>2006-07-29T14:07:13Z</time>
      </trkpt>
      <trkpt lat="46.098718643188477" lon="9.349880218505859">
        <ele>1120.0732421875</ele>
        <time>2006-07-29T14:07:22Z</time>
      </trkpt>
      <trkpt lat="46.098783016204834" lon="9.350008964538574">
        <ele>1120.0732421875</ele>
        <time>2006-07-29T14:07:27Z</time>
      </trkpt>
      <trkpt lat="46.098783016204834" lon="9.350244998931885">
        <ele>1114.30517578125</ele>
        <time>2006-07-29T14:07:57Z</time>
      </trkpt>
      <trkpt lat="46.098847389221191" lon="9.350352287292481">
        <ele>1112.86328125</ele>
        <time>2006-07-29T14:08:08Z</time>
      </trkpt>
      <trkpt lat="46.098997592926025" lon="9.350352287292481">
        <ele>1111.42138671875</ele>
        <time>2006-07-29T14:08:13Z</time>
      </trkpt>
      <trkpt lat="46.099083423614502" lon="9.350416660308838">
        <ele>1109.979248046875</ele>
        <time>2006-07-29T14:08:15Z</time>
      </trkpt>
      <trkpt lat="46.099469661712646" lon="9.350566864013672">
        <ele>1108.056884765625</ele>
        <time>2006-07-29T14:08:23Z</time>
      </trkpt>
      <trkpt lat="46.099555492401123" lon="9.350631237030029">
        <ele>1107.095458984375</ele>
        <time>2006-07-29T14:08:25Z</time>
      </trkpt>
      <trkpt lat="46.099727153778076" lon="9.350802898406982">
        <ele>1105.653564453125</ele>
        <time>2006-07-29T14:08:31Z</time>
      </trkpt>
      <trkpt lat="46.099834442138672" lon="9.351060390472412">
        <ele>1105.653564453125</ele>
        <time>2006-07-29T14:08:37Z</time>
      </trkpt>
      <trkpt lat="46.100070476531982" lon="9.351532459259033">
        <ele>1105.1728515625</ele>
        <time>2006-07-29T14:08:46Z</time>
      </trkpt>
      <trkpt lat="46.100263595581055" lon="9.352197647094727">
        <ele>1103.73095703125</ele>
        <time>2006-07-29T14:08:56Z</time>
      </trkpt>
      <trkpt lat="46.10039234161377" lon="9.352648258209229">
        <ele>1103.73095703125</ele>
        <time>2006-07-29T14:09:02Z</time>
      </trkpt>
      <trkpt lat="46.100456714630127" lon="9.35286283493042">
        <ele>1102.76953125</ele>
        <time>2006-07-29T14:09:05Z</time>
      </trkpt>
      <trkpt lat="46.10039234161377" lon="9.353098869323731">
        <ele>1102.76953125</ele>
        <time>2006-07-29T14:09:08Z</time>
      </trkpt>
      <trkpt lat="46.10039234161377" lon="9.353399276733398">
        <ele>1102.288818359375</ele>
        <time>2006-07-29T14:09:12Z</time>
      </trkpt>
      <trkpt lat="46.100456714630127" lon="9.353699684143066">
        <ele>1102.288818359375</ele>
        <time>2006-07-29T14:09:20Z</time>
      </trkpt>
      <trkpt lat="46.100606918334961" lon="9.354021549224854">
        <ele>1101.808349609375</ele>
        <time>2006-07-29T14:09:33Z</time>
      </trkpt>
      <trkpt lat="46.100692749023438" lon="9.354150295257568">
        <ele>1101.808349609375</ele>
        <time>2006-07-29T14:09:41Z</time>
      </trkpt>
      <trkpt lat="46.100714206695557" lon="9.354214668273926">
        <ele>1100.366455078125</ele>
        <time>2006-07-29T14:11:12Z</time>
      </trkpt>
      <trkpt lat="46.100778579711914" lon="9.354300498962402">
        <ele>1099.885498046875</ele>
        <time>2006-07-29T14:11:26Z</time>
      </trkpt>
      <trkpt lat="46.100735664367676" lon="9.354193210601807">
        <ele>1100.846923828125</ele>
        <time>2006-07-29T14:12:44Z</time>
      </trkpt>
      <trkpt lat="46.100606918334961" lon="9.353978633880615">
        <ele>1100.846923828125</ele>
        <time>2006-07-29T14:13:03Z</time>
      </trkpt>
      <trkpt lat="46.100521087646484" lon="9.35361385345459">
        <ele>1100.366455078125</ele>
        <time>2006-07-29T14:13:15Z</time>
      </trkpt>
      <trkpt lat="46.100521087646484" lon="9.353141784667969">
        <ele>1097.00146484375</ele>
        <time>2006-07-29T14:13:27Z</time>
      </trkpt>
      <trkpt lat="46.100456714630127" lon="9.352755546569824">
        <ele>1098.443359375</ele>
        <time>2006-07-29T14:13:39Z</time>
      </trkpt>
      <trkpt lat="46.100327968597412" lon="9.352240562438965">
        <ele>1097.482177734375</ele>
        <time>2006-07-29T14:13:52Z</time>
      </trkpt>
      <trkpt lat="46.100049018859863" lon="9.351339340209961">
        <ele>1095.078857421875</ele>
        <time>2006-07-29T14:14:15Z</time>
      </trkpt>
      <trkpt lat="46.099834442138672" lon="9.350759983062744">
        <ele>1092.195068359375</ele>
        <time>2006-07-29T14:14:27Z</time>
      </trkpt>
      <trkpt lat="46.099791526794434" lon="9.350652694702148">
        <ele>1091.71435546875</ele>
        <time>2006-07-29T14:14:29Z</time>
      </trkpt>
      <trkpt lat="46.09961986541748" lon="9.350416660308838">
        <ele>1090.2724609375</ele>
        <time>2006-07-29T14:14:38Z</time>
      </trkpt>
      <trkpt lat="46.099491119384766" lon="9.35011625289917">
        <ele>1090.2724609375</ele>
        <time>2006-07-29T14:14:52Z</time>
      </trkpt>
      <trkpt lat="46.099276542663574" lon="9.349730014801025">
        <ele>1090.2724609375</ele>
        <time>2006-07-29T14:15:06Z</time>
      </trkpt>
      <trkpt lat="46.098954677581787" lon="9.349408149719238">
        <ele>1090.2724609375</ele>
        <time>2006-07-29T14:15:21Z</time>
      </trkpt>
      <trkpt lat="46.098804473876953" lon="9.349257946014404">
        <ele>1090.2724609375</ele>
        <time>2006-07-29T14:15:29Z</time>
      </trkpt>
      <trkpt lat="46.098868846893311" lon="9.34861421585083">
        <ele>1090.2724609375</ele>
        <time>2006-07-29T14:15:39Z</time>
      </trkpt>
      <trkpt lat="46.098804473876953" lon="9.347991943359375">
        <ele>1089.31103515625</ele>
        <time>2006-07-29T14:15:52Z</time>
      </trkpt>
      <trkpt lat="46.098847389221191" lon="9.34762716293335">
        <ele>1087.388427734375</ele>
        <time>2006-07-29T14:15:59Z</time>
      </trkpt>
      <trkpt lat="46.098911762237549" lon="9.346983432769775">
        <ele>1087.388427734375</ele>
        <time>2006-07-29T14:16:12Z</time>
      </trkpt>
      <trkpt lat="46.099061965942383" lon="9.34661865234375">
        <ele>1087.388427734375</ele>
        <time>2006-07-29T14:16:21Z</time>
      </trkpt>
      <trkpt lat="46.099104881286621" lon="9.346554279327393">
        <ele>1087.388427734375</ele>
        <time>2006-07-29T14:16:26Z</time>
      </trkpt>
      <trkpt lat="46.099104881286621" lon="9.346532821655273">
        <ele>1086.42724609375</ele>
        <time>2006-07-29T14:16:29Z</time>
      </trkpt>
      <trkpt lat="46.099233627319336" lon="9.346446990966797">
        <ele>1086.42724609375</ele>
        <time>2006-07-29T14:16:36Z</time>
      </trkpt>
      <trkpt lat="46.099491119384766" lon="9.346275329589844">
        <ele>1085.4658203125</ele>
        <time>2006-07-29T14:16:45Z</time>
      </trkpt>
      <trkpt lat="46.099812984466553" lon="9.346103668212891">
        <ele>1084.9853515625</ele>
        <time>2006-07-29T14:16:56Z</time>
      </trkpt>
      <trkpt lat="46.100285053253174" lon="9.345738887786865">
        <ele>1081.139892578125</ele>
        <time>2006-07-29T14:17:09Z</time>
      </trkpt>
      <trkpt lat="46.100564002990723" lon="9.345459938049316">
        <ele>1080.178466796875</ele>
        <time>2006-07-29T14:17:20Z</time>
      </trkpt>
      <trkpt lat="46.100735664367676" lon="9.345288276672363">
        <ele>1080.6591796875</ele>
        <time>2006-07-29T14:17:27Z</time>
      </trkpt>
      <trkpt lat="46.100735664367676" lon="9.345095157623291">
        <ele>1080.6591796875</ele>
        <time>2006-07-29T14:17:31Z</time>
      </trkpt>
      <trkpt lat="46.100842952728271" lon="9.344601631164551">
        <ele>1079.217041015625</ele>
        <time>2006-07-29T14:17:42Z</time>
      </trkpt>
      <trkpt lat="46.100907325744629" lon="9.344258308410645">
        <ele>1079.217041015625</ele>
        <time>2006-07-29T14:17:51Z</time>
      </trkpt>
      <trkpt lat="46.100950241088867" lon="9.343957901000977">
        <ele>1081.139892578125</ele>
        <time>2006-07-29T14:18:01Z</time>
      </trkpt>
      <trkpt lat="46.100950241088867" lon="9.343807697296143">
        <ele>1082.581787109375</ele>
        <time>2006-07-29T14:18:11Z</time>
      </trkpt>
      <trkpt lat="46.100950241088867" lon="9.343807697296143">
        <ele>1084.504638671875</ele>
        <time>2006-07-29T14:18:30Z</time>
      </trkpt>
      <trkpt lat="46.100971698760986" lon="9.343743324279785">
        <ele>1084.504638671875</ele>
        <time>2006-07-29T14:18:33Z</time>
      </trkpt>
      <trkpt lat="46.101057529449463" lon="9.343550205230713">
        <ele>1084.504638671875</ele>
        <time>2006-07-29T14:18:39Z</time>
      </trkpt>
      <trkpt lat="46.101057529449463" lon="9.343206882476807">
        <ele>1084.9853515625</ele>
        <time>2006-07-29T14:18:47Z</time>
      </trkpt>
      <trkpt lat="46.101143360137939" lon="9.342799186706543">
        <ele>1087.869140625</ele>
        <time>2006-07-29T14:18:58Z</time>
      </trkpt>
      <trkpt lat="46.101229190826416" lon="9.342477321624756">
        <ele>1088.83056640625</ele>
        <time>2006-07-29T14:19:06Z</time>
      </trkpt>
      <trkpt lat="46.101293563842773" lon="9.342112541198731">
        <ele>1085.946533203125</ele>
        <time>2006-07-29T14:19:17Z</time>
      </trkpt>
      <trkpt lat="46.101486682891846" lon="9.341897964477539">
        <ele>1085.946533203125</ele>
        <time>2006-07-29T14:19:32Z</time>
      </trkpt>
      <trkpt lat="46.101722717285156" lon="9.341640472412109">
        <ele>1085.946533203125</ele>
        <time>2006-07-29T14:19:45Z</time>
      </trkpt>
      <trkpt lat="46.102173328399658" lon="9.341146945953369">
        <ele>1085.946533203125</ele>
        <time>2006-07-29T14:19:56Z</time>
      </trkpt>
      <trkpt lat="46.102538108825684" lon="9.340953826904297">
        <ele>1083.54296875</ele>
        <time>2006-07-29T14:20:07Z</time>
      </trkpt>
      <trkpt lat="46.102688312530518" lon="9.340910911560059">
        <ele>1082.10107421875</ele>
        <time>2006-07-29T14:20:14Z</time>
      </trkpt>
      <trkpt lat="46.102924346923828" lon="9.340996742248535">
        <ele>1079.69775390625</ele>
        <time>2006-07-29T14:20:22Z</time>
      </trkpt>
      <trkpt lat="46.102967262268066" lon="9.341082572937012">
        <ele>1079.69775390625</ele>
        <time>2006-07-29T14:20:25Z</time>
      </trkpt>
      <trkpt lat="46.103203296661377" lon="9.341104030609131">
        <ele>1078.736572265625</ele>
        <time>2006-07-29T14:20:32Z</time>
      </trkpt>
      <trkpt lat="46.103417873382568" lon="9.341018199920654">
        <ele>1075.8525390625</ele>
        <time>2006-07-29T14:20:38Z</time>
      </trkpt>
      <trkpt lat="46.103353500366211" lon="9.340932369232178">
        <ele>1070.5654296875</ele>
        <time>2006-07-29T14:20:51Z</time>
      </trkpt>
      <trkpt lat="46.103396415710449" lon="9.340782165527344">
        <ele>1069.604248046875</ele>
        <time>2006-07-29T14:21:02Z</time>
      </trkpt>
      <trkpt lat="46.103417873382568" lon="9.340717792510986">
        <ele>1066.2392578125</ele>
        <time>2006-07-29T14:21:17Z</time>
      </trkpt>
      <trkpt lat="46.103417873382568" lon="9.340696334838867">
        <ele>1064.316650390625</ele>
        <time>2006-07-29T14:21:25Z</time>
      </trkpt>
      <trkpt lat="46.103653907775879" lon="9.340846538543701">
        <ele>1062.39404296875</ele>
        <time>2006-07-29T14:21:43Z</time>
      </trkpt>
      <trkpt lat="46.103782653808594" lon="9.340996742248535">
        <ele>1059.51025390625</ele>
        <time>2006-07-29T14:21:54Z</time>
      </trkpt>
      <trkpt lat="46.103696823120117" lon="9.340910911560059">
        <ele>970.107421875</ele>
        <time>2006-07-29T14:27:47Z</time>
      </trkpt>
      <trkpt lat="46.103761196136475" lon="9.340910911560059">
        <ele>975.394775390625</ele>
        <time>2006-07-29T14:28:04Z</time>
      </trkpt>
      <trkpt lat="46.103825569152832" lon="9.34088945388794">
        <ele>975.394775390625</ele>
        <time>2006-07-29T14:28:16Z</time>
      </trkpt>
      <trkpt lat="46.104018688201904" lon="9.340932369232178">
        <ele>972.510986328125</ele>
        <time>2006-07-29T14:28:26Z</time>
      </trkpt>
      <trkpt lat="46.104276180267334" lon="9.341082572937012">
        <ele>970.107421875</ele>
        <time>2006-07-29T14:28:37Z</time>
      </trkpt>
      <trkpt lat="46.104512214660645" lon="9.34112548828125">
        <ele>967.7041015625</ele>
        <time>2006-07-29T14:28:47Z</time>
      </trkpt>
      <trkpt lat="46.104662418365479" lon="9.341104030609131">
        <ele>965.78173828125</ele>
        <time>2006-07-29T14:28:55Z</time>
      </trkpt>
      <trkpt lat="46.104705333709717" lon="9.341104030609131">
        <ele>964.8203125</ele>
        <time>2006-07-29T14:29:04Z</time>
      </trkpt>
      <trkpt lat="46.104791164398193" lon="9.341061115264893">
        <ele>964.339599609375</ele>
        <time>2006-07-29T14:29:15Z</time>
      </trkpt>
      <trkpt lat="46.104962825775146" lon="9.340953826904297">
        <ele>959.533203125</ele>
        <time>2006-07-29T14:29:26Z</time>
      </trkpt>
      <trkpt lat="46.105198860168457" lon="9.34086799621582">
        <ele>958.57177734375</ele>
        <time>2006-07-29T14:29:43Z</time>
      </trkpt>
      <trkpt lat="46.10537052154541" lon="9.34088945388794">
        <ele>956.649169921875</ele>
        <time>2006-07-29T14:30:13Z</time>
      </trkpt>
      <trkpt lat="46.105391979217529" lon="9.340546131134033">
        <ele>954.726318359375</ele>
        <time>2006-07-29T14:30:39Z</time>
      </trkpt>
      <trkpt lat="46.105391979217529" lon="9.340460300445557">
        <ele>954.726318359375</ele>
        <time>2006-07-29T14:30:46Z</time>
      </trkpt>
      <trkpt lat="46.10511302947998" lon="9.339666366577148">
        <ele>950.881103515625</ele>
        <time>2006-07-29T14:30:57Z</time>
      </trkpt>
      <trkpt lat="46.104662418365479" lon="9.338786602020264">
        <ele>947.5166015625</ele>
        <time>2006-07-29T14:31:07Z</time>
      </trkpt>
      <trkpt lat="46.104834079742432" lon="9.338893890380859">
        <ele>967.2236328125</ele>
        <time>2006-07-29T14:32:13Z</time>
      </trkpt>
      <trkpt lat="46.104791164398193" lon="9.338893890380859">
        <ele>944.632568359375</ele>
        <time>2006-07-29T14:33:24Z</time>
      </trkpt>
      <trkpt lat="46.104812622070313" lon="9.338829517364502">
        <ele>944.152099609375</ele>
        <time>2006-07-29T14:33:33Z</time>
      </trkpt>
      <trkpt lat="46.10487699508667" lon="9.338722229003906">
        <ele>942.710205078125</ele>
        <time>2006-07-29T14:33:45Z</time>
      </trkpt>
      <trkpt lat="46.104919910430908" lon="9.338657855987549">
        <ele>941.26806640625</ele>
        <time>2006-07-29T14:33:50Z</time>
      </trkpt>
      <trkpt lat="46.104984283447266" lon="9.338486194610596">
        <ele>938.384033203125</ele>
        <time>2006-07-29T14:34:03Z</time>
      </trkpt>
      <trkpt lat="46.105005741119385" lon="9.338335990905762">
        <ele>938.86474609375</ele>
        <time>2006-07-29T14:34:13Z</time>
      </trkpt>
      <trkpt lat="46.104984283447266" lon="9.338164329528809">
        <ele>940.306884765625</ele>
        <time>2006-07-29T14:34:26Z</time>
      </trkpt>
      <trkpt lat="46.104962825775146" lon="9.33814287185669">
        <ele>940.787353515625</ele>
        <time>2006-07-29T14:34:28Z</time>
      </trkpt>
      <trkpt lat="46.104919910430908" lon="9.337906837463379">
        <ele>941.26806640625</ele>
        <time>2006-07-29T14:34:43Z</time>
      </trkpt>
      <trkpt lat="46.104898452758789" lon="9.337735176086426">
        <ele>940.306884765625</ele>
        <time>2006-07-29T14:34:55Z</time>
      </trkpt>
      <trkpt lat="46.104898452758789" lon="9.337649345397949">
        <ele>940.787353515625</ele>
        <time>2006-07-29T14:34:59Z</time>
      </trkpt>
      <trkpt lat="46.104791164398193" lon="9.337263107299805">
        <ele>940.787353515625</ele>
        <time>2006-07-29T14:35:13Z</time>
      </trkpt>
      <trkpt lat="46.104683876037598" lon="9.337048530578613">
        <ele>940.787353515625</ele>
        <time>2006-07-29T14:35:20Z</time>
      </trkpt>
      <trkpt lat="46.104640960693359" lon="9.336619377136231">
        <ele>940.787353515625</ele>
        <time>2006-07-29T14:35:35Z</time>
      </trkpt>
      <trkpt lat="46.104576587677002" lon="9.336361885070801">
        <ele>940.787353515625</ele>
        <time>2006-07-29T14:35:41Z</time>
      </trkpt>
      <trkpt lat="46.104555130004883" lon="9.336276054382324">
        <ele>940.787353515625</ele>
        <time>2006-07-29T14:35:43Z</time>
      </trkpt>
      <trkpt lat="46.104576587677002" lon="9.33612585067749">
        <ele>940.787353515625</ele>
        <time>2006-07-29T14:35:47Z</time>
      </trkpt>
      <trkpt lat="46.104512214660645" lon="9.335868358612061">
        <ele>942.2294921875</ele>
        <time>2006-07-29T14:35:56Z</time>
      </trkpt>
      <trkpt lat="46.104490756988525" lon="9.335846900939941">
        <ele>942.710205078125</ele>
        <time>2006-07-29T14:35:57Z</time>
      </trkpt>
      <trkpt lat="46.104512214660645" lon="9.33563232421875">
        <ele>942.710205078125</ele>
        <time>2006-07-29T14:36:07Z</time>
      </trkpt>
      <trkpt lat="46.104512214660645" lon="9.335546493530273">
        <ele>940.787353515625</ele>
        <time>2006-07-29T14:36:27Z</time>
      </trkpt>
      <trkpt lat="46.104533672332764" lon="9.335417747497559">
        <ele>938.86474609375</ele>
        <time>2006-07-29T14:36:34Z</time>
      </trkpt>
      <trkpt lat="46.104512214660645" lon="9.335203170776367">
        <ele>938.86474609375</ele>
        <time>2006-07-29T14:36:39Z</time>
      </trkpt>
      <trkpt lat="46.104490756988525" lon="9.334988594055176">
        <ele>939.825927734375</ele>
        <time>2006-07-29T14:36:48Z</time>
      </trkpt>
      <trkpt lat="46.104512214660645" lon="9.334945678710938">
        <ele>939.825927734375</ele>
        <time>2006-07-29T14:36:50Z</time>
      </trkpt>
      <trkpt lat="46.104490756988525" lon="9.334924221038818">
        <ele>939.825927734375</ele>
        <time>2006-07-29T14:36:56Z</time>
      </trkpt>
      <trkpt lat="46.104469299316406" lon="9.334924221038818">
        <ele>933.577392578125</ele>
        <time>2006-07-29T14:39:05Z</time>
      </trkpt>
      <trkpt lat="46.104469299316406" lon="9.334902763366699">
        <ele>935.5</ele>
        <time>2006-07-29T14:45:02Z</time>
      </trkpt>
      <trkpt lat="46.104533672332764" lon="9.335074424743652">
        <ele>935.980712890625</ele>
        <time>2006-07-29T14:45:16Z</time>
      </trkpt>
      <trkpt lat="46.104533672332764" lon="9.335267543792725">
        <ele>935.980712890625</ele>
        <time>2006-07-29T14:45:29Z</time>
      </trkpt>
      <trkpt lat="46.104533672332764" lon="9.335417747497559">
        <ele>937.9033203125</ele>
        <time>2006-07-29T14:45:39Z</time>
      </trkpt>
      <trkpt lat="46.104490756988525" lon="9.335482120513916">
        <ele>938.384033203125</ele>
        <time>2006-07-29T14:45:49Z</time>
      </trkpt>
      <trkpt lat="46.104490756988525" lon="9.335503578186035">
        <ele>940.306884765625</ele>
        <time>2006-07-29T14:46:13Z</time>
      </trkpt>
      <trkpt lat="46.104469299316406" lon="9.335718154907227">
        <ele>938.86474609375</ele>
        <time>2006-07-29T14:46:20Z</time>
      </trkpt>
      <trkpt lat="46.104533672332764" lon="9.33588981628418">
        <ele>937.9033203125</ele>
        <time>2006-07-29T14:46:26Z</time>
      </trkpt>
      <trkpt lat="46.104512214660645" lon="9.336018562316895">
        <ele>936.94189453125</ele>
        <time>2006-07-29T14:46:30Z</time>
      </trkpt>
      <trkpt lat="46.104598045349121" lon="9.33638334274292">
        <ele>936.46142578125</ele>
        <time>2006-07-29T14:46:38Z</time>
      </trkpt>
      <trkpt lat="46.104662418365479" lon="9.336662292480469">
        <ele>935.980712890625</ele>
        <time>2006-07-29T14:46:46Z</time>
      </trkpt>
      <trkpt lat="46.104705333709717" lon="9.336855411529541">
        <ele>935.980712890625</ele>
        <time>2006-07-29T14:46:54Z</time>
      </trkpt>
      <trkpt lat="46.104748249053955" lon="9.337112903594971">
        <ele>935.5</ele>
        <time>2006-07-29T14:47:06Z</time>
      </trkpt>
      <trkpt lat="46.104812622070313" lon="9.337306022644043">
        <ele>936.46142578125</ele>
        <time>2006-07-29T14:47:14Z</time>
      </trkpt>
      <trkpt lat="46.104898452758789" lon="9.337563514709473">
        <ele>936.94189453125</ele>
        <time>2006-07-29T14:47:25Z</time>
      </trkpt>
      <trkpt lat="46.104984283447266" lon="9.337863922119141">
        <ele>938.384033203125</ele>
        <time>2006-07-29T14:47:37Z</time>
      </trkpt>
      <trkpt lat="46.104984283447266" lon="9.337928295135498">
        <ele>938.384033203125</ele>
        <time>2006-07-29T14:47:46Z</time>
      </trkpt>
      <trkpt lat="46.104984283447266" lon="9.338035583496094">
        <ele>937.422607421875</ele>
        <time>2006-07-29T14:47:56Z</time>
      </trkpt>
      <trkpt lat="46.105005741119385" lon="9.33814287185669">
        <ele>938.384033203125</ele>
        <time>2006-07-29T14:48:02Z</time>
      </trkpt>
      <trkpt lat="46.105027198791504" lon="9.338443279266357">
        <ele>938.384033203125</ele>
        <time>2006-07-29T14:48:14Z</time>
      </trkpt>
      <trkpt lat="46.105005741119385" lon="9.338593482971191">
        <ele>938.384033203125</ele>
        <time>2006-07-29T14:48:25Z</time>
      </trkpt>
      <trkpt lat="46.104941368103027" lon="9.338657855987549">
        <ele>937.9033203125</ele>
        <time>2006-07-29T14:48:35Z</time>
      </trkpt>
      <trkpt lat="46.10487699508667" lon="9.33887243270874">
        <ele>935.980712890625</ele>
        <time>2006-07-29T14:48:52Z</time>
      </trkpt>
      <trkpt lat="46.10487699508667" lon="9.33887243270874">
        <ele>934.05810546875</ele>
        <time>2006-07-29T14:49:02Z</time>
      </trkpt>
      <trkpt lat="46.104919910430908" lon="9.338850975036621">
        <ele>933.0966796875</ele>
        <time>2006-07-29T14:49:11Z</time>
      </trkpt>
      <trkpt lat="46.104984283447266" lon="9.338808059692383">
        <ele>930.212890625</ele>
        <time>2006-07-29T14:49:24Z</time>
      </trkpt>
      <trkpt lat="46.105091571807861" lon="9.338743686676025">
        <ele>928.77099609375</ele>
        <time>2006-07-29T14:49:46Z</time>
      </trkpt>
      <trkpt lat="46.105155944824219" lon="9.338786602020264">
        <ele>929.25146484375</ele>
        <time>2006-07-29T14:49:59Z</time>
      </trkpt>
      <trkpt lat="46.105198860168457" lon="9.338808059692383">
        <ele>929.732177734375</ele>
        <time>2006-07-29T14:50:03Z</time>
      </trkpt>
      <trkpt lat="46.105263233184814" lon="9.338829517364502">
        <ele>927.3291015625</ele>
        <time>2006-07-29T14:50:14Z</time>
      </trkpt>
      <trkpt lat="46.105327606201172" lon="9.338808059692383">
        <ele>926.36767578125</ele>
        <time>2006-07-29T14:50:26Z</time>
      </trkpt>
      <trkpt lat="46.10537052154541" lon="9.338808059692383">
        <ele>925.886962890625</ele>
        <time>2006-07-29T14:50:37Z</time>
      </trkpt>
      <trkpt lat="46.105434894561768" lon="9.338808059692383">
        <ele>925.40625</ele>
        <time>2006-07-29T14:50:46Z</time>
      </trkpt>
      <trkpt lat="46.105456352233887" lon="9.338808059692383">
        <ele>923.964111328125</ele>
        <time>2006-07-29T14:50:59Z</time>
      </trkpt>
      <trkpt lat="46.105499267578125" lon="9.338808059692383">
        <ele>923.0029296875</ele>
        <time>2006-07-29T14:51:07Z</time>
      </trkpt>
      <trkpt lat="46.105499267578125" lon="9.338786602020264">
        <ele>919.638427734375</ele>
        <time>2006-07-29T14:51:18Z</time>
      </trkpt>
      <trkpt lat="46.105520725250244" lon="9.338808059692383">
        <ele>920.118896484375</ele>
        <time>2006-07-29T14:51:27Z</time>
      </trkpt>
      <trkpt lat="46.105563640594482" lon="9.338829517364502">
        <ele>917.235107421875</ele>
        <time>2006-07-29T14:51:36Z</time>
      </trkpt>
      <trkpt lat="46.10562801361084" lon="9.338850975036621">
        <ele>914.35107421875</ele>
        <time>2006-07-29T14:51:47Z</time>
      </trkpt>
      <trkpt lat="46.105735301971436" lon="9.33887243270874">
        <ele>911.947998046875</ele>
        <time>2006-07-29T14:51:59Z</time>
      </trkpt>
      <trkpt lat="46.105799674987793" lon="9.338915348052979">
        <ele>906.660400390625</ele>
        <time>2006-07-29T14:52:10Z</time>
      </trkpt>
      <trkpt lat="46.10586404800415" lon="9.338958263397217">
        <ele>905.218505859375</ele>
        <time>2006-07-29T14:52:19Z</time>
      </trkpt>
      <trkpt lat="46.106014251708984" lon="9.339001178741455">
        <ele>905.218505859375</ele>
        <time>2006-07-29T14:52:35Z</time>
      </trkpt>
      <trkpt lat="46.10612154006958" lon="9.338915348052979">
        <ele>900.412109375</ele>
        <time>2006-07-29T14:52:49Z</time>
      </trkpt>
      <trkpt lat="46.106207370758057" lon="9.33887243270874">
        <ele>900.412109375</ele>
        <time>2006-07-29T14:53:08Z</time>
      </trkpt>
      <trkpt lat="46.106293201446533" lon="9.33887243270874">
        <ele>898.969970703125</ele>
        <time>2006-07-29T14:53:21Z</time>
      </trkpt>
      <trkpt lat="46.106507778167725" lon="9.338958263397217">
        <ele>898.0087890625</ele>
        <time>2006-07-29T14:54:10Z</time>
      </trkpt>
      <trkpt lat="46.106722354888916" lon="9.338057041168213">
        <ele>898.0087890625</ele>
        <time>2006-07-29T14:54:13Z</time>
      </trkpt>
      <trkpt lat="46.106636524200439" lon="9.338335990905762">
        <ele>898.0087890625</ele>
        <time>2006-07-29T14:54:24Z</time>
      </trkpt>
      <trkpt lat="46.106700897216797" lon="9.338486194610596">
        <ele>877.340576171875</ele>
        <time>2006-07-29T14:54:32Z</time>
      </trkpt>
      <trkpt lat="46.106765270233154" lon="9.33837890625">
        <ele>870.13037109375</ele>
        <time>2006-07-29T14:55:08Z</time>
      </trkpt>
      <trkpt lat="46.106915473937988" lon="9.33812141418457">
        <ele>869.169189453125</ele>
        <time>2006-07-29T14:55:34Z</time>
      </trkpt>
      <trkpt lat="46.107022762298584" lon="9.337949752807617">
        <ele>865.8046875</ele>
        <time>2006-07-29T14:55:58Z</time>
      </trkpt>
      <trkpt lat="46.107044219970703" lon="9.33788537979126">
        <ele>862.43994140625</ele>
        <time>2006-07-29T14:56:04Z</time>
      </trkpt>
      <trkpt lat="46.10713005065918" lon="9.337713718414307">
        <ele>858.114013671875</ele>
        <time>2006-07-29T14:56:18Z</time>
      </trkpt>
      <trkpt lat="46.107237339019775" lon="9.337499141693115">
        <ele>855.710693359375</ele>
        <time>2006-07-29T14:56:41Z</time>
      </trkpt>
      <trkpt lat="46.10736608505249" lon="9.337348937988281">
        <ele>854.268798828125</ele>
        <time>2006-07-29T14:57:09Z</time>
      </trkpt>
      <trkpt lat="46.107409000396729" lon="9.337434768676758">
        <ele>850.904052734375</ele>
        <time>2006-07-29T14:57:39Z</time>
      </trkpt>
      <trkpt lat="46.107451915740967" lon="9.337413311004639">
        <ele>845.616943359375</ele>
        <time>2006-07-29T14:58:17Z</time>
      </trkpt>
      <trkpt lat="46.107645034790039" lon="9.337263107299805">
        <ele>842.73291015625</ele>
        <time>2006-07-29T14:58:57Z</time>
      </trkpt>
      <trkpt lat="46.107730865478516" lon="9.337112903594971">
        <ele>842.73291015625</ele>
        <time>2006-07-29T14:59:30Z</time>
      </trkpt>
      <trkpt lat="46.108095645904541" lon="9.336082935333252">
        <ele>842.73291015625</ele>
        <time>2006-07-29T14:59:38Z</time>
      </trkpt>
      <trkpt lat="46.10837459564209" lon="9.335954189300537">
        <ele>842.73291015625</ele>
        <time>2006-07-29T15:00:12Z</time>
      </trkpt>
      <trkpt lat="46.108846664428711" lon="9.336898326873779">
        <ele>842.73291015625</ele>
        <time>2006-07-29T15:00:13Z</time>
      </trkpt>
      <trkpt lat="46.108503341674805" lon="9.335267543792725">
        <ele>842.73291015625</ele>
        <time>2006-07-29T15:00:21Z</time>
      </trkpt>
      <trkpt lat="46.108181476593018" lon="9.336168766021729">
        <ele>804.2802734375</ele>
        <time>2006-07-29T15:00:25Z</time>
      </trkpt>
      <trkpt lat="46.108095645904541" lon="9.336168766021729">
        <ele>805.241455078125</ele>
        <time>2006-07-29T15:00:33Z</time>
      </trkpt>
      <trkpt lat="46.108138561248779" lon="9.336190223693848">
        <ele>808.12548828125</ele>
        <time>2006-07-29T15:01:22Z</time>
      </trkpt>
      <trkpt lat="46.10811710357666" lon="9.336168766021729">
        <ele>792.263671875</ele>
        <time>2006-07-29T15:02:40Z</time>
      </trkpt>
      <trkpt lat="46.108074188232422" lon="9.335610866546631">
        <ele>792.263671875</ele>
        <time>2006-07-29T15:02:46Z</time>
      </trkpt>
      <trkpt lat="46.107966899871826" lon="9.334151744842529">
        <ele>786.495849609375</ele>
        <time>2006-07-29T15:02:52Z</time>
      </trkpt>
      <trkpt lat="46.10785961151123" lon="9.333722591400147">
        <ele>783.61181640625</ele>
        <time>2006-07-29T15:02:58Z</time>
      </trkpt>
      <trkpt lat="46.107838153839111" lon="9.333615303039551">
        <ele>779.766357421875</ele>
        <time>2006-07-29T15:03:04Z</time>
      </trkpt>
      <trkpt lat="46.107816696166992" lon="9.333593845367432">
        <ele>767.75</ele>
        <time>2006-07-29T15:05:57Z</time>
      </trkpt>
      <trkpt lat="46.107645034790039" lon="9.333250522613525">
        <ele>767.75</ele>
        <time>2006-07-29T15:06:16Z</time>
      </trkpt>
      <trkpt lat="46.107494831085205" lon="9.332971572875977">
        <ele>767.26953125</ele>
        <time>2006-07-29T15:06:33Z</time>
      </trkpt>
      <trkpt lat="46.107280254364014" lon="9.332520961761475">
        <ele>767.75</ele>
        <time>2006-07-29T15:07:10Z</time>
      </trkpt>
      <trkpt lat="46.107172966003418" lon="9.332370758056641">
        <ele>767.75</ele>
        <time>2006-07-29T15:07:28Z</time>
      </trkpt>
      <trkpt lat="46.107001304626465" lon="9.332263469696045">
        <ele>767.75</ele>
        <time>2006-07-29T15:07:52Z</time>
      </trkpt>
      <trkpt lat="46.106829643249512" lon="9.332005977630615">
        <ele>768.230712890625</ele>
        <time>2006-07-29T15:08:02Z</time>
      </trkpt>
      <trkpt lat="46.106593608856201" lon="9.331705570220947">
        <ele>767.75</ele>
        <time>2006-07-29T15:08:08Z</time>
      </trkpt>
      <trkpt lat="46.106529235839844" lon="9.331662654876709">
        <ele>767.26953125</ele>
        <time>2006-07-29T15:08:09Z</time>
      </trkpt>
      <trkpt lat="46.106185913085938" lon="9.331533908843994">
        <ele>767.75</ele>
        <time>2006-07-29T15:08:17Z</time>
      </trkpt>
      <trkpt lat="46.105992794036865" lon="9.331576824188232">
        <ele>768.71142578125</ele>
        <time>2006-07-29T15:08:27Z</time>
      </trkpt>
      <trkpt lat="46.105799674987793" lon="9.331555366516113">
        <ele>770.1533203125</ele>
        <time>2006-07-29T15:08:38Z</time>
      </trkpt>
      <trkpt lat="46.105649471282959" lon="9.331619739532471">
        <ele>771.59521484375</ele>
        <time>2006-07-29T15:08:48Z</time>
      </trkpt>
      <trkpt lat="46.105477809906006" lon="9.331684112548828">
        <ele>769.6728515625</ele>
        <time>2006-07-29T15:08:57Z</time>
      </trkpt>
      <trkpt lat="46.105349063873291" lon="9.331727027893066">
        <ele>771.11474609375</ele>
        <time>2006-07-29T15:09:08Z</time>
      </trkpt>
      <trkpt lat="46.105241775512695" lon="9.331769943237305">
        <ele>771.59521484375</ele>
        <time>2006-07-29T15:09:21Z</time>
      </trkpt>
      <trkpt lat="46.1051344871521" lon="9.331812858581543">
        <ele>772.075927734375</ele>
        <time>2006-07-29T15:09:35Z</time>
      </trkpt>
      <trkpt lat="46.104962825775146" lon="9.331791400909424">
        <ele>772.556640625</ele>
        <time>2006-07-29T15:09:48Z</time>
      </trkpt>
      <trkpt lat="46.104791164398193" lon="9.331812858581543">
        <ele>774.479248046875</ele>
        <time>2006-07-29T15:09:59Z</time>
      </trkpt>
      <trkpt lat="46.104640960693359" lon="9.33189868927002">
        <ele>775.4404296875</ele>
        <time>2006-07-29T15:10:09Z</time>
      </trkpt>
      <trkpt lat="46.104576587677002" lon="9.331941604614258">
        <ele>777.36328125</ele>
        <time>2006-07-29T15:10:16Z</time>
      </trkpt>
      <trkpt lat="46.104533672332764" lon="9.331984519958496">
        <ele>778.324462890625</ele>
        <time>2006-07-29T15:10:21Z</time>
      </trkpt>
      <trkpt lat="46.104426383972168" lon="9.332070350646973">
        <ele>781.208740234375</ele>
        <time>2006-07-29T15:10:34Z</time>
      </trkpt>
      <trkpt lat="46.104340553283691" lon="9.332113265991211">
        <ele>782.169921875</ele>
        <time>2006-07-29T15:10:43Z</time>
      </trkpt>
      <trkpt lat="46.104190349578857" lon="9.332091808319092">
        <ele>782.169921875</ele>
        <time>2006-07-29T15:10:51Z</time>
      </trkpt>
      <trkpt lat="46.104147434234619" lon="9.33213472366333">
        <ele>782.650634765625</ele>
        <time>2006-07-29T15:10:54Z</time>
      </trkpt>
      <trkpt lat="46.104061603546143" lon="9.332284927368164">
        <ele>782.650634765625</ele>
        <time>2006-07-29T15:11:00Z</time>
      </trkpt>
      <trkpt lat="46.103739738464355" lon="9.332563877105713">
        <ele>780.247314453125</ele>
        <time>2006-07-29T15:11:11Z</time>
      </trkpt>
      <trkpt lat="46.103203296661377" lon="9.33264970779419">
        <ele>778.80517578125</ele>
        <time>2006-07-29T15:11:19Z</time>
      </trkpt>
      <trkpt lat="46.102666854858398" lon="9.332799911499023">
        <ele>778.80517578125</ele>
        <time>2006-07-29T15:11:29Z</time>
      </trkpt>
      <trkpt lat="46.10238790512085" lon="9.332864284515381">
        <ele>779.766357421875</ele>
        <time>2006-07-29T15:11:37Z</time>
      </trkpt>
      <trkpt lat="46.102216243743896" lon="9.332907199859619">
        <ele>778.324462890625</ele>
        <time>2006-07-29T15:11:47Z</time>
      </trkpt>
      <trkpt lat="46.102066040039063" lon="9.332907199859619">
        <ele>779.28564453125</ele>
        <time>2006-07-29T15:12:00Z</time>
      </trkpt>
      <trkpt lat="46.10187292098999" lon="9.332563877105713">
        <ele>779.28564453125</ele>
        <time>2006-07-29T15:12:07Z</time>
      </trkpt>
      <trkpt lat="46.10163688659668" lon="9.332327842712402">
        <ele>778.80517578125</ele>
        <time>2006-07-29T15:12:12Z</time>
      </trkpt>
      <trkpt lat="46.101400852203369" lon="9.332199096679688">
        <ele>778.80517578125</ele>
        <time>2006-07-29T15:12:19Z</time>
      </trkpt>
      <trkpt lat="46.101207733154297" lon="9.33213472366333">
        <ele>779.28564453125</ele>
        <time>2006-07-29T15:12:24Z</time>
      </trkpt>
      <trkpt lat="46.101078987121582" lon="9.332027435302734">
        <ele>779.28564453125</ele>
        <time>2006-07-29T15:12:27Z</time>
      </trkpt>
      <trkpt lat="46.10062837600708" lon="9.33138370513916">
        <ele>776.882568359375</ele>
        <time>2006-07-29T15:12:37Z</time>
      </trkpt>
      <trkpt lat="46.099555492401123" lon="9.330053329467773">
        <ele>776.882568359375</ele>
        <time>2006-07-29T15:12:56Z</time>
      </trkpt>
      <trkpt lat="46.099512577056885" lon="9.329988956451416">
        <ele>776.882568359375</ele>
        <time>2006-07-29T15:12:57Z</time>
      </trkpt>
      <trkpt lat="46.099083423614502" lon="9.329924583435059">
        <ele>776.882568359375</ele>
        <time>2006-07-29T15:13:03Z</time>
      </trkpt>
      <trkpt lat="46.098933219909668" lon="9.330117702484131">
        <ele>776.40185546875</ele>
        <time>2006-07-29T15:13:07Z</time>
      </trkpt>
      <trkpt lat="46.098825931549072" lon="9.330418109893799">
        <ele>776.40185546875</ele>
        <time>2006-07-29T15:13:12Z</time>
      </trkpt>
      <trkpt lat="46.098804473876953" lon="9.330761432647705">
        <ele>776.40185546875</ele>
        <time>2006-07-29T15:13:16Z</time>
      </trkpt>
      <trkpt lat="46.0986328125" lon="9.330868721008301">
        <ele>774.9599609375</ele>
        <time>2006-07-29T15:13:20Z</time>
      </trkpt>
      <trkpt lat="46.098611354827881" lon="9.330847263336182">
        <ele>774.479248046875</ele>
        <time>2006-07-29T15:13:21Z</time>
      </trkpt>
      <trkpt lat="46.098482608795166" lon="9.330825805664063">
        <ele>774.479248046875</ele>
        <time>2006-07-29T15:13:23Z</time>
      </trkpt>
      <trkpt lat="46.097731590270996" lon="9.331169128417969">
        <ele>774.479248046875</ele>
        <time>2006-07-29T15:13:26Z</time>
      </trkpt>
      <trkpt lat="46.097602844238281" lon="9.331276416778565">
        <ele>774.479248046875</ele>
        <time>2006-07-29T15:13:33Z</time>
      </trkpt>
      <trkpt lat="46.0976243019104" lon="9.331061840057373">
        <ele>769.192138671875</ele>
        <time>2006-07-29T15:13:42Z</time>
      </trkpt>
      <trkpt lat="46.097452640533447" lon="9.330911636352539">
        <ele>766.30810546875</ele>
        <time>2006-07-29T15:13:52Z</time>
      </trkpt>
      <trkpt lat="46.097452640533447" lon="9.330911636352539">
        <ele>764.8662109375</ele>
        <time>2006-07-29T15:13:57Z</time>
      </trkpt>
      <trkpt lat="46.097366809844971" lon="9.330847263336182">
        <ele>757.65625</ele>
        <time>2006-07-29T15:15:03Z</time>
      </trkpt>
      <trkpt lat="46.097152233123779" lon="9.330525398254395">
        <ele>757.65625</ele>
        <time>2006-07-29T15:15:12Z</time>
      </trkpt>
      <trkpt lat="46.096787452697754" lon="9.330053329467773">
        <ele>757.65625</ele>
        <time>2006-07-29T15:15:22Z</time>
      </trkpt>
      <trkpt lat="46.096293926239014" lon="9.329323768615723">
        <ele>757.65625</ele>
        <time>2006-07-29T15:15:37Z</time>
      </trkpt>
      <trkpt lat="46.095757484436035" lon="9.328207969665527">
        <ele>757.65625</ele>
        <time>2006-07-29T15:15:55Z</time>
      </trkpt>
      <trkpt lat="46.095371246337891" lon="9.327671527862549">
        <ele>756.69482421875</ele>
        <time>2006-07-29T15:16:07Z</time>
      </trkpt>
      <trkpt lat="46.094813346862793" lon="9.327178001403809">
        <ele>757.175537109375</ele>
        <time>2006-07-29T15:16:23Z</time>
      </trkpt>
      <trkpt lat="46.094577312469482" lon="9.326727390289307">
        <ele>750.446533203125</ele>
        <time>2006-07-29T15:16:39Z</time>
      </trkpt>
      <trkpt lat="46.094620227813721" lon="9.326577186584473">
        <ele>745.158935546875</ele>
        <time>2006-07-29T15:16:46Z</time>
      </trkpt>
      <trkpt lat="46.094448566436768" lon="9.326255321502686">
        <ele>744.67822265625</ele>
        <time>2006-07-29T15:17:08Z</time>
      </trkpt>
      <trkpt lat="46.094362735748291" lon="9.326105117797852">
        <ele>743.717041015625</ele>
        <time>2006-07-29T15:17:22Z</time>
      </trkpt>
      <trkpt lat="46.094427108764648" lon="9.325590133666992">
        <ele>742.275146484375</ele>
        <time>2006-07-29T15:17:48Z</time>
      </trkpt>
      <trkpt lat="46.094512939453125" lon="9.325375556945801">
        <ele>737.468505859375</ele>
        <time>2006-07-29T15:18:01Z</time>
      </trkpt>
      <trkpt lat="46.094427108764648" lon="9.325225353240967">
        <ele>735.5458984375</ele>
        <time>2006-07-29T15:18:12Z</time>
      </trkpt>
      <trkpt lat="46.094191074371338" lon="9.324989318847656">
        <ele>734.584716796875</ele>
        <time>2006-07-29T15:18:21Z</time>
      </trkpt>
      <trkpt lat="46.093847751617432" lon="9.324731826782227">
        <ele>735.0654296875</ele>
        <time>2006-07-29T15:18:29Z</time>
      </trkpt>
      <trkpt lat="46.0931396484375" lon="9.324045181274414">
        <ele>735.0654296875</ele>
        <time>2006-07-29T15:18:43Z</time>
      </trkpt>
      <trkpt lat="46.092367172241211" lon="9.323058128356934">
        <ele>735.0654296875</ele>
        <time>2006-07-29T15:18:57Z</time>
      </trkpt>
      <trkpt lat="46.091723442077637" lon="9.32215690612793">
        <ele>733.623291015625</ele>
        <time>2006-07-29T15:19:09Z</time>
      </trkpt>
      <trkpt lat="46.091423034667969" lon="9.321749210357666">
        <ele>731.700439453125</ele>
        <time>2006-07-29T15:19:17Z</time>
      </trkpt>
      <trkpt lat="46.091101169586182" lon="9.321470260620117">
        <ele>725.451904296875</ele>
        <time>2006-07-29T15:19:26Z</time>
      </trkpt>
      <trkpt lat="46.090929508209229" lon="9.321491718292236">
        <ele>719.684326171875</ele>
        <time>2006-07-29T15:19:32Z</time>
      </trkpt>
      <trkpt lat="46.09065055847168" lon="9.321470260620117">
        <ele>714.87744140625</ele>
        <time>2006-07-29T15:19:41Z</time>
      </trkpt>
      <trkpt lat="46.09039306640625" lon="9.321362972259522">
        <ele>709.59033203125</ele>
        <time>2006-07-29T15:19:50Z</time>
      </trkpt>
      <trkpt lat="46.090028285980225" lon="9.321255683898926">
        <ele>704.30322265625</ele>
        <time>2006-07-29T15:20:00Z</time>
      </trkpt>
      <trkpt lat="46.089577674865723" lon="9.321105480194092">
        <ele>701.419189453125</ele>
        <time>2006-07-29T15:20:12Z</time>
      </trkpt>
      <trkpt lat="46.088976860046387" lon="9.320998191833496">
        <ele>702.861083984375</ele>
        <time>2006-07-29T15:20:26Z</time>
      </trkpt>
      <trkpt lat="46.088547706604004" lon="9.3208909034729">
        <ele>702.861083984375</ele>
        <time>2006-07-29T15:20:36Z</time>
      </trkpt>
      <trkpt lat="46.088204383850098" lon="9.320847988128662">
        <ele>701.419189453125</ele>
        <time>2006-07-29T15:20:45Z</time>
      </trkpt>
      <trkpt lat="46.087818145751953" lon="9.320719242095947">
        <ele>701.419189453125</ele>
        <time>2006-07-29T15:20:52Z</time>
      </trkpt>
      <trkpt lat="46.08738899230957" lon="9.320590496063232">
        <ele>699.97705078125</ele>
        <time>2006-07-29T15:21:01Z</time>
      </trkpt>
      <trkpt lat="46.087088584899902" lon="9.320590496063232">
        <ele>694.209228515625</ele>
        <time>2006-07-29T15:21:08Z</time>
      </trkpt>
      <trkpt lat="46.08665943145752" lon="9.320590496063232">
        <ele>691.805908203125</ele>
        <time>2006-07-29T15:21:14Z</time>
      </trkpt>
      <trkpt lat="46.08640193939209" lon="9.320611953735352">
        <ele>691.3251953125</ele>
        <time>2006-07-29T15:21:17Z</time>
      </trkpt>
      <trkpt lat="46.086208820343018" lon="9.320697784423828">
        <ele>689.88330078125</ele>
        <time>2006-07-29T15:21:19Z</time>
      </trkpt>
      <trkpt lat="46.085479259490967" lon="9.321105480194092">
        <ele>680.750732421875</ele>
        <time>2006-07-29T15:21:27Z</time>
      </trkpt>
      <trkpt lat="46.08515739440918" lon="9.32140588760376">
        <ele>676.905517578125</ele>
        <time>2006-07-29T15:21:31Z</time>
      </trkpt>
      <trkpt lat="46.085114479064941" lon="9.321556091308594">
        <ele>675.944091796875</ele>
        <time>2006-07-29T15:21:32Z</time>
      </trkpt>
      <trkpt lat="46.08489990234375" lon="9.322607517242432">
        <ele>673.060302734375</ele>
        <time>2006-07-29T15:21:39Z</time>
      </trkpt>
      <trkpt lat="46.084921360015869" lon="9.323251247406006">
        <ele>669.215087890625</ele>
        <time>2006-07-29T15:21:43Z</time>
      </trkpt>
      <trkpt lat="46.085007190704346" lon="9.323723316192627">
        <ele>666.8115234375</ele>
        <time>2006-07-29T15:21:46Z</time>
      </trkpt>
      <trkpt lat="46.084964275360107" lon="9.32415246963501">
        <ele>664.408203125</ele>
        <time>2006-07-29T15:21:50Z</time>
      </trkpt>
      <trkpt lat="46.08489990234375" lon="9.324023723602295">
        <ele>664.408203125</ele>
        <time>2006-07-29T15:21:52Z</time>
      </trkpt>
      <trkpt lat="46.08464241027832" lon="9.323444366455078">
        <ele>663.927490234375</ele>
        <time>2006-07-29T15:21:57Z</time>
      </trkpt>
      <trkpt lat="46.084578037261963" lon="9.323315620422363">
        <ele>663.927490234375</ele>
        <time>2006-07-29T15:21:58Z</time>
      </trkpt>
      <trkpt lat="46.084299087524414" lon="9.322521686553955">
        <ele>663.447021484375</ele>
        <time>2006-07-29T15:22:03Z</time>
      </trkpt>
      <trkpt lat="46.084234714508057" lon="9.322371482849121">
        <ele>663.447021484375</ele>
        <time>2006-07-29T15:22:04Z</time>
      </trkpt>
      <trkpt lat="46.084105968475342" lon="9.322092533111572">
        <ele>659.12109375</ele>
        <time>2006-07-29T15:22:06Z</time>
      </trkpt>
      <trkpt lat="46.084041595458984" lon="9.321427345275879">
        <ele>649.5078125</ele>
        <time>2006-07-29T15:22:10Z</time>
      </trkpt>
      <trkpt lat="46.084063053131104" lon="9.320762157440186">
        <ele>640.37548828125</ele>
        <time>2006-07-29T15:22:15Z</time>
      </trkpt>
      <trkpt lat="46.084105968475342" lon="9.32039737701416">
        <ele>635.568603515625</ele>
        <time>2006-07-29T15:22:20Z</time>
      </trkpt>
      <trkpt lat="46.084105968475342" lon="9.32039737701416">
        <ele>632.2041015625</ele>
        <time>2006-07-29T15:22:26Z</time>
      </trkpt>
      <trkpt lat="46.084170341491699" lon="9.320290088653565">
        <ele>632.2041015625</ele>
        <time>2006-07-29T15:22:47Z</time>
      </trkpt>
      <trkpt lat="46.084191799163818" lon="9.320247173309326">
        <ele>632.2041015625</ele>
        <time>2006-07-29T15:22:57Z</time>
      </trkpt>
      <trkpt lat="46.084234714508057" lon="9.320182800292969">
        <ele>632.684814453125</ele>
        <time>2006-07-29T15:23:14Z</time>
      </trkpt>
      <trkpt lat="46.084256172180176" lon="9.319946765899658">
        <ele>629.80078125</ele>
        <time>2006-07-29T15:23:20Z</time>
      </trkpt>
      <trkpt lat="46.084299087524414" lon="9.319539070129395">
        <ele>625.474853515625</ele>
        <time>2006-07-29T15:23:26Z</time>
      </trkpt>
      <trkpt lat="46.084256172180176" lon="9.319324493408203">
        <ele>623.07177734375</ele>
        <time>2006-07-29T15:23:29Z</time>
      </trkpt>
      <trkpt lat="46.083934307098389" lon="9.319174289703369">
        <ele>620.187744140625</ele>
        <time>2006-07-29T15:23:33Z</time>
      </trkpt>
      <trkpt lat="46.083505153656006" lon="9.319238662719727">
        <ele>615.381103515625</ele>
        <time>2006-07-29T15:23:37Z</time>
      </trkpt>
      <trkpt lat="46.08339786529541" lon="9.319303035736084">
        <ele>613.93896484375</ele>
        <time>2006-07-29T15:23:38Z</time>
      </trkpt>
      <trkpt lat="46.082861423492432" lon="9.320011138916016">
        <ele>604.326171875</ele>
        <time>2006-07-29T15:23:44Z</time>
      </trkpt>
      <trkpt lat="46.082797050476074" lon="9.320461750030518">
        <ele>600.961181640625</ele>
        <time>2006-07-29T15:23:47Z</time>
      </trkpt>
      <trkpt lat="46.082818508148193" lon="9.320611953735352">
        <ele>600</ele>
        <time>2006-07-29T15:23:48Z</time>
      </trkpt>
      <trkpt lat="46.083097457885742" lon="9.321942329406738">
        <ele>595.674072265625</ele>
        <time>2006-07-29T15:23:56Z</time>
      </trkpt>
      <trkpt lat="46.08314037322998" lon="9.322328567504883">
        <ele>595.193359375</ele>
        <time>2006-07-29T15:23:59Z</time>
      </trkpt>
      <trkpt lat="46.083033084869385" lon="9.322350025177002">
        <ele>594.712646484375</ele>
        <time>2006-07-29T15:24:03Z</time>
      </trkpt>
      <trkpt lat="46.08290433883667" lon="9.321920871734619">
        <ele>588.46435546875</ele>
        <time>2006-07-29T15:24:09Z</time>
      </trkpt>
      <trkpt lat="46.082775592803955" lon="9.32166337966919">
        <ele>584.618896484375</ele>
        <time>2006-07-29T15:24:13Z</time>
      </trkpt>
      <trkpt lat="46.082518100738525" lon="9.321470260620117">
        <ele>583.657470703125</ele>
        <time>2006-07-29T15:24:17Z</time>
      </trkpt>
      <trkpt lat="46.082303524017334" lon="9.32114839553833">
        <ele>580.29296875</ele>
        <time>2006-07-29T15:24:21Z</time>
      </trkpt>
      <trkpt lat="46.082131862640381" lon="9.320847988128662">
        <ele>578.370361328125</ele>
        <time>2006-07-29T15:24:24Z</time>
      </trkpt>
      <trkpt lat="46.08189582824707" lon="9.320676326751709">
        <ele>577.8896484375</ele>
        <time>2006-07-29T15:24:27Z</time>
      </trkpt>
      <trkpt lat="46.08165979385376" lon="9.320526123046875">
        <ele>575.967041015625</ele>
        <time>2006-07-29T15:24:31Z</time>
      </trkpt>
      <trkpt lat="46.081573963165283" lon="9.320504665374756">
        <ele>571.640869140625</ele>
        <time>2006-07-29T15:24:36Z</time>
      </trkpt>
      <trkpt lat="46.081531047821045" lon="9.320483207702637">
        <ele>565.873291015625</ele>
        <time>2006-07-29T15:24:51Z</time>
      </trkpt>
      <trkpt lat="46.081445217132568" lon="9.320354461669922">
        <ele>562.508544921875</ele>
        <time>2006-07-29T15:24:55Z</time>
      </trkpt>
      <trkpt lat="46.081423759460449" lon="9.31990385055542">
        <ele>557.7021484375</ele>
        <time>2006-07-29T15:25:01Z</time>
      </trkpt>
      <trkpt lat="46.08140230178833" lon="9.319603443145752">
        <ele>554.81787109375</ele>
        <time>2006-07-29T15:25:04Z</time>
      </trkpt>
      <trkpt lat="46.081552505493164" lon="9.319131374359131">
        <ele>550.97265625</ele>
        <time>2006-07-29T15:25:09Z</time>
      </trkpt>
      <trkpt lat="46.081788539886475" lon="9.318809509277344">
        <ele>549.53076171875</ele>
        <time>2006-07-29T15:25:13Z</time>
      </trkpt>
      <trkpt lat="46.081745624542236" lon="9.318487644195557">
        <ele>549.53076171875</ele>
        <time>2006-07-29T15:25:16Z</time>
      </trkpt>
      <trkpt lat="46.081981658935547" lon="9.318230152130127">
        <ele>548.0888671875</ele>
        <time>2006-07-29T15:25:20Z</time>
      </trkpt>
      <trkpt lat="46.082282066345215" lon="9.31816577911377">
        <ele>547.608154296875</ele>
        <time>2006-07-29T15:25:24Z</time>
      </trkpt>
      <trkpt lat="46.082496643066406" lon="9.317886829376221">
        <ele>547.12744140625</ele>
        <time>2006-07-29T15:25:27Z</time>
      </trkpt>
      <trkpt lat="46.082797050476074" lon="9.317393302917481">
        <ele>544.7242431640625</ele>
        <time>2006-07-29T15:25:32Z</time>
      </trkpt>
      <trkpt lat="46.082990169525146" lon="9.317286014556885">
        <ele>543.7628173828125</ele>
        <time>2006-07-29T15:25:34Z</time>
      </trkpt>
      <trkpt lat="46.083290576934814" lon="9.317328929901123">
        <ele>542.801513671875</ele>
        <time>2006-07-29T15:25:37Z</time>
      </trkpt>
      <trkpt lat="46.083376407623291" lon="9.317200183868408">
        <ele>540.87890625</ele>
        <time>2006-07-29T15:25:40Z</time>
      </trkpt>
      <trkpt lat="46.083183288574219" lon="9.31715726852417">
        <ele>538.4757080078125</ele>
        <time>2006-07-29T15:25:43Z</time>
      </trkpt>
      <trkpt lat="46.082882881164551" lon="9.317135810852051">
        <ele>534.63037109375</ele>
        <time>2006-07-29T15:25:47Z</time>
      </trkpt>
      <trkpt lat="46.082711219787598" lon="9.317092895507813">
        <ele>533.1883544921875</ele>
        <time>2006-07-29T15:25:49Z</time>
      </trkpt>
      <trkpt lat="46.082389354705811" lon="9.317328929901123">
        <ele>528.862548828125</ele>
        <time>2006-07-29T15:25:53Z</time>
      </trkpt>
      <trkpt lat="46.082324981689453" lon="9.317436218261719">
        <ele>527.9010009765625</ele>
        <time>2006-07-29T15:25:54Z</time>
      </trkpt>
      <trkpt lat="46.082003116607666" lon="9.317800998687744">
        <ele>525.0172119140625</ele>
        <time>2006-07-29T15:25:58Z</time>
      </trkpt>
      <trkpt lat="46.081552505493164" lon="9.31790828704834">
        <ele>524.0557861328125</ele>
        <time>2006-07-29T15:26:02Z</time>
      </trkpt>
      <trkpt lat="46.081337928771973" lon="9.317972660064697">
        <ele>523.5751953125</ele>
        <time>2006-07-29T15:26:04Z</time>
      </trkpt>
      <trkpt lat="46.081123352050781" lon="9.317951202392578">
        <ele>522.1331787109375</ele>
        <time>2006-07-29T15:26:07Z</time>
      </trkpt>
      <trkpt lat="46.081295013427734" lon="9.317800998687744">
        <ele>521.652587890625</ele>
        <time>2006-07-29T15:26:11Z</time>
      </trkpt>
      <trkpt lat="46.081359386444092" lon="9.317736625671387">
        <ele>521.652587890625</ele>
        <time>2006-07-29T15:26:12Z</time>
      </trkpt>
      <trkpt lat="46.081724166870117" lon="9.317457675933838">
        <ele>521.652587890625</ele>
        <time>2006-07-29T15:26:17Z</time>
      </trkpt>
      <trkpt lat="46.08189582824707" lon="9.316942691802979">
        <ele>518.287841796875</ele>
        <time>2006-07-29T15:26:22Z</time>
      </trkpt>
      <trkpt lat="46.081809997558594" lon="9.316813945770264">
        <ele>517.32666015625</ele>
        <time>2006-07-29T15:26:24Z</time>
      </trkpt>
      <trkpt lat="46.081745624542236" lon="9.316813945770264">
        <ele>516.365234375</ele>
        <time>2006-07-29T15:26:25Z</time>
      </trkpt>
      <trkpt lat="46.081595420837402" lon="9.316878318786621">
        <ele>514.92333984375</ele>
        <time>2006-07-29T15:26:27Z</time>
      </trkpt>
      <trkpt lat="46.081316471099854" lon="9.317243099212647">
        <ele>513.000732421875</ele>
        <time>2006-07-29T15:26:31Z</time>
      </trkpt>
      <trkpt lat="46.081058979034424" lon="9.3174147605896">
        <ele>511.5587158203125</ele>
        <time>2006-07-29T15:26:34Z</time>
      </trkpt>
      <trkpt lat="46.080780029296875" lon="9.317479133605957">
        <ele>508.6746826171875</ele>
        <time>2006-07-29T15:26:37Z</time>
      </trkpt>
      <trkpt lat="46.080286502838135" lon="9.317586421966553">
        <ele>504.348876953125</ele>
        <time>2006-07-29T15:26:42Z</time>
      </trkpt>
      <trkpt lat="46.079878807067871" lon="9.317779541015625">
        <ele>501.945556640625</ele>
        <time>2006-07-29T15:26:46Z</time>
      </trkpt>
      <trkpt lat="46.079578399658203" lon="9.31816577911377">
        <ele>499.0615234375</ele>
        <time>2006-07-29T15:26:50Z</time>
      </trkpt>
      <trkpt lat="46.079514026641846" lon="9.318101406097412">
        <ele>497.61962890625</ele>
        <time>2006-07-29T15:26:52Z</time>
      </trkpt>
      <trkpt lat="46.079578399658203" lon="9.317994117736816">
        <ele>496.6583251953125</ele>
        <time>2006-07-29T15:26:54Z</time>
      </trkpt>
      <trkpt lat="46.079685688018799" lon="9.317800998687744">
        <ele>493.2935791015625</ele>
        <time>2006-07-29T15:26:59Z</time>
      </trkpt>
      <trkpt lat="46.079771518707275" lon="9.317693710327148">
        <ele>489.9290771484375</ele>
        <time>2006-07-29T15:27:03Z</time>
      </trkpt>
      <trkpt lat="46.079878807067871" lon="9.317543506622315">
        <ele>487.0450439453125</ele>
        <time>2006-07-29T15:27:06Z</time>
      </trkpt>
      <trkpt lat="46.080200672149658" lon="9.317178726196289">
        <ele>481.2772216796875</ele>
        <time>2006-07-29T15:27:12Z</time>
      </trkpt>
      <trkpt lat="46.080436706542969" lon="9.317028522491455">
        <ele>479.3544921875</ele>
        <time>2006-07-29T15:27:15Z</time>
      </trkpt>
      <trkpt lat="46.080672740936279" lon="9.316599369049072">
        <ele>476.4705810546875</ele>
        <time>2006-07-29T15:27:19Z</time>
      </trkpt>
      <trkpt lat="46.080844402313232" lon="9.316277503967285">
        <ele>472.6253662109375</ele>
        <time>2006-07-29T15:27:22Z</time>
      </trkpt>
      <trkpt lat="46.080951690673828" lon="9.316213130950928">
        <ele>471.183349609375</ele>
        <time>2006-07-29T15:27:23Z</time>
      </trkpt>
      <trkpt lat="46.081209182739258" lon="9.316041469573975">
        <ele>468.29931640625</ele>
        <time>2006-07-29T15:27:27Z</time>
      </trkpt>
      <trkpt lat="46.081123352050781" lon="9.31591272354126">
        <ele>466.857421875</ele>
        <time>2006-07-29T15:27:29Z</time>
      </trkpt>
      <trkpt lat="46.080887317657471" lon="9.31591272354126">
        <ele>463.973388671875</ele>
        <time>2006-07-29T15:27:32Z</time>
      </trkpt>
      <trkpt lat="46.080629825592041" lon="9.316084384918213">
        <ele>460.6087646484375</ele>
        <time>2006-07-29T15:27:35Z</time>
      </trkpt>
      <trkpt lat="46.080501079559326" lon="9.316298961639404">
        <ele>458.6861572265625</ele>
        <time>2006-07-29T15:27:37Z</time>
      </trkpt>
      <trkpt lat="46.080350875854492" lon="9.316513538360596">
        <ele>456.282958984375</ele>
        <time>2006-07-29T15:27:39Z</time>
      </trkpt>
      <trkpt lat="46.080029010772705" lon="9.316620826721191">
        <ele>452.918212890625</ele>
        <time>2006-07-29T15:27:42Z</time>
      </trkpt>
      <trkpt lat="46.079921722412109" lon="9.316599369049072">
        <ele>451.95703125</ele>
        <time>2006-07-29T15:27:43Z</time>
      </trkpt>
      <trkpt lat="46.07966423034668" lon="9.316642284393311">
        <ele>450.5150146484375</ele>
        <time>2006-07-29T15:27:46Z</time>
      </trkpt>
      <trkpt lat="46.079578399658203" lon="9.316728115081787">
        <ele>449.072998046875</ele>
        <time>2006-07-29T15:27:48Z</time>
      </trkpt>
      <trkpt lat="46.079514026641846" lon="9.316985607147217">
        <ele>447.6309814453125</ele>
        <time>2006-07-29T15:27:52Z</time>
      </trkpt>
      <trkpt lat="46.079385280609131" lon="9.317243099212647">
        <ele>446.669677734375</ele>
        <time>2006-07-29T15:27:56Z</time>
      </trkpt>
      <trkpt lat="46.079299449920654" lon="9.317286014556885">
        <ele>446.669677734375</ele>
        <time>2006-07-29T15:27:57Z</time>
      </trkpt>
      <trkpt lat="46.078999042510986" lon="9.31765079498291">
        <ele>443.7857666015625</ele>
        <time>2006-07-29T15:28:02Z</time>
      </trkpt>
      <trkpt lat="46.078848838806152" lon="9.317693710327148">
        <ele>442.3438720703125</ele>
        <time>2006-07-29T15:28:04Z</time>
      </trkpt>
      <trkpt lat="46.078784465789795" lon="9.317543506622315">
        <ele>440.4212646484375</ele>
        <time>2006-07-29T15:28:06Z</time>
      </trkpt>
      <trkpt lat="46.078870296478271" lon="9.317393302917481">
        <ele>438.9791259765625</ele>
        <time>2006-07-29T15:28:08Z</time>
      </trkpt>
      <trkpt lat="46.078934669494629" lon="9.317371845245361">
        <ele>438.49853515625</ele>
        <time>2006-07-29T15:28:09Z</time>
      </trkpt>
      <trkpt lat="46.079299449920654" lon="9.316942691802979">
        <ele>434.6533203125</ele>
        <time>2006-07-29T15:28:15Z</time>
      </trkpt>
      <trkpt lat="46.079342365264893" lon="9.316813945770264">
        <ele>434.172607421875</ele>
        <time>2006-07-29T15:28:16Z</time>
      </trkpt>
      <trkpt lat="46.079556941986084" lon="9.316213130950928">
        <ele>428.8853759765625</ele>
        <time>2006-07-29T15:28:21Z</time>
      </trkpt>
      <trkpt lat="46.079964637756348" lon="9.315719604492188">
        <ele>424.0787353515625</ele>
        <time>2006-07-29T15:28:26Z</time>
      </trkpt>
      <trkpt lat="46.080071926116943" lon="9.31565523147583">
        <ele>423.117431640625</ele>
        <time>2006-07-29T15:28:27Z</time>
      </trkpt>
      <trkpt lat="46.080951690673828" lon="9.315140247344971">
        <ele>420.2333984375</ele>
        <time>2006-07-29T15:28:35Z</time>
      </trkpt>
      <trkpt lat="46.081080436706543" lon="9.315075874328613">
        <ele>420.2333984375</ele>
        <time>2006-07-29T15:28:36Z</time>
      </trkpt>
      <trkpt lat="46.081531047821045" lon="9.315032958984375">
        <ele>418.79150390625</ele>
        <time>2006-07-29T15:28:40Z</time>
      </trkpt>
      <trkpt lat="46.081681251525879" lon="9.314968585968018">
        <ele>417.8302001953125</ele>
        <time>2006-07-29T15:28:42Z</time>
      </trkpt>
      <trkpt lat="46.081616878509521" lon="9.314818382263184">
        <ele>415.907470703125</ele>
        <time>2006-07-29T15:28:44Z</time>
      </trkpt>
      <trkpt lat="46.081380844116211" lon="9.314711093902588">
        <ele>413.98486328125</ele>
        <time>2006-07-29T15:28:47Z</time>
      </trkpt>
      <trkpt lat="46.081295013427734" lon="9.314711093902588">
        <ele>413.5042724609375</ele>
        <time>2006-07-29T15:28:48Z</time>
      </trkpt>
      <trkpt lat="46.080994606018066" lon="9.314754009246826">
        <ele>410.6202392578125</ele>
        <time>2006-07-29T15:28:51Z</time>
      </trkpt>
      <trkpt lat="46.080458164215088" lon="9.314689636230469">
        <ele>404.3717041015625</ele>
        <time>2006-07-29T15:28:56Z</time>
      </trkpt>
      <trkpt lat="46.080243587493896" lon="9.314839839935303">
        <ele>401.968505859375</ele>
        <time>2006-07-29T15:28:58Z</time>
      </trkpt>
      <trkpt lat="46.079943180084229" lon="9.315118789672852">
        <ele>399.0843505859375</ele>
        <time>2006-07-29T15:29:01Z</time>
      </trkpt>
      <trkpt lat="46.079492568969727" lon="9.315268993377686">
        <ele>396.68115234375</ele>
        <time>2006-07-29T15:29:05Z</time>
      </trkpt>
      <trkpt lat="46.079492568969727" lon="9.315075874328613">
        <ele>395.7198486328125</ele>
        <time>2006-07-29T15:29:07Z</time>
      </trkpt>
      <trkpt lat="46.079599857330322" lon="9.31490421295166">
        <ele>394.758544921875</ele>
        <time>2006-07-29T15:29:09Z</time>
      </trkpt>
      <trkpt lat="46.079857349395752" lon="9.314754009246826">
        <ele>393.7972412109375</ele>
        <time>2006-07-29T15:29:12Z</time>
      </trkpt>
      <trkpt lat="46.079943180084229" lon="9.314475059509277">
        <ele>392.3553466796875</ele>
        <time>2006-07-29T15:29:15Z</time>
      </trkpt>
      <trkpt lat="46.079814434051514" lon="9.314432144165039">
        <ele>390.4326171875</ele>
        <time>2006-07-29T15:29:17Z</time>
      </trkpt>
      <trkpt lat="46.079642772674561" lon="9.314475059509277">
        <ele>388.9906005859375</ele>
        <time>2006-07-29T15:29:19Z</time>
      </trkpt>
      <trkpt lat="46.078956127166748" lon="9.314775466918945">
        <ele>383.7032470703125</ele>
        <time>2006-07-29T15:29:26Z</time>
      </trkpt>
      <trkpt lat="46.078505516052246" lon="9.315054416656494">
        <ele>378.8968505859375</ele>
        <time>2006-07-29T15:29:30Z</time>
      </trkpt>
      <trkpt lat="46.078140735626221" lon="9.315526485443115">
        <ele>374.57080078125</ele>
        <time>2006-07-29T15:29:34Z</time>
      </trkpt>
      <trkpt lat="46.078097820281982" lon="9.315698146820068">
        <ele>373.12890625</ele>
        <time>2006-07-29T15:29:35Z</time>
      </trkpt>
      <trkpt lat="46.077797412872314" lon="9.316513538360596">
        <ele>368.802978515625</ele>
        <time>2006-07-29T15:29:40Z</time>
      </trkpt>
      <trkpt lat="46.077625751495361" lon="9.316620826721191">
        <ele>367.3609619140625</ele>
        <time>2006-07-29T15:29:42Z</time>
      </trkpt>
      <trkpt lat="46.077539920806885" lon="9.316492080688477">
        <ele>366.3995361328125</ele>
        <time>2006-07-29T15:29:44Z</time>
      </trkpt>
      <trkpt lat="46.077625751495361" lon="9.316341876983643">
        <ele>365.4383544921875</ele>
        <time>2006-07-29T15:29:46Z</time>
      </trkpt>
      <trkpt lat="46.077711582183838" lon="9.316191673278809">
        <ele>363.996337890625</ele>
        <time>2006-07-29T15:29:48Z</time>
      </trkpt>
      <trkpt lat="46.077861785888672" lon="9.315547943115234">
        <ele>358.708984375</ele>
        <time>2006-07-29T15:29:54Z</time>
      </trkpt>
      <trkpt lat="46.077861785888672" lon="9.31541919708252">
        <ele>357.747802734375</ele>
        <time>2006-07-29T15:29:55Z</time>
      </trkpt>
      <trkpt lat="46.077861785888672" lon="9.315140247344971">
        <ele>355.8251953125</ele>
        <time>2006-07-29T15:29:57Z</time>
      </trkpt>
      <trkpt lat="46.077883243560791" lon="9.314882755279541">
        <ele>353.902587890625</ele>
        <time>2006-07-29T15:29:59Z</time>
      </trkpt>
      <trkpt lat="46.077775955200195" lon="9.314646720886231">
        <ele>351.9798583984375</ele>
        <time>2006-07-29T15:30:02Z</time>
      </trkpt>
      <trkpt lat="46.0776686668396" lon="9.314775466918945">
        <ele>351.0184326171875</ele>
        <time>2006-07-29T15:30:04Z</time>
      </trkpt>
      <trkpt lat="46.0776686668396" lon="9.314882755279541">
        <ele>350.537841796875</ele>
        <time>2006-07-29T15:30:05Z</time>
      </trkpt>
      <trkpt lat="46.077625751495361" lon="9.315247535705566">
        <ele>349.0958251953125</ele>
        <time>2006-07-29T15:30:08Z</time>
      </trkpt>
      <trkpt lat="46.07741117477417" lon="9.315590858459473">
        <ele>347.1732177734375</ele>
        <time>2006-07-29T15:30:12Z</time>
      </trkpt>
      <trkpt lat="46.077282428741455" lon="9.315569400787354">
        <ele>345.2506103515625</ele>
        <time>2006-07-29T15:30:14Z</time>
      </trkpt>
      <trkpt lat="46.077260971069336" lon="9.3153977394104">
        <ele>344.77001953125</ele>
        <time>2006-07-29T15:30:16Z</time>
      </trkpt>
      <trkpt lat="46.077432632446289" lon="9.315011501312256">
        <ele>342.8472900390625</ele>
        <time>2006-07-29T15:30:20Z</time>
      </trkpt>
      <trkpt lat="46.077432632446289" lon="9.314646720886231">
        <ele>339.96337890625</ele>
        <time>2006-07-29T15:30:23Z</time>
      </trkpt>
      <trkpt lat="46.077539920806885" lon="9.314174652099609">
        <ele>337.0794677734375</ele>
        <time>2006-07-29T15:30:27Z</time>
      </trkpt>
      <trkpt lat="46.077711582183838" lon="9.314110279083252">
        <ele>336.1181640625</ele>
        <time>2006-07-29T15:30:29Z</time>
      </trkpt>
      <trkpt lat="46.077797412872314" lon="9.314088821411133">
        <ele>335.6373291015625</ele>
        <time>2006-07-29T15:30:30Z</time>
      </trkpt>
      <trkpt lat="46.077990531921387" lon="9.313745498657227">
        <ele>333.234130859375</ele>
        <time>2006-07-29T15:30:34Z</time>
      </trkpt>
      <trkpt lat="46.077861785888672" lon="9.313552379608154">
        <ele>332.7535400390625</ele>
        <time>2006-07-29T15:30:37Z</time>
      </trkpt>
      <trkpt lat="46.077733039855957" lon="9.313359260559082">
        <ele>331.3115234375</ele>
        <time>2006-07-29T15:30:40Z</time>
      </trkpt>
      <trkpt lat="46.077926158905029" lon="9.313144683837891">
        <ele>330.3502197265625</ele>
        <time>2006-07-29T15:30:45Z</time>
      </trkpt>
      <trkpt lat="46.078097820281982" lon="9.312973022460938">
        <ele>329.388916015625</ele>
        <time>2006-07-29T15:30:49Z</time>
      </trkpt>
      <trkpt lat="46.078054904937744" lon="9.312844276428223">
        <ele>327.4661865234375</ele>
        <time>2006-07-29T15:30:52Z</time>
      </trkpt>
      <trkpt lat="46.077926158905029" lon="9.31290864944458">
        <ele>326.5048828125</ele>
        <time>2006-07-29T15:30:55Z</time>
      </trkpt>
      <trkpt lat="46.077711582183838" lon="9.312973022460938">
        <ele>326.024169921875</ele>
        <time>2006-07-29T15:31:00Z</time>
      </trkpt>
      <trkpt lat="46.077690124511719" lon="9.312736988067627">
        <ele>325.06298828125</ele>
        <time>2006-07-29T15:31:03Z</time>
      </trkpt>
      <trkpt lat="46.077797412872314" lon="9.312565326690674">
        <ele>323.140380859375</ele>
        <time>2006-07-29T15:31:06Z</time>
      </trkpt>
      <trkpt lat="46.078269481658936" lon="9.312608242034912">
        <ele>322.65966796875</ele>
        <time>2006-07-29T15:31:12Z</time>
      </trkpt>
      <trkpt lat="46.078548431396484" lon="9.31265115737915">
        <ele>322.178955078125</ele>
        <time>2006-07-29T15:31:15Z</time>
      </trkpt>
      <trkpt lat="46.078591346740723" lon="9.312458038330078">
        <ele>321.2177734375</ele>
        <time>2006-07-29T15:31:18Z</time>
      </trkpt>
      <trkpt lat="46.078462600708008" lon="9.312393665313721">
        <ele>321.2177734375</ele>
        <time>2006-07-29T15:31:20Z</time>
      </trkpt>
      <trkpt lat="46.078140735626221" lon="9.312222003936768">
        <ele>318.8143310546875</ele>
        <time>2006-07-29T15:31:25Z</time>
      </trkpt>
      <trkpt lat="46.0776686668396" lon="9.312179088592529">
        <ele>317.3724365234375</ele>
        <time>2006-07-29T15:31:30Z</time>
      </trkpt>
      <trkpt lat="46.077346801757813" lon="9.312179088592529">
        <ele>314.4884033203125</ele>
        <time>2006-07-29T15:31:33Z</time>
      </trkpt>
      <trkpt lat="46.077024936676025" lon="9.312222003936768">
        <ele>310.1624755859375</ele>
        <time>2006-07-29T15:31:37Z</time>
      </trkpt>
      <trkpt lat="46.077003479003906" lon="9.312071800231934">
        <ele>308.2398681640625</ele>
        <time>2006-07-29T15:31:39Z</time>
      </trkpt>
      <trkpt lat="46.077196598052979" lon="9.312028884887695">
        <ele>306.7978515625</ele>
        <time>2006-07-29T15:31:42Z</time>
      </trkpt>
      <trkpt lat="46.077260971069336" lon="9.312007427215576">
        <ele>305.836669921875</ele>
        <time>2006-07-29T15:31:43Z</time>
      </trkpt>
      <trkpt lat="46.077582836151123" lon="9.311814308166504">
        <ele>301.0299072265625</ele>
        <time>2006-07-29T15:31:47Z</time>
      </trkpt>
      <trkpt lat="46.077883243560791" lon="9.311535358428955">
        <ele>298.1461181640625</ele>
        <time>2006-07-29T15:31:51Z</time>
      </trkpt>
      <trkpt lat="46.07790470123291" lon="9.31140661239624">
        <ele>297.1846923828125</ele>
        <time>2006-07-29T15:31:52Z</time>
      </trkpt>
      <trkpt lat="46.078097820281982" lon="9.311041831970215">
        <ele>293.820068359375</ele>
        <time>2006-07-29T15:31:56Z</time>
      </trkpt>
      <trkpt lat="46.078269481658936" lon="9.311256408691406">
        <ele>292.378173828125</ele>
        <time>2006-07-29T15:31:59Z</time>
      </trkpt>
      <trkpt lat="46.078441143035889" lon="9.311535358428955">
        <ele>290.45556640625</ele>
        <time>2006-07-29T15:32:02Z</time>
      </trkpt>
      <trkpt lat="46.07841968536377" lon="9.311943054199219">
        <ele>288.05224609375</ele>
        <time>2006-07-29T15:32:06Z</time>
      </trkpt>
      <trkpt lat="46.078526973724365" lon="9.312028884887695">
        <ele>288.05224609375</ele>
        <time>2006-07-29T15:32:08Z</time>
      </trkpt>
      <trkpt lat="46.078591346740723" lon="9.312007427215576">
        <ele>287.5714111328125</ele>
        <time>2006-07-29T15:32:09Z</time>
      </trkpt>
      <trkpt lat="46.079192161560059" lon="9.311878681182861">
        <ele>287.0908203125</ele>
        <time>2006-07-29T15:32:16Z</time>
      </trkpt>
      <trkpt lat="46.079342365264893" lon="9.31166410446167">
        <ele>285.6488037109375</ele>
        <time>2006-07-29T15:32:19Z</time>
      </trkpt>
      <trkpt lat="46.079256534576416" lon="9.311428070068359">
        <ele>283.7261962890625</ele>
        <time>2006-07-29T15:32:22Z</time>
      </trkpt>
      <trkpt lat="46.078977584838867" lon="9.311213493347168">
        <ele>278.43896484375</ele>
        <time>2006-07-29T15:32:26Z</time>
      </trkpt>
      <trkpt lat="46.078526973724365" lon="9.310956001281738">
        <ele>271.2291259765625</ele>
        <time>2006-07-29T15:32:31Z</time>
      </trkpt>
      <trkpt lat="46.078205108642578" lon="9.310483932495117">
        <ele>267.864501953125</ele>
        <time>2006-07-29T15:32:36Z</time>
      </trkpt>
      <trkpt lat="46.078205108642578" lon="9.310269355773926">
        <ele>266.9031982421875</ele>
        <time>2006-07-29T15:32:38Z</time>
      </trkpt>
      <trkpt lat="46.078269481658936" lon="9.310204982757568">
        <ele>266.4224853515625</ele>
        <time>2006-07-29T15:32:39Z</time>
      </trkpt>
      <trkpt lat="46.078505516052246" lon="9.3099045753479">
        <ele>264.9805908203125</ele>
        <time>2006-07-29T15:32:43Z</time>
      </trkpt>
      <trkpt lat="46.078741550445557" lon="9.309732913970947">
        <ele>264.019287109375</ele>
        <time>2006-07-29T15:32:46Z</time>
      </trkpt>
      <trkpt lat="46.078763008117676" lon="9.309539794921875">
        <ele>262.5771484375</ele>
        <time>2006-07-29T15:32:49Z</time>
      </trkpt>
      <trkpt lat="46.078634262084961" lon="9.309561252593994">
        <ele>262.5771484375</ele>
        <time>2006-07-29T15:32:51Z</time>
      </trkpt>
      <trkpt lat="46.078269481658936" lon="9.30966854095459">
        <ele>259.693359375</ele>
        <time>2006-07-29T15:32:56Z</time>
      </trkpt>
      <trkpt lat="46.078183650970459" lon="9.309689998626709">
        <ele>258.2513427734375</ele>
        <time>2006-07-29T15:32:57Z</time>
      </trkpt>
      <trkpt lat="46.077818870544434" lon="9.309647083282471">
        <ele>254.8865966796875</ele>
        <time>2006-07-29T15:33:02Z</time>
      </trkpt>
      <trkpt lat="46.07764720916748" lon="9.309883117675781">
        <ele>253.9254150390625</ele>
        <time>2006-07-29T15:33:05Z</time>
      </trkpt>
      <trkpt lat="46.077582836151123" lon="9.30992603302002">
        <ele>253.9254150390625</ele>
        <time>2006-07-29T15:33:06Z</time>
      </trkpt>
      <trkpt lat="46.077239513397217" lon="9.3099045753479">
        <ele>252.0028076171875</ele>
        <time>2006-07-29T15:33:10Z</time>
      </trkpt>
      <trkpt lat="46.076939105987549" lon="9.309797286987305">
        <ele>251.0413818359375</ele>
        <time>2006-07-29T15:33:13Z</time>
      </trkpt>
      <trkpt lat="46.076681613922119" lon="9.309561252593994">
        <ele>248.63818359375</ele>
        <time>2006-07-29T15:33:16Z</time>
      </trkpt>
      <trkpt lat="46.076617240905762" lon="9.309089183807373">
        <ele>247.6767578125</ele>
        <time>2006-07-29T15:33:19Z</time>
      </trkpt>
      <trkpt lat="46.076617240905762" lon="9.308981895446777">
        <ele>246.23486328125</ele>
        <time>2006-07-29T15:33:20Z</time>
      </trkpt>
      <trkpt lat="46.076681613922119" lon="9.308724403381348">
        <ele>243.83154296875</ele>
        <time>2006-07-29T15:33:24Z</time>
      </trkpt>
      <trkpt lat="46.076681613922119" lon="9.308702945709229">
        <ele>241.908935546875</ele>
        <time>2006-07-29T15:33:29Z</time>
      </trkpt>
      <trkpt lat="46.076724529266357" lon="9.308681488037109">
        <ele>239.02490234375</ele>
        <time>2006-07-29T15:33:36Z</time>
      </trkpt>
      <trkpt lat="46.076745986938477" lon="9.308702945709229">
        <ele>236.6217041015625</ele>
        <time>2006-07-29T15:33:49Z</time>
      </trkpt>
      <trkpt lat="46.076810359954834" lon="9.308724403381348">
        <ele>236.1409912109375</ele>
        <time>2006-07-29T15:33:56Z</time>
      </trkpt>
      <trkpt lat="46.076810359954834" lon="9.308724403381348">
        <ele>236.1409912109375</ele>
        <time>2006-07-29T15:33:58Z</time>
      </trkpt>
    </trkseg>
  </trk>

</gpx>
